<?xml version='1.0' encoding='UTF-8'?><gpx version="1.1" creator="JPX - https://github.com/jenetics/jpx" xmlns="http://www.topografix.com/GPX/1/1"><trk><trkseg><trkpt lat="40.6495708" lon="15.1484843"><ele>346.0</ele><time>2026-04-06T08:38:01.984Z</time></trkpt><trkpt lat="40.6496837" lon="15.1485143"><ele>346.0</ele><time>2026-04-06T08:38:03.984Z</time></trkpt><trkpt lat="40.6498006" lon="15.148558"><ele>346.0</ele><time>2026-04-06T08:38:05.985Z</time></trkpt><trkpt lat="40.6498648" lon="15.1485839"><ele>346.0</ele><time>2026-04-06T08:38:06.984Z</time></trkpt><trkpt lat="40.649935" lon="15.148612"><ele>346.0</ele><time>2026-04-06T08:38:07.984Z</time></trkpt><trkpt lat="40.6500088" lon="15.1486461"><ele>346.0</ele><time>2026-04-06T08:38:08.984Z</time></trkpt><trkpt lat="40.6500681" lon="15.1486934"><ele>346.0</ele><time>2026-04-06T08:38:09.984Z</time></trkpt><trkpt lat="40.6501502" lon="15.1487693"><ele>346.0</ele><time>2026-04-06T08:38:11.984Z</time></trkpt><trkpt lat="40.6502044" lon="15.1488262"><ele>346.0</ele><time>2026-04-06T08:38:13.984Z</time></trkpt><trkpt lat="40.650279" lon="15.1488752"><ele>346.0</ele><time>2026-04-06T08:38:15.984Z</time></trkpt><trkpt lat="40.6503767" lon="15.1489741"><ele>346.0</ele><time>2026-04-06T08:38:18.984Z</time></trkpt><trkpt lat="40.6504332" lon="15.1490894"><ele>348.6</ele><time>2026-04-06T08:38:20.984Z</time></trkpt><trkpt lat="40.6504892" lon="15.1492033"><ele>351.20000000000005</ele><time>2026-04-06T08:38:22.984Z</time></trkpt><trkpt lat="40.6505217" lon="15.1493686"><ele>353.79999999999995</ele><time>2026-04-06T08:38:24.984Z</time></trkpt><trkpt lat="40.6505333" lon="15.1494593"><ele>356.4</ele><time>2026-04-06T08:38:25.984Z</time></trkpt><trkpt lat="40.6505395" lon="15.1495671"><ele>359.0</ele><time>2026-04-06T08:38:26.984Z</time></trkpt><trkpt lat="40.6505411" lon="15.149688"><ele>359.0</ele><time>2026-04-06T08:38:27.984Z</time></trkpt><trkpt lat="40.650554" lon="15.1497978"><ele>359.0</ele><time>2026-04-06T08:38:28.984Z</time></trkpt><trkpt lat="40.6505854" lon="15.1499183"><ele>359.0</ele><time>2026-04-06T08:38:29.984Z</time></trkpt><trkpt lat="40.6506233" lon="15.1500398"><ele>359.0</ele><time>2026-04-06T08:38:30.984Z</time></trkpt><trkpt lat="40.6506768" lon="15.1501554"><ele>359.0</ele><time>2026-04-06T08:38:31.984Z</time></trkpt><trkpt lat="40.6507325" lon="15.1502577"><ele>360.2</ele><time>2026-04-06T08:38:32.984Z</time></trkpt><trkpt lat="40.6507964" lon="15.1503693"><ele>361.4</ele><time>2026-04-06T08:38:33.984Z</time></trkpt><trkpt lat="40.6508562" lon="15.1504926"><ele>362.6</ele><time>2026-04-06T08:38:34.984Z</time></trkpt><trkpt lat="40.6509225" lon="15.1506094"><ele>363.8</ele><time>2026-04-06T08:38:35.984Z</time></trkpt><trkpt lat="40.6509892" lon="15.1507319"><ele>365.0</ele><time>2026-04-06T08:38:36.984Z</time></trkpt><trkpt lat="40.6510544" lon="15.1508601"><ele>366.0</ele><time>2026-04-06T08:38:37.984Z</time></trkpt><trkpt lat="40.6511137" lon="15.1509977"><ele>367.0</ele><time>2026-04-06T08:38:38.984Z</time></trkpt><trkpt lat="40.6511786" lon="15.1511394"><ele>368.0</ele><time>2026-04-06T08:38:39.984Z</time></trkpt><trkpt lat="40.6512441" lon="15.1512682"><ele>369.0</ele><time>2026-04-06T08:38:40.984Z</time></trkpt><trkpt lat="40.6513017" lon="15.1514009"><ele>370.75</ele><time>2026-04-06T08:38:41.984Z</time></trkpt><trkpt lat="40.6513616" lon="15.1515386"><ele>372.5</ele><time>2026-04-06T08:38:42.984Z</time></trkpt><trkpt lat="40.6514142" lon="15.1516696"><ele>374.25</ele><time>2026-04-06T08:38:43.985Z</time></trkpt><trkpt lat="40.6514637" lon="15.1518092"><ele>376.0</ele><time>2026-04-06T08:38:44.984Z</time></trkpt><trkpt lat="40.651504" lon="15.1519601"><ele>377.25</ele><time>2026-04-06T08:38:45.984Z</time></trkpt><trkpt lat="40.6515468" lon="15.1521094"><ele>378.5</ele><time>2026-04-06T08:38:46.984Z</time></trkpt><trkpt lat="40.6515898" lon="15.1522664"><ele>379.75</ele><time>2026-04-06T08:38:47.984Z</time></trkpt><trkpt lat="40.6516344" lon="15.1524166"><ele>381.0</ele><time>2026-04-06T08:38:48.984Z</time></trkpt><trkpt lat="40.6516806" lon="15.1525663"><ele>381.75</ele><time>2026-04-06T08:38:49.984Z</time></trkpt><trkpt lat="40.6517292" lon="15.1527169"><ele>382.5</ele><time>2026-04-06T08:38:50.984Z</time></trkpt><trkpt lat="40.6517697" lon="15.1528667"><ele>383.25</ele><time>2026-04-06T08:38:51.984Z</time></trkpt><trkpt lat="40.6518203" lon="15.1530115"><ele>384.0</ele><time>2026-04-06T08:38:52.984Z</time></trkpt><trkpt lat="40.651865" lon="15.1531641"><ele>384.25</ele><time>2026-04-06T08:38:53.984Z</time></trkpt><trkpt lat="40.6519109" lon="15.1533223"><ele>384.5</ele><time>2026-04-06T08:38:54.984Z</time></trkpt><trkpt lat="40.6519579" lon="15.1534795"><ele>384.75</ele><time>2026-04-06T08:38:55.984Z</time></trkpt><trkpt lat="40.6520025" lon="15.1536383"><ele>385.0</ele><time>2026-04-06T08:38:56.985Z</time></trkpt><trkpt lat="40.6520497" lon="15.1537986"><ele>387.0</ele><time>2026-04-06T08:38:57.984Z</time></trkpt><trkpt lat="40.652098" lon="15.153963"><ele>389.0</ele><time>2026-04-06T08:38:58.984Z</time></trkpt><trkpt lat="40.6521462" lon="15.154134"><ele>391.0</ele><time>2026-04-06T08:38:59.985Z</time></trkpt><trkpt lat="40.6521922" lon="15.1543015"><ele>393.0</ele><time>2026-04-06T08:39:00.985Z</time></trkpt><trkpt lat="40.6522414" lon="15.1544787"><ele>393.75</ele><time>2026-04-06T08:39:01.984Z</time></trkpt><trkpt lat="40.6522885" lon="15.1546464"><ele>394.5</ele><time>2026-04-06T08:39:02.984Z</time></trkpt><trkpt lat="40.6523388" lon="15.1548225"><ele>395.25</ele><time>2026-04-06T08:39:03.984Z</time></trkpt><trkpt lat="40.6523866" lon="15.1549977"><ele>396.0</ele><time>2026-04-06T08:39:04.984Z</time></trkpt><trkpt lat="40.652433" lon="15.1551687"><ele>396.75</ele><time>2026-04-06T08:39:05.984Z</time></trkpt><trkpt lat="40.6524824" lon="15.1553368"><ele>397.5</ele><time>2026-04-06T08:39:06.984Z</time></trkpt><trkpt lat="40.6525357" lon="15.1555047"><ele>398.25</ele><time>2026-04-06T08:39:07.985Z</time></trkpt><trkpt lat="40.6525799" lon="15.1556847"><ele>399.0</ele><time>2026-04-06T08:39:08.984Z</time></trkpt><trkpt lat="40.652633" lon="15.1558586"><ele>399.25</ele><time>2026-04-06T08:39:09.984Z</time></trkpt><trkpt lat="40.6526831" lon="15.156024"><ele>399.5</ele><time>2026-04-06T08:39:10.985Z</time></trkpt><trkpt lat="40.6527374" lon="15.1562019"><ele>399.75</ele><time>2026-04-06T08:39:11.984Z</time></trkpt><trkpt lat="40.6527845" lon="15.1563749"><ele>400.0</ele><time>2026-04-06T08:39:12.985Z</time></trkpt><trkpt lat="40.6528422" lon="15.1565466"><ele>402.75</ele><time>2026-04-06T08:39:13.984Z</time></trkpt><trkpt lat="40.6528962" lon="15.1567223"><ele>405.5</ele><time>2026-04-06T08:39:14.984Z</time></trkpt><trkpt lat="40.6529523" lon="15.1568935"><ele>408.25</ele><time>2026-04-06T08:39:15.984Z</time></trkpt><trkpt lat="40.6530114" lon="15.1570682"><ele>411.0</ele><time>2026-04-06T08:39:16.984Z</time></trkpt><trkpt lat="40.6530694" lon="15.157237"><ele>411.0</ele><time>2026-04-06T08:39:17.984Z</time></trkpt><trkpt lat="40.6531273" lon="15.1574089"><ele>411.0</ele><time>2026-04-06T08:39:18.984Z</time></trkpt><trkpt lat="40.6531841" lon="15.1575826"><ele>411.0</ele><time>2026-04-06T08:39:19.984Z</time></trkpt><trkpt lat="40.6532434" lon="15.1577542"><ele>411.0</ele><time>2026-04-06T08:39:20.984Z</time></trkpt><trkpt lat="40.6533051" lon="15.1579203"><ele>411.0</ele><time>2026-04-06T08:39:21.984Z</time></trkpt><trkpt lat="40.6533621" lon="15.1580878"><ele>411.0</ele><time>2026-04-06T08:39:22.984Z</time></trkpt><trkpt lat="40.6534236" lon="15.1582623"><ele>411.0</ele><time>2026-04-06T08:39:23.984Z</time></trkpt><trkpt lat="40.653479" lon="15.1584493"><ele>411.0</ele><time>2026-04-06T08:39:24.984Z</time></trkpt><trkpt lat="40.6535391" lon="15.1586166"><ele>411.25</ele><time>2026-04-06T08:39:25.984Z</time></trkpt><trkpt lat="40.6535961" lon="15.1587914"><ele>411.5</ele><time>2026-04-06T08:39:26.984Z</time></trkpt><trkpt lat="40.6536522" lon="15.1589741"><ele>411.75</ele><time>2026-04-06T08:39:27.984Z</time></trkpt><trkpt lat="40.6537173" lon="15.1591464"><ele>412.0</ele><time>2026-04-06T08:39:28.984Z</time></trkpt><trkpt lat="40.653784" lon="15.1593231"><ele>416.0</ele><time>2026-04-06T08:39:29.984Z</time></trkpt><trkpt lat="40.6538509" lon="15.1595065"><ele>420.0</ele><time>2026-04-06T08:39:30.984Z</time></trkpt><trkpt lat="40.6539197" lon="15.1596809"><ele>424.0</ele><time>2026-04-06T08:39:31.984Z</time></trkpt><trkpt lat="40.653983" lon="15.1598634"><ele>424.33333333333337</ele><time>2026-04-06T08:39:32.985Z</time></trkpt><trkpt lat="40.6540471" lon="15.1600452"><ele>424.66666666666663</ele><time>2026-04-06T08:39:33.984Z</time></trkpt><trkpt lat="40.6541078" lon="15.1602244"><ele>425.0</ele><time>2026-04-06T08:39:34.985Z</time></trkpt><trkpt lat="40.6541673" lon="15.1604136"><ele>425.0</ele><time>2026-04-06T08:39:35.984Z</time></trkpt><trkpt lat="40.6542284" lon="15.1605977"><ele>425.0</ele><time>2026-04-06T08:39:36.984Z</time></trkpt><trkpt lat="40.6542894" lon="15.160779"><ele>425.0</ele><time>2026-04-06T08:39:37.984Z</time></trkpt><trkpt lat="40.6543543" lon="15.160955"><ele>425.25</ele><time>2026-04-06T08:39:38.984Z</time></trkpt><trkpt lat="40.6544183" lon="15.1611297"><ele>425.5</ele><time>2026-04-06T08:39:39.984Z</time></trkpt><trkpt lat="40.6544905" lon="15.1613004"><ele>425.75</ele><time>2026-04-06T08:39:40.984Z</time></trkpt><trkpt lat="40.6545647" lon="15.1614719"><ele>426.0</ele><time>2026-04-06T08:39:41.984Z</time></trkpt><trkpt lat="40.6546436" lon="15.1616407"><ele>429.0</ele><time>2026-04-06T08:39:42.984Z</time></trkpt><trkpt lat="40.6547241" lon="15.1618134"><ele>432.0</ele><time>2026-04-06T08:39:43.984Z</time></trkpt><trkpt lat="40.6547937" lon="15.1619935"><ele>435.0</ele><time>2026-04-06T08:39:44.985Z</time></trkpt><trkpt lat="40.6548705" lon="15.1621684"><ele>435.0</ele><time>2026-04-06T08:39:45.984Z</time></trkpt><trkpt lat="40.6549464" lon="15.1623441"><ele>435.0</ele><time>2026-04-06T08:39:46.985Z</time></trkpt><trkpt lat="40.6550207" lon="15.1625171"><ele>435.0</ele><time>2026-04-06T08:39:47.984Z</time></trkpt><trkpt lat="40.6550948" lon="15.1626846"><ele>434.66666666666663</ele><time>2026-04-06T08:39:48.984Z</time></trkpt><trkpt lat="40.6551713" lon="15.1628573"><ele>434.3333333333333</ele><time>2026-04-06T08:39:49.984Z</time></trkpt><trkpt lat="40.6552522" lon="15.1630303"><ele>434.0</ele><time>2026-04-06T08:39:50.984Z</time></trkpt><trkpt lat="40.6553296" lon="15.1631922"><ele>435.75</ele><time>2026-04-06T08:39:51.984Z</time></trkpt><trkpt lat="40.6553968" lon="15.1633476"><ele>437.5</ele><time>2026-04-06T08:39:52.984Z</time></trkpt><trkpt lat="40.6554567" lon="15.1634905"><ele>439.25</ele><time>2026-04-06T08:39:53.984Z</time></trkpt><trkpt lat="40.6555178" lon="15.1636224"><ele>441.0</ele><time>2026-04-06T08:39:54.984Z</time></trkpt><trkpt lat="40.6555837" lon="15.1637599"><ele>441.0</ele><time>2026-04-06T08:39:55.984Z</time></trkpt><trkpt lat="40.6556484" lon="15.1638901"><ele>441.0</ele><time>2026-04-06T08:39:56.984Z</time></trkpt><trkpt lat="40.6557136" lon="15.1640117"><ele>441.0</ele><time>2026-04-06T08:39:57.984Z</time></trkpt><trkpt lat="40.6557704" lon="15.1641282"><ele>441.0</ele><time>2026-04-06T08:39:58.984Z</time></trkpt><trkpt lat="40.6558261" lon="15.1642277"><ele>441.0</ele><time>2026-04-06T08:39:59.984Z</time></trkpt><trkpt lat="40.6558842" lon="15.1643393"><ele>440.6</ele><time>2026-04-06T08:40:00.984Z</time></trkpt><trkpt lat="40.6559346" lon="15.1644524"><ele>440.20000000000005</ele><time>2026-04-06T08:40:01.984Z</time></trkpt><trkpt lat="40.6559872" lon="15.1645663"><ele>439.79999999999995</ele><time>2026-04-06T08:40:02.984Z</time></trkpt><trkpt lat="40.6560379" lon="15.1646849"><ele>439.4</ele><time>2026-04-06T08:40:03.984Z</time></trkpt><trkpt lat="40.6560851" lon="15.1648035"><ele>439.0</ele><time>2026-04-06T08:40:04.984Z</time></trkpt><trkpt lat="40.6561384" lon="15.1649132"><ele>440.2</ele><time>2026-04-06T08:40:05.984Z</time></trkpt><trkpt lat="40.6561982" lon="15.1650142"><ele>441.4</ele><time>2026-04-06T08:40:06.984Z</time></trkpt><trkpt lat="40.6562563" lon="15.1651135"><ele>442.6</ele><time>2026-04-06T08:40:07.984Z</time></trkpt><trkpt lat="40.6563225" lon="15.1652161"><ele>443.8</ele><time>2026-04-06T08:40:08.984Z</time></trkpt><trkpt lat="40.6563696" lon="15.1653106"><ele>445.0</ele><time>2026-04-06T08:40:09.984Z</time></trkpt><trkpt lat="40.6564159" lon="15.1653948"><ele>445.0</ele><time>2026-04-06T08:40:10.984Z</time></trkpt><trkpt lat="40.6564657" lon="15.1654794"><ele>445.0</ele><time>2026-04-06T08:40:11.984Z</time></trkpt><trkpt lat="40.656513" lon="15.165571"><ele>445.0</ele><time>2026-04-06T08:40:12.984Z</time></trkpt><trkpt lat="40.6565683" lon="15.1656693"><ele>445.0</ele><time>2026-04-06T08:40:13.984Z</time></trkpt><trkpt lat="40.6566329" lon="15.16578"><ele>445.0</ele><time>2026-04-06T08:40:14.984Z</time></trkpt><trkpt lat="40.656688" lon="15.1659001"><ele>444.25</ele><time>2026-04-06T08:40:15.984Z</time></trkpt><trkpt lat="40.6567567" lon="15.1660272"><ele>443.5</ele><time>2026-04-06T08:40:16.984Z</time></trkpt><trkpt lat="40.6568321" lon="15.1661537"><ele>442.75</ele><time>2026-04-06T08:40:17.984Z</time></trkpt><trkpt lat="40.6569102" lon="15.1662951"><ele>442.0</ele><time>2026-04-06T08:40:18.984Z</time></trkpt><trkpt lat="40.6569843" lon="15.1664242"><ele>443.25</ele><time>2026-04-06T08:40:19.984Z</time></trkpt><trkpt lat="40.657061" lon="15.1665661"><ele>444.5</ele><time>2026-04-06T08:40:20.985Z</time></trkpt><trkpt lat="40.6571365" lon="15.1667142"><ele>445.75</ele><time>2026-04-06T08:40:21.985Z</time></trkpt><trkpt lat="40.6572128" lon="15.1668743"><ele>447.0</ele><time>2026-04-06T08:40:22.984Z</time></trkpt><trkpt lat="40.6572994" lon="15.1670449"><ele>447.0</ele><time>2026-04-06T08:40:23.984Z</time></trkpt><trkpt lat="40.6573883" lon="15.1672076"><ele>447.0</ele><time>2026-04-06T08:40:24.984Z</time></trkpt><trkpt lat="40.6574767" lon="15.1673715"><ele>447.0</ele><time>2026-04-06T08:40:25.984Z</time></trkpt><trkpt lat="40.6575778" lon="15.1675291"><ele>448.0</ele><time>2026-04-06T08:40:26.984Z</time></trkpt><trkpt lat="40.6576737" lon="15.167702"><ele>449.0</ele><time>2026-04-06T08:40:27.984Z</time></trkpt><trkpt lat="40.6577798" lon="15.1678799"><ele>450.0</ele><time>2026-04-06T08:40:28.984Z</time></trkpt><trkpt lat="40.6578913" lon="15.1680537"><ele>449.0</ele><time>2026-04-06T08:40:29.985Z</time></trkpt><trkpt lat="40.658" lon="15.1682259"><ele>448.0</ele><time>2026-04-06T08:40:30.984Z</time></trkpt><trkpt lat="40.6581019" lon="15.1683837"><ele>447.0</ele><time>2026-04-06T08:40:31.984Z</time></trkpt><trkpt lat="40.6582054" lon="15.168522"><ele>447.0</ele><time>2026-04-06T08:40:32.985Z</time></trkpt><trkpt lat="40.6582938" lon="15.1686711"><ele>447.0</ele><time>2026-04-06T08:40:33.984Z</time></trkpt><trkpt lat="40.6583726" lon="15.1688095"><ele>447.0</ele><time>2026-04-06T08:40:34.984Z</time></trkpt><trkpt lat="40.6584511" lon="15.1689451"><ele>447.0</ele><time>2026-04-06T08:40:35.984Z</time></trkpt><trkpt lat="40.6585365" lon="15.1690619"><ele>447.75</ele><time>2026-04-06T08:40:36.984Z</time></trkpt><trkpt lat="40.6586236" lon="15.1691962"><ele>448.5</ele><time>2026-04-06T08:40:37.984Z</time></trkpt><trkpt lat="40.6587169" lon="15.1693307"><ele>449.25</ele><time>2026-04-06T08:40:38.984Z</time></trkpt><trkpt lat="40.6588083" lon="15.1694648"><ele>450.0</ele><time>2026-04-06T08:40:39.985Z</time></trkpt><trkpt lat="40.6589077" lon="15.1696025"><ele>450.0</ele><time>2026-04-06T08:40:40.984Z</time></trkpt><trkpt lat="40.6590084" lon="15.1697448"><ele>450.0</ele><time>2026-04-06T08:40:41.984Z</time></trkpt><trkpt lat="40.6591066" lon="15.1698906"><ele>450.0</ele><time>2026-04-06T08:40:42.984Z</time></trkpt><trkpt lat="40.6592046" lon="15.1700264"><ele>450.0</ele><time>2026-04-06T08:40:43.984Z</time></trkpt><trkpt lat="40.6592997" lon="15.1701652"><ele>448.75</ele><time>2026-04-06T08:40:44.985Z</time></trkpt><trkpt lat="40.659384" lon="15.1703093"><ele>447.5</ele><time>2026-04-06T08:40:45.984Z</time></trkpt><trkpt lat="40.6594797" lon="15.1704541"><ele>446.25</ele><time>2026-04-06T08:40:46.984Z</time></trkpt><trkpt lat="40.6595632" lon="15.170586"><ele>445.0</ele><time>2026-04-06T08:40:47.984Z</time></trkpt><trkpt lat="40.6596402" lon="15.1707106"><ele>442.8</ele><time>2026-04-06T08:40:48.984Z</time></trkpt><trkpt lat="40.6597105" lon="15.170813"><ele>440.6</ele><time>2026-04-06T08:40:49.984Z</time></trkpt><trkpt lat="40.6597805" lon="15.1709096"><ele>438.4</ele><time>2026-04-06T08:40:50.984Z</time></trkpt><trkpt lat="40.6598389" lon="15.170987"><ele>436.2</ele><time>2026-04-06T08:40:51.984Z</time></trkpt><trkpt lat="40.6599232" lon="15.1710538"><ele>434.0</ele><time>2026-04-06T08:40:52.985Z</time></trkpt><trkpt lat="40.6599999" lon="15.1711207"><ele>434.0</ele><time>2026-04-06T08:40:53.984Z</time></trkpt><trkpt lat="40.6600877" lon="15.1711794"><ele>434.0</ele><time>2026-04-06T08:40:54.984Z</time></trkpt><trkpt lat="40.6601804" lon="15.1712072"><ele>434.0</ele><time>2026-04-06T08:40:55.984Z</time></trkpt><trkpt lat="40.6602973" lon="15.1711822"><ele>434.0</ele><time>2026-04-06T08:40:56.984Z</time></trkpt><trkpt lat="40.66049" lon="15.1711799"><ele>432.4</ele><time>2026-04-06T08:40:58.984Z</time></trkpt><trkpt lat="40.6605912" lon="15.1711713"><ele>430.79999999999995</ele><time>2026-04-06T08:40:59.984Z</time></trkpt><trkpt lat="40.6606889" lon="15.1711519"><ele>429.20000000000005</ele><time>2026-04-06T08:41:00.984Z</time></trkpt><trkpt lat="40.6607785" lon="15.1711173"><ele>427.6</ele><time>2026-04-06T08:41:01.984Z</time></trkpt><trkpt lat="40.6608682" lon="15.1710615"><ele>426.0</ele><time>2026-04-06T08:41:02.984Z</time></trkpt><trkpt lat="40.6609337" lon="15.170992"><ele>426.0</ele><time>2026-04-06T08:41:03.985Z</time></trkpt><trkpt lat="40.6609907" lon="15.1709085"><ele>426.0</ele><time>2026-04-06T08:41:04.984Z</time></trkpt><trkpt lat="40.6610264" lon="15.1708072"><ele>426.0</ele><time>2026-04-06T08:41:05.984Z</time></trkpt><trkpt lat="40.6610492" lon="15.170687"><ele>426.0</ele><time>2026-04-06T08:41:06.984Z</time></trkpt><trkpt lat="40.6610772" lon="15.1705635"><ele>426.0</ele><time>2026-04-06T08:41:07.984Z</time></trkpt><trkpt lat="40.6611057" lon="15.1704362"><ele>424.20000000000005</ele><time>2026-04-06T08:41:08.984Z</time></trkpt><trkpt lat="40.6611468" lon="15.1703135"><ele>422.40000000000003</ele><time>2026-04-06T08:41:09.984Z</time></trkpt><trkpt lat="40.6611794" lon="15.1701663"><ele>420.6</ele><time>2026-04-06T08:41:10.984Z</time></trkpt><trkpt lat="40.6612074" lon="15.1700596"><ele>418.8</ele><time>2026-04-06T08:41:11.984Z</time></trkpt><trkpt lat="40.6612198" lon="15.169916"><ele>417.0</ele><time>2026-04-06T08:41:12.984Z</time></trkpt><trkpt lat="40.6612366" lon="15.1698088"><ele>417.0</ele><time>2026-04-06T08:41:13.984Z</time></trkpt><trkpt lat="40.6612816" lon="15.1696617"><ele>417.0</ele><time>2026-04-06T08:41:15.984Z</time></trkpt><trkpt lat="40.6613602" lon="15.1695677"><ele>417.0</ele><time>2026-04-06T08:41:17.984Z</time></trkpt><trkpt lat="40.6614519" lon="15.1695694"><ele>417.0</ele><time>2026-04-06T08:41:19.984Z</time></trkpt><trkpt lat="40.6615161" lon="15.1696095"><ele>417.0</ele><time>2026-04-06T08:41:20.984Z</time></trkpt><trkpt lat="40.6615767" lon="15.169657"><ele>417.0</ele><time>2026-04-06T08:41:21.984Z</time></trkpt><trkpt lat="40.6616417" lon="15.1697039"><ele>417.0</ele><time>2026-04-06T08:41:22.985Z</time></trkpt><trkpt lat="40.6617027" lon="15.1697508"><ele>417.0</ele><time>2026-04-06T08:41:23.984Z</time></trkpt><trkpt lat="40.6618056" lon="15.1697851"><ele>417.0</ele><time>2026-04-06T08:41:25.984Z</time></trkpt><trkpt lat="40.6618707" lon="15.1697655"><ele>417.0</ele><time>2026-04-06T08:41:26.984Z</time></trkpt><trkpt lat="40.661913" lon="15.1696899"><ele>417.0</ele><time>2026-04-06T08:41:27.984Z</time></trkpt><trkpt lat="40.6619302" lon="15.1696073"><ele>417.0</ele><time>2026-04-06T08:41:28.985Z</time></trkpt><trkpt lat="40.6619342" lon="15.1695052"><ele>417.0</ele><time>2026-04-06T08:41:29.985Z</time></trkpt><trkpt lat="40.661921" lon="15.1693981"><ele>417.0</ele><time>2026-04-06T08:41:30.985Z</time></trkpt><trkpt lat="40.6618953" lon="15.169288"><ele>417.0</ele><time>2026-04-06T08:41:31.985Z</time></trkpt><trkpt lat="40.6618566" lon="15.169183"><ele>417.0</ele><time>2026-04-06T08:41:32.985Z</time></trkpt><trkpt lat="40.6618234" lon="15.1690843"><ele>417.0</ele><time>2026-04-06T08:41:33.984Z</time></trkpt><trkpt lat="40.661786" lon="15.1689734"><ele>419.5</ele><time>2026-04-06T08:41:34.985Z</time></trkpt><trkpt lat="40.6617598" lon="15.1688542"><ele>422.0</ele><time>2026-04-06T08:41:35.984Z</time></trkpt><trkpt lat="40.661749" lon="15.1687523"><ele>424.5</ele><time>2026-04-06T08:41:36.984Z</time></trkpt><trkpt lat="40.6617705" lon="15.1686742"><ele>427.0</ele><time>2026-04-06T08:41:37.984Z</time></trkpt><trkpt lat="40.6617987" lon="15.1685292"><ele>429.5</ele><time>2026-04-06T08:41:39.984Z</time></trkpt><trkpt lat="40.6618488" lon="15.1684583"><ele>432.0</ele><time>2026-04-06T08:41:40.984Z</time></trkpt><trkpt lat="40.6619255" lon="15.168357"><ele>426.33333333333337</ele><time>2026-04-06T08:41:42.985Z</time></trkpt><trkpt lat="40.6619936" lon="15.1683241"><ele>420.6666666666667</ele><time>2026-04-06T08:41:43.984Z</time></trkpt><trkpt lat="40.6623117" lon="15.1683277"><ele>415.0</ele><time>2026-04-06T08:41:49.985Z</time></trkpt><trkpt lat="40.6623599" lon="15.1684272"><ele>415.0</ele><time>2026-04-06T08:41:51.984Z</time></trkpt><trkpt lat="40.6623181" lon="15.1685114"><ele>415.0</ele><time>2026-04-06T08:41:53.985Z</time></trkpt><trkpt lat="40.6622693" lon="15.1686"><ele>415.0</ele><time>2026-04-06T08:41:55.984Z</time></trkpt><trkpt lat="40.6622518" lon="15.1687228"><ele>415.0</ele><time>2026-04-06T08:41:57.984Z</time></trkpt><trkpt lat="40.6623403" lon="15.1688079"><ele>415.0</ele><time>2026-04-06T08:41:59.984Z</time></trkpt><trkpt lat="40.6624511" lon="15.1688254"><ele>415.00000000000006</ele><time>2026-04-06T08:42:00.984Z</time></trkpt><trkpt lat="40.6625309" lon="15.1688365"><ele>415.0</ele><time>2026-04-06T08:42:01.985Z</time></trkpt><trkpt lat="40.6626117" lon="15.1688577"><ele>415.0</ele><time>2026-04-06T08:42:02.985Z</time></trkpt><trkpt lat="40.6626909" lon="15.1688774"><ele>415.0</ele><time>2026-04-06T08:42:03.984Z</time></trkpt><trkpt lat="40.6627585" lon="15.168914"><ele>415.00000000000006</ele><time>2026-04-06T08:42:04.984Z</time></trkpt><trkpt lat="40.662798" lon="15.1689874"><ele>415.0</ele><time>2026-04-06T08:42:05.985Z</time></trkpt><trkpt lat="40.6628477" lon="15.1690742"><ele>416.6</ele><time>2026-04-06T08:42:06.984Z</time></trkpt><trkpt lat="40.6628673" lon="15.1691805"><ele>418.2</ele><time>2026-04-06T08:42:07.984Z</time></trkpt><trkpt lat="40.6629208" lon="15.1693178"><ele>419.79999999999995</ele><time>2026-04-06T08:42:08.984Z</time></trkpt><trkpt lat="40.6629441" lon="15.1694416"><ele>421.4</ele><time>2026-04-06T08:42:09.984Z</time></trkpt><trkpt lat="40.6629752" lon="15.169549"><ele>423.0</ele><time>2026-04-06T08:42:10.984Z</time></trkpt><trkpt lat="40.6630035" lon="15.1696714"><ele>423.0</ele><time>2026-04-06T08:42:11.984Z</time></trkpt><trkpt lat="40.6630318" lon="15.1697798"><ele>423.0</ele><time>2026-04-06T08:42:12.983Z</time></trkpt><trkpt lat="40.6630661" lon="15.169909"><ele>423.0</ele><time>2026-04-06T08:42:13.983Z</time></trkpt><trkpt lat="40.6631119" lon="15.1700277"><ele>423.0</ele><time>2026-04-06T08:42:14.984Z</time></trkpt><trkpt lat="40.663186" lon="15.1700926"><ele>423.0</ele><time>2026-04-06T08:42:15.983Z</time></trkpt><trkpt lat="40.6632641" lon="15.1701722"><ele>420.2</ele><time>2026-04-06T08:42:16.983Z</time></trkpt><trkpt lat="40.6633327" lon="15.1702474"><ele>417.4</ele><time>2026-04-06T08:42:17.983Z</time></trkpt><trkpt lat="40.6633908" lon="15.170325"><ele>414.59999999999997</ele><time>2026-04-06T08:42:18.983Z</time></trkpt><trkpt lat="40.6634223" lon="15.1704164"><ele>411.79999999999995</ele><time>2026-04-06T08:42:19.983Z</time></trkpt><trkpt lat="40.6634504" lon="15.1705447"><ele>409.0</ele><time>2026-04-06T08:42:20.983Z</time></trkpt><trkpt lat="40.6634548" lon="15.1706782"><ele>407.50000000000006</ele><time>2026-04-06T08:42:21.992Z</time></trkpt><trkpt lat="40.6634476" lon="15.170782"><ele>406.0</ele><time>2026-04-06T08:42:22.992Z</time></trkpt><trkpt lat="40.6634157" lon="15.170865"><ele>404.5</ele><time>2026-04-06T08:42:23.992Z</time></trkpt><trkpt lat="40.6633848" lon="15.1709484"><ele>403.0</ele><time>2026-04-06T08:42:24.992Z</time></trkpt><trkpt lat="40.6633827" lon="15.1710801"><ele>401.50000000000006</ele><time>2026-04-06T08:42:26.993Z</time></trkpt><trkpt lat="40.6634333" lon="15.1712271"><ele>400.0</ele><time>2026-04-06T08:42:28.992Z</time></trkpt><trkpt lat="40.6634653" lon="15.171318"><ele>400.00000000000006</ele><time>2026-04-06T08:42:29.992Z</time></trkpt><trkpt lat="40.6634986" lon="15.1714094"><ele>400.0</ele><time>2026-04-06T08:42:30.992Z</time></trkpt><trkpt lat="40.6635395" lon="15.1715281"><ele>400.0</ele><time>2026-04-06T08:42:31.992Z</time></trkpt><trkpt lat="40.6635671" lon="15.1716262"><ele>400.0</ele><time>2026-04-06T08:42:32.992Z</time></trkpt><trkpt lat="40.6635796" lon="15.1717176"><ele>400.00000000000006</ele><time>2026-04-06T08:42:33.992Z</time></trkpt><trkpt lat="40.6635795" lon="15.1718316"><ele>400.0</ele><time>2026-04-06T08:42:34.992Z</time></trkpt><trkpt lat="40.6635942" lon="15.171943"><ele>404.00000000000006</ele><time>2026-04-06T08:42:35.992Z</time></trkpt><trkpt lat="40.6636239" lon="15.1720538"><ele>408.0</ele><time>2026-04-06T08:42:36.992Z</time></trkpt><trkpt lat="40.6636635" lon="15.1721502"><ele>412.0</ele><time>2026-04-06T08:42:37.992Z</time></trkpt><trkpt lat="40.663703" lon="15.1722539"><ele>416.0</ele><time>2026-04-06T08:42:38.992Z</time></trkpt><trkpt lat="40.6637392" lon="15.1723612"><ele>420.00000000000006</ele><time>2026-04-06T08:42:39.992Z</time></trkpt><trkpt lat="40.6637812" lon="15.1724514"><ele>424.0</ele><time>2026-04-06T08:42:40.993Z</time></trkpt><trkpt lat="40.6638314" lon="15.1725508"><ele>424.1666666666667</ele><time>2026-04-06T08:42:41.993Z</time></trkpt><trkpt lat="40.6638902" lon="15.1726358"><ele>424.33333333333337</ele><time>2026-04-06T08:42:42.992Z</time></trkpt><trkpt lat="40.6639468" lon="15.1727019"><ele>424.5</ele><time>2026-04-06T08:42:43.992Z</time></trkpt><trkpt lat="40.6639819" lon="15.1727926"><ele>424.66666666666663</ele><time>2026-04-06T08:42:44.992Z</time></trkpt><trkpt lat="40.6640173" lon="15.1728904"><ele>424.8333333333333</ele><time>2026-04-06T08:42:45.992Z</time></trkpt><trkpt lat="40.664038" lon="15.1730467"><ele>425.0</ele><time>2026-04-06T08:42:47.992Z</time></trkpt><trkpt lat="40.6640109" lon="15.1731442"><ele>424.99999999999994</ele><time>2026-04-06T08:42:50.993Z</time></trkpt><trkpt lat="40.6640287" lon="15.1732382"><ele>425.0</ele><time>2026-04-06T08:42:52.993Z</time></trkpt><trkpt lat="40.6640761" lon="15.17332"><ele>425.0</ele><time>2026-04-06T08:42:54.992Z</time></trkpt><trkpt lat="40.6641562" lon="15.1733555"><ele>425.0</ele><time>2026-04-06T08:42:57.992Z</time></trkpt><trkpt lat="40.6642143" lon="15.1732376"><ele>424.99999999999994</ele><time>2026-04-06T08:43:00.992Z</time></trkpt><trkpt lat="40.6642393" lon="15.1731611"><ele>425.0</ele><time>2026-04-06T08:43:01.992Z</time></trkpt><trkpt lat="40.6642831" lon="15.1730718"><ele>424.99999999999994</ele><time>2026-04-06T08:43:02.993Z</time></trkpt><trkpt lat="40.6643198" lon="15.1729883"><ele>425.0</ele><time>2026-04-06T08:43:03.992Z</time></trkpt><trkpt lat="40.6643573" lon="15.1728822"><ele>425.0</ele><time>2026-04-06T08:43:04.993Z</time></trkpt><trkpt lat="40.6643991" lon="15.1727914"><ele>425.0</ele><time>2026-04-06T08:43:05.992Z</time></trkpt><trkpt lat="40.6644389" lon="15.1727111"><ele>424.99999999999994</ele><time>2026-04-06T08:43:06.992Z</time></trkpt><trkpt lat="40.6644983" lon="15.1726029"><ele>425.0</ele><time>2026-04-06T08:43:08.992Z</time></trkpt><trkpt lat="40.6646158" lon="15.1725769"><ele>428.4</ele><time>2026-04-06T08:43:10.992Z</time></trkpt><trkpt lat="40.6647524" lon="15.1725968"><ele>431.8</ele><time>2026-04-06T08:43:12.992Z</time></trkpt><trkpt lat="40.664821" lon="15.1726432"><ele>435.20000000000005</ele><time>2026-04-06T08:43:13.992Z</time></trkpt><trkpt lat="40.6648326" lon="15.1727993"><ele>438.6</ele><time>2026-04-06T08:43:15.992Z</time></trkpt><trkpt lat="40.6648289" lon="15.1729136"><ele>442.0</ele><time>2026-04-06T08:43:16.992Z</time></trkpt><trkpt lat="40.6648197" lon="15.1730474"><ele>442.0</ele><time>2026-04-06T08:43:17.992Z</time></trkpt><trkpt lat="40.6648058" lon="15.1731765"><ele>442.00000000000006</ele><time>2026-04-06T08:43:18.992Z</time></trkpt><trkpt lat="40.6647996" lon="15.1733043"><ele>442.00000000000006</ele><time>2026-04-06T08:43:19.993Z</time></trkpt><trkpt lat="40.6647973" lon="15.1734462"><ele>442.0</ele><time>2026-04-06T08:43:20.992Z</time></trkpt><trkpt lat="40.6647928" lon="15.1735893"><ele>442.0</ele><time>2026-04-06T08:43:21.992Z</time></trkpt><trkpt lat="40.6648047" lon="15.173738"><ele>442.0</ele><time>2026-04-06T08:43:22.992Z</time></trkpt><trkpt lat="40.6648189" lon="15.1738813"><ele>442.0</ele><time>2026-04-06T08:43:23.992Z</time></trkpt><trkpt lat="40.6648336" lon="15.1740465"><ele>442.0</ele><time>2026-04-06T08:43:24.992Z</time></trkpt><trkpt lat="40.6648575" lon="15.1741978"><ele>442.0</ele><time>2026-04-06T08:43:25.992Z</time></trkpt><trkpt lat="40.6648759" lon="15.1743244"><ele>442.83333333333337</ele><time>2026-04-06T08:43:26.993Z</time></trkpt><trkpt lat="40.6648981" lon="15.1744444"><ele>443.6666666666667</ele><time>2026-04-06T08:43:27.992Z</time></trkpt><trkpt lat="40.6649191" lon="15.1745642"><ele>444.5</ele><time>2026-04-06T08:43:28.992Z</time></trkpt><trkpt lat="40.6649508" lon="15.1746612"><ele>445.33333333333337</ele><time>2026-04-06T08:43:29.992Z</time></trkpt><trkpt lat="40.6649876" lon="15.1747378"><ele>446.1666666666667</ele><time>2026-04-06T08:43:30.992Z</time></trkpt><trkpt lat="40.6650196" lon="15.1748111"><ele>447.0</ele><time>2026-04-06T08:43:31.993Z</time></trkpt><trkpt lat="40.6650363" lon="15.1749681"><ele>447.6666666666667</ele><time>2026-04-06T08:43:33.992Z</time></trkpt><trkpt lat="40.6650238" lon="15.1750595"><ele>448.33333333333337</ele><time>2026-04-06T08:43:34.992Z</time></trkpt><trkpt lat="40.6649841" lon="15.175194"><ele>449.0</ele><time>2026-04-06T08:43:36.992Z</time></trkpt><trkpt lat="40.664927" lon="15.175243"><ele>449.6666666666667</ele><time>2026-04-06T08:43:37.993Z</time></trkpt><trkpt lat="40.6648303" lon="15.1753051"><ele>450.33333333333337</ele><time>2026-04-06T08:43:39.992Z</time></trkpt><trkpt lat="40.6647532" lon="15.1753254"><ele>451.0</ele><time>2026-04-06T08:43:40.992Z</time></trkpt><trkpt lat="40.664679" lon="15.1753474"><ele>451.0</ele><time>2026-04-06T08:43:41.992Z</time></trkpt><trkpt lat="40.6646161" lon="15.1753746"><ele>451.0</ele><time>2026-04-06T08:43:42.992Z</time></trkpt><trkpt lat="40.6645855" lon="15.1754822"><ele>451.0</ele><time>2026-04-06T08:43:45.993Z</time></trkpt><trkpt lat="40.6646384" lon="15.175569"><ele>451.0</ele><time>2026-04-06T08:43:47.992Z</time></trkpt><trkpt lat="40.6647444" lon="15.1755938"><ele>451.0</ele><time>2026-04-06T08:43:49.992Z</time></trkpt><trkpt lat="40.6648753" lon="15.175621"><ele>451.0</ele><time>2026-04-06T08:43:51.992Z</time></trkpt><trkpt lat="40.6649662" lon="15.1756405"><ele>451.0</ele><time>2026-04-06T08:43:52.993Z</time></trkpt><trkpt lat="40.665027" lon="15.1756641"><ele>451.0</ele><time>2026-04-06T08:43:53.992Z</time></trkpt><trkpt lat="40.6650941" lon="15.175686"><ele>451.0</ele><time>2026-04-06T08:43:55.992Z</time></trkpt><trkpt lat="40.6651753" lon="15.1757248"><ele>451.0</ele><time>2026-04-06T08:43:57.992Z</time></trkpt><trkpt lat="40.6652358" lon="15.1757578"><ele>451.0</ele><time>2026-04-06T08:43:59.993Z</time></trkpt><trkpt lat="40.6652987" lon="15.1757864"><ele>451.0</ele><time>2026-04-06T08:44:01.992Z</time></trkpt><trkpt lat="40.6653728" lon="15.1758186"><ele>453.1666666666667</ele><time>2026-04-06T08:44:03.992Z</time></trkpt><trkpt lat="40.6654588" lon="15.1758339"><ele>455.33333333333337</ele><time>2026-04-06T08:44:05.992Z</time></trkpt><trkpt lat="40.665525" lon="15.1758685"><ele>457.5</ele><time>2026-04-06T08:44:07.992Z</time></trkpt><trkpt lat="40.6656001" lon="15.175914"><ele>459.66666666666663</ele><time>2026-04-06T08:44:09.992Z</time></trkpt><trkpt lat="40.6656561" lon="15.1759838"><ele>461.8333333333333</ele><time>2026-04-06T08:44:11.993Z</time></trkpt><trkpt lat="40.6657139" lon="15.176072"><ele>464.0</ele><time>2026-04-06T08:44:14.992Z</time></trkpt><trkpt lat="40.6657608" lon="15.1761464"><ele>464.00000000000006</ele><time>2026-04-06T08:44:16.992Z</time></trkpt><trkpt lat="40.6657906" lon="15.176239"><ele>464.0</ele><time>2026-04-06T08:44:18.992Z</time></trkpt><trkpt lat="40.665827" lon="15.1763128"><ele>464.00000000000006</ele><time>2026-04-06T08:44:20.992Z</time></trkpt><trkpt lat="40.6658596" lon="15.1763947"><ele>464.00000000000006</ele><time>2026-04-06T08:44:22.992Z</time></trkpt><trkpt lat="40.6659015" lon="15.1764783"><ele>464.0</ele><time>2026-04-06T08:44:24.992Z</time></trkpt><trkpt lat="40.6659438" lon="15.1765606"><ele>464.00000000000006</ele><time>2026-04-06T08:44:26.992Z</time></trkpt><trkpt lat="40.6659829" lon="15.1766321"><ele>464.00000000000006</ele><time>2026-04-06T08:44:28.992Z</time></trkpt><trkpt lat="40.6660257" lon="15.1767401"><ele>464.8333333333333</ele><time>2026-04-06T08:44:31.992Z</time></trkpt><trkpt lat="40.6660742" lon="15.1768411"><ele>465.66666666666663</ele><time>2026-04-06T08:44:34.992Z</time></trkpt><trkpt lat="40.6661194" lon="15.1769181"><ele>466.5</ele><time>2026-04-06T08:44:40.992Z</time></trkpt><trkpt lat="40.6661648" lon="15.1770205"><ele>467.33333333333337</ele><time>2026-04-06T08:44:43.992Z</time></trkpt><trkpt lat="40.6662171" lon="15.1771018"><ele>468.1666666666667</ele><time>2026-04-06T08:44:46.992Z</time></trkpt><trkpt lat="40.6662701" lon="15.1771702"><ele>469.0</ele><time>2026-04-06T08:44:49.992Z</time></trkpt><trkpt lat="40.6663196" lon="15.1772334"><ele>470.50000000000006</ele><time>2026-04-06T08:44:52.992Z</time></trkpt><trkpt lat="40.6663955" lon="15.1772909"><ele>472.0</ele><time>2026-04-06T08:44:55.992Z</time></trkpt><trkpt lat="40.6664774" lon="15.1773453"><ele>473.5</ele><time>2026-04-06T08:44:58.992Z</time></trkpt><trkpt lat="40.6665484" lon="15.17741"><ele>475.0</ele><time>2026-04-06T08:45:00.992Z</time></trkpt><trkpt lat="40.6666167" lon="15.1774608"><ele>476.50000000000006</ele><time>2026-04-06T08:45:02.993Z</time></trkpt><trkpt lat="40.6666786" lon="15.1775072"><ele>478.0</ele><time>2026-04-06T08:45:04.992Z</time></trkpt><trkpt lat="40.6667395" lon="15.1775501"><ele>478.00000000000006</ele><time>2026-04-06T08:45:06.992Z</time></trkpt><trkpt lat="40.6668141" lon="15.1775809"><ele>478.0</ele><time>2026-04-06T08:45:09.992Z</time></trkpt><trkpt lat="40.6668864" lon="15.1776306"><ele>478.0</ele><time>2026-04-06T08:45:13.992Z</time></trkpt><trkpt lat="40.6669497" lon="15.1776766"><ele>478.0</ele><time>2026-04-06T08:45:16.992Z</time></trkpt><trkpt lat="40.6670267" lon="15.1777326"><ele>478.00000000000006</ele><time>2026-04-06T08:45:19.992Z</time></trkpt><trkpt lat="40.6670823" lon="15.1777716"><ele>478.0</ele><time>2026-04-06T08:45:21.992Z</time></trkpt><trkpt lat="40.6671434" lon="15.177812"><ele>479.1428571428572</ele><time>2026-04-06T08:45:23.992Z</time></trkpt><trkpt lat="40.6672134" lon="15.1778444"><ele>480.28571428571433</ele><time>2026-04-06T08:45:25.992Z</time></trkpt><trkpt lat="40.6672764" lon="15.1778537"><ele>481.42857142857144</ele><time>2026-04-06T08:45:27.992Z</time></trkpt><trkpt lat="40.6673615" lon="15.1778706"><ele>482.5714285714286</ele><time>2026-04-06T08:45:30.992Z</time></trkpt><trkpt lat="40.6674516" lon="15.1778908"><ele>483.7142857142858</ele><time>2026-04-06T08:45:33.992Z</time></trkpt><trkpt lat="40.6675171" lon="15.1779132"><ele>484.85714285714283</ele><time>2026-04-06T08:45:35.992Z</time></trkpt><trkpt lat="40.6675836" lon="15.1779179"><ele>486.0</ele><time>2026-04-06T08:45:37.992Z</time></trkpt><trkpt lat="40.6676685" lon="15.1779084"><ele>486.0</ele><time>2026-04-06T08:45:40.993Z</time></trkpt><trkpt lat="40.6677547" lon="15.1778985"><ele>486.0</ele><time>2026-04-06T08:45:43.992Z</time></trkpt><trkpt lat="40.6678248" lon="15.1778959"><ele>486.0</ele><time>2026-04-06T08:45:45.992Z</time></trkpt><trkpt lat="40.6679024" lon="15.1778927"><ele>486.0</ele><time>2026-04-06T08:45:47.992Z</time></trkpt><trkpt lat="40.6679886" lon="15.1778837"><ele>486.0</ele><time>2026-04-06T08:45:49.992Z</time></trkpt><trkpt lat="40.6680801" lon="15.1778821"><ele>486.0</ele><time>2026-04-06T08:45:51.992Z</time></trkpt><trkpt lat="40.6681757" lon="15.1778858"><ele>486.3333333333333</ele><time>2026-04-06T08:45:53.992Z</time></trkpt><trkpt lat="40.6682634" lon="15.1779317"><ele>486.66666666666663</ele><time>2026-04-06T08:45:55.992Z</time></trkpt><trkpt lat="40.6683319" lon="15.1779944"><ele>487.0</ele><time>2026-04-06T08:45:57.992Z</time></trkpt><trkpt lat="40.6684009" lon="15.1780469"><ele>487.3333333333333</ele><time>2026-04-06T08:45:59.992Z</time></trkpt><trkpt lat="40.668467" lon="15.1781047"><ele>487.66666666666663</ele><time>2026-04-06T08:46:01.992Z</time></trkpt><trkpt lat="40.6685288" lon="15.1781581"><ele>488.0</ele><time>2026-04-06T08:46:03.993Z</time></trkpt><trkpt lat="40.6686054" lon="15.1782052"><ele>489.49999999999994</ele><time>2026-04-06T08:46:05.992Z</time></trkpt><trkpt lat="40.6686768" lon="15.1782618"><ele>491.0</ele><time>2026-04-06T08:46:07.992Z</time></trkpt><trkpt lat="40.6687504" lon="15.178289"><ele>492.5</ele><time>2026-04-06T08:46:09.992Z</time></trkpt><trkpt lat="40.668815" lon="15.178303"><ele>494.0</ele><time>2026-04-06T08:46:11.991Z</time></trkpt><trkpt lat="40.6688944" lon="15.1783046"><ele>495.49999999999994</ele><time>2026-04-06T08:46:13.992Z</time></trkpt><trkpt lat="40.6689969" lon="15.1783031"><ele>497.0</ele><time>2026-04-06T08:46:15.991Z</time></trkpt><trkpt lat="40.6691079" lon="15.1783283"><ele>496.99999999999994</ele><time>2026-04-06T08:46:18.991Z</time></trkpt><trkpt lat="40.6691803" lon="15.1783369"><ele>497.0</ele><time>2026-04-06T08:46:20.991Z</time></trkpt><trkpt lat="40.6692468" lon="15.1783551"><ele>497.0</ele><time>2026-04-06T08:46:22.991Z</time></trkpt><trkpt lat="40.6693173" lon="15.1783677"><ele>497.0</ele><time>2026-04-06T08:46:24.991Z</time></trkpt><trkpt lat="40.6694009" lon="15.1783956"><ele>496.99999999999994</ele><time>2026-04-06T08:46:26.991Z</time></trkpt><trkpt lat="40.6694751" lon="15.1784205"><ele>497.0</ele><time>2026-04-06T08:46:28.991Z</time></trkpt><trkpt lat="40.6695525" lon="15.1784271"><ele>498.57142857142856</ele><time>2026-04-06T08:46:30.991Z</time></trkpt><trkpt lat="40.6696289" lon="15.1784407"><ele>500.1428571428571</ele><time>2026-04-06T08:46:32.992Z</time></trkpt><trkpt lat="40.6696976" lon="15.1784507"><ele>501.7142857142857</ele><time>2026-04-06T08:46:34.991Z</time></trkpt><trkpt lat="40.6697634" lon="15.1784564"><ele>503.2857142857143</ele><time>2026-04-06T08:46:36.992Z</time></trkpt><trkpt lat="40.6698348" lon="15.1784647"><ele>504.85714285714283</ele><time>2026-04-06T08:46:39.991Z</time></trkpt><trkpt lat="40.6699135" lon="15.178474"><ele>506.42857142857144</ele><time>2026-04-06T08:46:43.991Z</time></trkpt><trkpt lat="40.6699868" lon="15.1784888"><ele>508.0</ele><time>2026-04-06T08:46:46.991Z</time></trkpt><trkpt lat="40.6700762" lon="15.1785108"><ele>508.0</ele><time>2026-04-06T08:46:49.991Z</time></trkpt><trkpt lat="40.6701577" lon="15.1785358"><ele>508.0</ele><time>2026-04-06T08:46:52.991Z</time></trkpt><trkpt lat="40.6702205" lon="15.1785583"><ele>508.0</ele><time>2026-04-06T08:46:54.991Z</time></trkpt><trkpt lat="40.670286" lon="15.1785896"><ele>508.0</ele><time>2026-04-06T08:46:56.991Z</time></trkpt><trkpt lat="40.6703508" lon="15.1786068"><ele>508.0</ele><time>2026-04-06T08:46:58.991Z</time></trkpt><trkpt lat="40.670414" lon="15.1786172"><ele>508.0</ele><time>2026-04-06T08:47:00.991Z</time></trkpt><trkpt lat="40.6704832" lon="15.1786414"><ele>508.0</ele><time>2026-04-06T08:47:02.991Z</time></trkpt><trkpt lat="40.6705475" lon="15.1786647"><ele>509.14285714285717</ele><time>2026-04-06T08:47:04.991Z</time></trkpt><trkpt lat="40.6706349" lon="15.1786991"><ele>510.2857142857142</ele><time>2026-04-06T08:47:07.992Z</time></trkpt><trkpt lat="40.6707173" lon="15.1787339"><ele>511.4285714285714</ele><time>2026-04-06T08:47:10.991Z</time></trkpt><trkpt lat="40.6707741" lon="15.1787731"><ele>512.5714285714286</ele><time>2026-04-06T08:47:13.991Z</time></trkpt><trkpt lat="40.670817" lon="15.1788423"><ele>513.7142857142857</ele><time>2026-04-06T08:47:52.991Z</time></trkpt><trkpt lat="40.6708552" lon="15.1789138"><ele>514.8571428571428</ele><time>2026-04-06T08:48:00.051Z</time></trkpt><trkpt lat="40.6708807" lon="15.1789942"><ele>516.0</ele><time>2026-04-06T08:48:05.938Z</time></trkpt><trkpt lat="40.6709522" lon="15.17898"><ele>515.9999999999999</ele><time>2026-04-06T08:48:18.018Z</time></trkpt><trkpt lat="40.6708934" lon="15.1790292"><ele>516.0</ele><time>2026-04-06T08:50:34.999Z</time></trkpt><trkpt lat="40.670848" lon="15.1791038"><ele>516.0</ele><time>2026-04-06T08:51:42.032Z</time></trkpt><trkpt lat="40.670875" lon="15.1790247"><ele>516.0</ele><time>2026-04-06T08:54:00.007Z</time></trkpt><trkpt lat="40.6708724" lon="15.1791167"><ele>516.0</ele><time>2026-04-06T08:54:11.998Z</time></trkpt><trkpt lat="40.6709235" lon="15.1790359"><ele>515.9999999999999</ele><time>2026-04-06T08:55:01.984Z</time></trkpt><trkpt lat="40.6709808" lon="15.1789965"><ele>516.0</ele><time>2026-04-06T08:55:10.999Z</time></trkpt><trkpt lat="40.6710523" lon="15.178954"><ele>517.4</ele><time>2026-04-06T08:55:17.05Z</time></trkpt><trkpt lat="40.6711295" lon="15.1789739"><ele>518.8</ele><time>2026-04-06T08:55:23.031Z</time></trkpt><trkpt lat="40.6712721" lon="15.179039"><ele>520.1999999999999</ele><time>2026-04-06T08:55:28.998Z</time></trkpt><trkpt lat="40.6713694" lon="15.1790325"><ele>521.6</ele><time>2026-04-06T08:55:34.998Z</time></trkpt><trkpt lat="40.6714547" lon="15.1790069"><ele>523.0</ele><time>2026-04-06T08:55:39.998Z</time></trkpt><trkpt lat="40.6715275" lon="15.1789806"><ele>523.4285714285713</ele><time>2026-04-06T08:55:44.008Z</time></trkpt><trkpt lat="40.6715935" lon="15.1789698"><ele>523.8571428571429</ele><time>2026-04-06T08:55:48.008Z</time></trkpt><trkpt lat="40.6716584" lon="15.1789536"><ele>524.2857142857142</ele><time>2026-04-06T08:55:52.009Z</time></trkpt><trkpt lat="40.67173" lon="15.1789255"><ele>524.7142857142857</ele><time>2026-04-06T08:55:56.007Z</time></trkpt><trkpt lat="40.671796" lon="15.1788818"><ele>525.1428571428571</ele><time>2026-04-06T08:56:00.007Z</time></trkpt><trkpt lat="40.6718492" lon="15.178834"><ele>525.5714285714286</ele><time>2026-04-06T08:56:04.007Z</time></trkpt><trkpt lat="40.6719022" lon="15.1787603"><ele>526.0</ele><time>2026-04-06T08:56:09.007Z</time></trkpt><trkpt lat="40.6719814" lon="15.178703"><ele>527.6666666666667</ele><time>2026-04-06T08:56:13.007Z</time></trkpt><trkpt lat="40.6720609" lon="15.1786486"><ele>529.3333333333334</ele><time>2026-04-06T08:56:16.007Z</time></trkpt><trkpt lat="40.6721381" lon="15.178609"><ele>531.0</ele><time>2026-04-06T08:56:19.007Z</time></trkpt><trkpt lat="40.6722011" lon="15.1785797"><ele>532.6666666666666</ele><time>2026-04-06T08:56:22.007Z</time></trkpt><trkpt lat="40.6722641" lon="15.1785371"><ele>534.3333333333333</ele><time>2026-04-06T08:56:25.007Z</time></trkpt><trkpt lat="40.672348" lon="15.1785036"><ele>536.0</ele><time>2026-04-06T08:56:28.007Z</time></trkpt><trkpt lat="40.6724119" lon="15.1784758"><ele>536.0</ele><time>2026-04-06T08:56:31.007Z</time></trkpt><trkpt lat="40.6724764" lon="15.1784557"><ele>536.0</ele><time>2026-04-06T08:56:34.007Z</time></trkpt><trkpt lat="40.6725604" lon="15.1784421"><ele>536.0</ele><time>2026-04-06T08:56:38.007Z</time></trkpt><trkpt lat="40.6726275" lon="15.1784271"><ele>536.0</ele><time>2026-04-06T08:56:41.008Z</time></trkpt><trkpt lat="40.672689" lon="15.1784005"><ele>536.0</ele><time>2026-04-06T08:56:44.007Z</time></trkpt><trkpt lat="40.6727547" lon="15.1783753"><ele>536.0</ele><time>2026-04-06T08:56:48.007Z</time></trkpt><trkpt lat="40.6729441" lon="15.178383"><ele>537.5714285714286</ele><time>2026-04-06T08:57:04.007Z</time></trkpt><trkpt lat="40.6730055" lon="15.1783592"><ele>539.1428571428571</ele><time>2026-04-06T09:01:13.008Z</time></trkpt><trkpt lat="40.6730695" lon="15.1783615"><ele>540.7142857142857</ele><time>2026-04-06T09:01:31.016Z</time></trkpt><trkpt lat="40.6731228" lon="15.1783041"><ele>542.2857142857142</ele><time>2026-04-06T09:01:37.937Z</time></trkpt><trkpt lat="40.6731975" lon="15.1782813"><ele>543.8571428571428</ele><time>2026-04-06T09:01:43.007Z</time></trkpt><trkpt lat="40.6732647" lon="15.1782658"><ele>545.4285714285714</ele><time>2026-04-06T09:01:48.034Z</time></trkpt><trkpt lat="40.6733284" lon="15.1782788"><ele>547.0</ele><time>2026-04-06T09:01:53.015Z</time></trkpt><trkpt lat="40.6733916" lon="15.1782838"><ele>547.0</ele><time>2026-04-06T09:02:00.056Z</time></trkpt><trkpt lat="40.6734451" lon="15.1783288"><ele>547.0</ele><time>2026-04-06T09:02:06.037Z</time></trkpt><trkpt lat="40.67351" lon="15.1783404"><ele>547.0</ele><time>2026-04-06T09:02:13.007Z</time></trkpt><trkpt lat="40.6735737" lon="15.1783462"><ele>547.0</ele><time>2026-04-06T09:02:23.06Z</time></trkpt><trkpt lat="40.6736151" lon="15.1784099"><ele>547.0</ele><time>2026-04-06T09:03:25.014Z</time></trkpt><trkpt lat="40.6736814" lon="15.1784062"><ele>547.0</ele><time>2026-04-06T09:03:31.048Z</time></trkpt><trkpt lat="40.6737496" lon="15.1784188"><ele>547.0</ele><time>2026-04-06T09:03:39.057Z</time></trkpt><trkpt lat="40.6738156" lon="15.1784266"><ele>547.0</ele><time>2026-04-06T09:03:48.014Z</time></trkpt><trkpt lat="40.6737295" lon="15.1784092"><ele>547.0</ele><time>2026-04-06T09:04:35.014Z</time></trkpt><trkpt lat="40.6736587" lon="15.1784068"><ele>547.0</ele><time>2026-04-06T09:05:54.014Z</time></trkpt><trkpt lat="40.6735888" lon="15.1784043"><ele>547.0</ele><time>2026-04-06T09:06:00.053Z</time></trkpt><trkpt lat="40.6735224" lon="15.178381"><ele>547.0</ele><time>2026-04-06T09:06:05.036Z</time></trkpt><trkpt lat="40.6734511" lon="15.1783601"><ele>547.0</ele><time>2026-04-06T09:06:11.025Z</time></trkpt><trkpt lat="40.673386" lon="15.1783299"><ele>547.0</ele><time>2026-04-06T09:06:16.015Z</time></trkpt><trkpt lat="40.6733173" lon="15.1783217"><ele>547.0</ele><time>2026-04-06T09:06:21.061Z</time></trkpt><trkpt lat="40.6732482" lon="15.1783056"><ele>547.0</ele><time>2026-04-06T09:06:26.977Z</time></trkpt><trkpt lat="40.6731825" lon="15.1783266"><ele>547.0</ele><time>2026-04-06T09:06:33.981Z</time></trkpt><trkpt lat="40.673117" lon="15.1783481"><ele>547.0</ele><time>2026-04-06T09:06:40.035Z</time></trkpt><trkpt lat="40.6730517" lon="15.1783527"><ele>547.0</ele><time>2026-04-06T09:07:04.014Z</time></trkpt><trkpt lat="40.6731333" lon="15.1783058"><ele>547.0</ele><time>2026-04-06T09:07:30.996Z</time></trkpt><trkpt lat="40.6732038" lon="15.1782844"><ele>547.0</ele><time>2026-04-06T09:07:33.014Z</time></trkpt><trkpt lat="40.6732731" lon="15.1782652"><ele>547.0</ele><time>2026-04-06T09:07:36.014Z</time></trkpt><trkpt lat="40.6733518" lon="15.1782872"><ele>547.0</ele><time>2026-04-06T09:07:40.064Z</time></trkpt><trkpt lat="40.6734131" lon="15.1783066"><ele>547.0</ele><time>2026-04-06T09:07:43.075Z</time></trkpt><trkpt lat="40.6734798" lon="15.178328"><ele>547.0</ele><time>2026-04-06T09:07:46.045Z</time></trkpt><trkpt lat="40.6735523" lon="15.1783365"><ele>547.0</ele><time>2026-04-06T09:07:49.014Z</time></trkpt><trkpt lat="40.6736185" lon="15.1783461"><ele>547.0</ele><time>2026-04-06T09:07:52.026Z</time></trkpt><trkpt lat="40.6736827" lon="15.1783699"><ele>547.0</ele><time>2026-04-06T09:07:54.966Z</time></trkpt><trkpt lat="40.6737875" lon="15.1783832"><ele>548.5714285714286</ele><time>2026-04-06T09:10:21.023Z</time></trkpt><trkpt lat="40.6738693" lon="15.1784009"><ele>550.1428571428571</ele><time>2026-04-06T09:10:26.023Z</time></trkpt><trkpt lat="40.6739302" lon="15.1784345"><ele>551.7142857142857</ele><time>2026-04-06T09:10:30.03Z</time></trkpt><trkpt lat="40.6740103" lon="15.1784568"><ele>553.2857142857142</ele><time>2026-04-06T09:10:34.023Z</time></trkpt><trkpt lat="40.6740742" lon="15.1784714"><ele>554.8571428571429</ele><time>2026-04-06T09:10:37.025Z</time></trkpt><trkpt lat="40.6741423" lon="15.1784947"><ele>556.4285714285713</ele><time>2026-04-06T09:10:41.023Z</time></trkpt><trkpt lat="40.6742133" lon="15.1784958"><ele>558.0</ele><time>2026-04-06T09:10:47.061Z</time></trkpt><trkpt lat="40.6742941" lon="15.1785017"><ele>557.9999999999999</ele><time>2026-04-06T09:10:51.023Z</time></trkpt><trkpt lat="40.6743697" lon="15.1785451"><ele>558.0</ele><time>2026-04-06T09:10:55.023Z</time></trkpt><trkpt lat="40.6744275" lon="15.1785837"><ele>558.0</ele><time>2026-04-06T09:10:57.023Z</time></trkpt><trkpt lat="40.674511" lon="15.178633"><ele>558.0</ele><time>2026-04-06T09:10:59.023Z</time></trkpt><trkpt lat="40.6745715" lon="15.1786666"><ele>558.0</ele><time>2026-04-06T09:11:01.05Z</time></trkpt><trkpt lat="40.6746348" lon="15.1786851"><ele>557.9999999999999</ele><time>2026-04-06T09:11:03.077Z</time></trkpt><trkpt lat="40.6747078" lon="15.1786856"><ele>558.0</ele><time>2026-04-06T09:11:06.023Z</time></trkpt><trkpt lat="40.6747733" lon="15.1786969"><ele>559.4</ele><time>2026-04-06T09:11:08.044Z</time></trkpt><trkpt lat="40.6748718" lon="15.1786766"><ele>560.8</ele><time>2026-04-06T09:11:10.023Z</time></trkpt><trkpt lat="40.6749832" lon="15.1786731"><ele>562.2</ele><time>2026-04-06T09:11:12.023Z</time></trkpt><trkpt lat="40.6750852" lon="15.1786471"><ele>563.6</ele><time>2026-04-06T09:11:14.023Z</time></trkpt><trkpt lat="40.675181" lon="15.1785476"><ele>565.0</ele><time>2026-04-06T09:11:16.023Z</time></trkpt><trkpt lat="40.6752428" lon="15.1784918"><ele>565.5</ele><time>2026-04-06T09:11:17.023Z</time></trkpt><trkpt lat="40.6753021" lon="15.1784449"><ele>566.0</ele><time>2026-04-06T09:11:18.023Z</time></trkpt><trkpt lat="40.6753618" lon="15.1784004"><ele>566.5</ele><time>2026-04-06T09:11:19.023Z</time></trkpt><trkpt lat="40.6754152" lon="15.1783528"><ele>567.0</ele><time>2026-04-06T09:11:20.023Z</time></trkpt><trkpt lat="40.6755196" lon="15.1782762"><ele>567.5</ele><time>2026-04-06T09:11:22.023Z</time></trkpt><trkpt lat="40.6755739" lon="15.1782271"><ele>568.0</ele><time>2026-04-06T09:11:23.024Z</time></trkpt><trkpt lat="40.6756632" lon="15.1781189"><ele>570.1999999999999</ele><time>2026-04-06T09:11:25.023Z</time></trkpt><trkpt lat="40.6757074" lon="15.1780587"><ele>572.4</ele><time>2026-04-06T09:11:26.023Z</time></trkpt><trkpt lat="40.6757995" lon="15.1779864"><ele>574.5999999999999</ele><time>2026-04-06T09:11:28.024Z</time></trkpt><trkpt lat="40.6759199" lon="15.1779447"><ele>576.8</ele><time>2026-04-06T09:11:30.023Z</time></trkpt><trkpt lat="40.6760417" lon="15.1779042"><ele>579.0</ele><time>2026-04-06T09:11:32.023Z</time></trkpt><trkpt lat="40.6761584" lon="15.177867"><ele>579.0</ele><time>2026-04-06T09:11:34.023Z</time></trkpt><trkpt lat="40.6762802" lon="15.1778118"><ele>579.0</ele><time>2026-04-06T09:11:36.023Z</time></trkpt><trkpt lat="40.676348" lon="15.1777803"><ele>579.0</ele><time>2026-04-06T09:11:37.023Z</time></trkpt><trkpt lat="40.6764218" lon="15.1777395"><ele>579.0</ele><time>2026-04-06T09:11:38.024Z</time></trkpt><trkpt lat="40.6764934" lon="15.1776946"><ele>579.0</ele><time>2026-04-06T09:11:39.023Z</time></trkpt><trkpt lat="40.6765498" lon="15.1776457"><ele>579.0</ele><time>2026-04-06T09:11:40.024Z</time></trkpt><trkpt lat="40.6766595" lon="15.1775481"><ele>579.0</ele><time>2026-04-06T09:11:42.023Z</time></trkpt><trkpt lat="40.6767292" lon="15.1775068"><ele>579.0</ele><time>2026-04-06T09:11:43.023Z</time></trkpt><trkpt lat="40.6768008" lon="15.1774794"><ele>579.0</ele><time>2026-04-06T09:11:44.024Z</time></trkpt><trkpt lat="40.6768701" lon="15.1774539"><ele>579.0</ele><time>2026-04-06T09:11:45.023Z</time></trkpt><trkpt lat="40.6770033" lon="15.1774461"><ele>579.0</ele><time>2026-04-06T09:11:47.023Z</time></trkpt><trkpt lat="40.677067" lon="15.1774443"><ele>579.0</ele><time>2026-04-06T09:11:48.023Z</time></trkpt><trkpt lat="40.6771341" lon="15.1774349"><ele>578.5</ele><time>2026-04-06T09:11:49.023Z</time></trkpt><trkpt lat="40.6771973" lon="15.1774285"><ele>578.0</ele><time>2026-04-06T09:11:50.023Z</time></trkpt><trkpt lat="40.6773127" lon="15.1773997"><ele>577.5</ele><time>2026-04-06T09:11:52.023Z</time></trkpt><trkpt lat="40.6773745" lon="15.1773746"><ele>577.0</ele><time>2026-04-06T09:11:53.024Z</time></trkpt><trkpt lat="40.6774398" lon="15.1773418"><ele>576.5</ele><time>2026-04-06T09:11:54.023Z</time></trkpt><trkpt lat="40.6775047" lon="15.1773072"><ele>576.0</ele><time>2026-04-06T09:11:55.023Z</time></trkpt><trkpt lat="40.6776198" lon="15.1772467"><ele>578.8</ele><time>2026-04-06T09:11:57.023Z</time></trkpt><trkpt lat="40.6777288" lon="15.1772139"><ele>581.6</ele><time>2026-04-06T09:11:59.023Z</time></trkpt><trkpt lat="40.677794" lon="15.1771963"><ele>584.4</ele><time>2026-04-06T09:12:00.023Z</time></trkpt><trkpt lat="40.677857" lon="15.1771867"><ele>587.2</ele><time>2026-04-06T09:12:01.023Z</time></trkpt><trkpt lat="40.6780328" lon="15.1771882"><ele>590.0</ele><time>2026-04-06T09:12:04.023Z</time></trkpt><trkpt lat="40.6780956" lon="15.1772006"><ele>591.0</ele><time>2026-04-06T09:12:05.023Z</time></trkpt><trkpt lat="40.6782214" lon="15.1772176"><ele>592.0</ele><time>2026-04-06T09:12:07.023Z</time></trkpt><trkpt lat="40.6782947" lon="15.1772658"><ele>593.0</ele><time>2026-04-06T09:12:08.023Z</time></trkpt><trkpt lat="40.6783937" lon="15.177349"><ele>594.0</ele><time>2026-04-06T09:12:09.023Z</time></trkpt><trkpt lat="40.6784693" lon="15.1774229"><ele>595.0</ele><time>2026-04-06T09:12:10.023Z</time></trkpt><trkpt lat="40.678545" lon="15.1775145"><ele>592.2857142857143</ele><time>2026-04-06T09:12:11.023Z</time></trkpt><trkpt lat="40.6786062" lon="15.1775725"><ele>589.5714285714286</ele><time>2026-04-06T09:12:12.023Z</time></trkpt><trkpt lat="40.6786652" lon="15.1776221"><ele>586.8571428571429</ele><time>2026-04-06T09:12:13.024Z</time></trkpt><trkpt lat="40.6787234" lon="15.1776554"><ele>584.1428571428571</ele><time>2026-04-06T09:12:14.024Z</time></trkpt><trkpt lat="40.6787884" lon="15.1777026"><ele>581.4285714285714</ele><time>2026-04-06T09:12:15.023Z</time></trkpt><trkpt lat="40.6788721" lon="15.1777098"><ele>578.7142857142858</ele><time>2026-04-06T09:12:16.023Z</time></trkpt><trkpt lat="40.6789479" lon="15.1776778"><ele>576.0</ele><time>2026-04-06T09:12:17.023Z</time></trkpt><trkpt lat="40.6790262" lon="15.1777314"><ele>576.0</ele><time>2026-04-06T09:12:18.024Z</time></trkpt><trkpt lat="40.6790972" lon="15.1778018"><ele>576.0</ele><time>2026-04-06T09:12:19.023Z</time></trkpt><trkpt lat="40.6791562" lon="15.1778757"><ele>576.0</ele><time>2026-04-06T09:12:20.023Z</time></trkpt><trkpt lat="40.6792188" lon="15.1779256"><ele>576.0</ele><time>2026-04-06T09:12:21.023Z</time></trkpt><trkpt lat="40.6792706" lon="15.1779796"><ele>576.0</ele><time>2026-04-06T09:12:22.023Z</time></trkpt><trkpt lat="40.6793376" lon="15.1781269"><ele>576.0</ele><time>2026-04-06T09:12:24.023Z</time></trkpt><trkpt lat="40.6793555" lon="15.1782117"><ele>575.8333333333334</ele><time>2026-04-06T09:12:25.023Z</time></trkpt><trkpt lat="40.6793705" lon="15.1783112"><ele>575.6666666666666</ele><time>2026-04-06T09:12:26.023Z</time></trkpt><trkpt lat="40.6793779" lon="15.1784066"><ele>575.5</ele><time>2026-04-06T09:12:27.023Z</time></trkpt><trkpt lat="40.6794047" lon="15.178544"><ele>575.3333333333333</ele><time>2026-04-06T09:12:29.023Z</time></trkpt><trkpt lat="40.6794308" lon="15.1786369"><ele>575.1666666666666</ele><time>2026-04-06T09:12:31.023Z</time></trkpt><trkpt lat="40.6794592" lon="15.1787389"><ele>575.0</ele><time>2026-04-06T09:12:34.023Z</time></trkpt><trkpt lat="40.6794876" lon="15.1788391"><ele>577.6666666666666</ele><time>2026-04-06T09:12:36.023Z</time></trkpt><trkpt lat="40.6795135" lon="15.1789325"><ele>580.3333333333333</ele><time>2026-04-06T09:12:38.023Z</time></trkpt><trkpt lat="40.6795424" lon="15.1790356"><ele>583.0</ele><time>2026-04-06T09:12:40.023Z</time></trkpt><trkpt lat="40.6795904" lon="15.1791414"><ele>585.6666666666666</ele><time>2026-04-06T09:12:42.023Z</time></trkpt><trkpt lat="40.6796597" lon="15.1792586"><ele>588.3333333333334</ele><time>2026-04-06T09:12:44.023Z</time></trkpt><trkpt lat="40.679705" lon="15.1793221"><ele>591.0</ele><time>2026-04-06T09:12:45.023Z</time></trkpt><trkpt lat="40.6797575" lon="15.1793734"><ele>591.6666666666666</ele><time>2026-04-06T09:12:46.023Z</time></trkpt><trkpt lat="40.6798117" lon="15.1794253"><ele>592.3333333333334</ele><time>2026-04-06T09:12:47.024Z</time></trkpt><trkpt lat="40.6798657" lon="15.1794707"><ele>593.0</ele><time>2026-04-06T09:12:48.023Z</time></trkpt><trkpt lat="40.6799238" lon="15.1795133"><ele>593.6666666666667</ele><time>2026-04-06T09:12:49.023Z</time></trkpt><trkpt lat="40.6800331" lon="15.1795839"><ele>594.3333333333334</ele><time>2026-04-06T09:12:51.023Z</time></trkpt><trkpt lat="40.6801463" lon="15.1796253"><ele>595.0</ele><time>2026-04-06T09:12:53.023Z</time></trkpt><trkpt lat="40.6802644" lon="15.1796447"><ele>596.1666666666667</ele><time>2026-04-06T09:12:55.023Z</time></trkpt><trkpt lat="40.6803836" lon="15.1797051"><ele>597.3333333333334</ele><time>2026-04-06T09:12:57.023Z</time></trkpt><trkpt lat="40.6804525" lon="15.1797326"><ele>598.5</ele><time>2026-04-06T09:12:58.023Z</time></trkpt><trkpt lat="40.6805205" lon="15.1797644"><ele>599.6666666666666</ele><time>2026-04-06T09:12:59.024Z</time></trkpt><trkpt lat="40.6805882" lon="15.1797691"><ele>600.8333333333333</ele><time>2026-04-06T09:13:00.023Z</time></trkpt><trkpt lat="40.6806592" lon="15.1797845"><ele>602.0</ele><time>2026-04-06T09:13:01.024Z</time></trkpt><trkpt lat="40.6807335" lon="15.1797974"><ele>602.0</ele><time>2026-04-06T09:13:02.023Z</time></trkpt><trkpt lat="40.6808108" lon="15.179809"><ele>602.0</ele><time>2026-04-06T09:13:03.023Z</time></trkpt><trkpt lat="40.6808844" lon="15.1798261"><ele>602.0</ele><time>2026-04-06T09:13:04.023Z</time></trkpt><trkpt lat="40.6809584" lon="15.179844"><ele>602.0</ele><time>2026-04-06T09:13:05.023Z</time></trkpt><trkpt lat="40.6810913" lon="15.1798487"><ele>602.0</ele><time>2026-04-06T09:13:07.023Z</time></trkpt><trkpt lat="40.6811674" lon="15.1798536"><ele>602.0</ele><time>2026-04-06T09:13:08.023Z</time></trkpt><trkpt lat="40.6812458" lon="15.1798657"><ele>599.8571428571429</ele><time>2026-04-06T09:13:09.023Z</time></trkpt><trkpt lat="40.6813222" lon="15.1798957"><ele>597.7142857142858</ele><time>2026-04-06T09:13:10.023Z</time></trkpt><trkpt lat="40.6813939" lon="15.1799183"><ele>595.5714285714286</ele><time>2026-04-06T09:13:11.023Z</time></trkpt><trkpt lat="40.6814644" lon="15.1799451"><ele>593.4285714285714</ele><time>2026-04-06T09:13:12.023Z</time></trkpt><trkpt lat="40.6815256" lon="15.1799795"><ele>591.2857142857143</ele><time>2026-04-06T09:13:13.023Z</time></trkpt><trkpt lat="40.681592" lon="15.1800216"><ele>589.1428571428571</ele><time>2026-04-06T09:13:14.023Z</time></trkpt><trkpt lat="40.6816544" lon="15.1800731"><ele>587.0</ele><time>2026-04-06T09:13:15.023Z</time></trkpt><trkpt lat="40.6817242" lon="15.1801275"><ele>587.0</ele><time>2026-04-06T09:13:16.024Z</time></trkpt><trkpt lat="40.6817908" lon="15.1801912"><ele>587.0</ele><time>2026-04-06T09:13:17.023Z</time></trkpt><trkpt lat="40.6818541" lon="15.1802492"><ele>587.0</ele><time>2026-04-06T09:13:18.023Z</time></trkpt><trkpt lat="40.6819126" lon="15.1803093"><ele>587.0</ele><time>2026-04-06T09:13:19.023Z</time></trkpt><trkpt lat="40.6819849" lon="15.1803492"><ele>587.0</ele><time>2026-04-06T09:13:20.024Z</time></trkpt><trkpt lat="40.6820569" lon="15.1803928"><ele>587.0</ele><time>2026-04-06T09:13:21.023Z</time></trkpt><trkpt lat="40.6821189" lon="15.1804226"><ele>588.3333333333333</ele><time>2026-04-06T09:13:22.024Z</time></trkpt><trkpt lat="40.6821954" lon="15.1804321"><ele>589.6666666666666</ele><time>2026-04-06T09:13:23.024Z</time></trkpt><trkpt lat="40.6822682" lon="15.1804334"><ele>591.0</ele><time>2026-04-06T09:13:24.023Z</time></trkpt><trkpt lat="40.682339" lon="15.1804365"><ele>592.3333333333334</ele><time>2026-04-06T09:13:25.023Z</time></trkpt><trkpt lat="40.6824086" lon="15.1804293"><ele>593.6666666666667</ele><time>2026-04-06T09:13:26.023Z</time></trkpt><trkpt lat="40.6824795" lon="15.1804234"><ele>595.0</ele><time>2026-04-06T09:13:27.023Z</time></trkpt><trkpt lat="40.6827021" lon="15.1804459"><ele>592.6666666666667</ele><time>2026-04-06T09:13:31.023Z</time></trkpt><trkpt lat="40.6827913" lon="15.1805353"><ele>590.3333333333334</ele><time>2026-04-06T09:13:33.023Z</time></trkpt><trkpt lat="40.682847" lon="15.1805953"><ele>588.0</ele><time>2026-04-06T09:13:34.023Z</time></trkpt><trkpt lat="40.6829006" lon="15.180673"><ele>585.6666666666666</ele><time>2026-04-06T09:13:35.023Z</time></trkpt><trkpt lat="40.6829575" lon="15.1807565"><ele>583.3333333333333</ele><time>2026-04-06T09:13:36.023Z</time></trkpt><trkpt lat="40.6830044" lon="15.1808462"><ele>581.0</ele><time>2026-04-06T09:13:37.023Z</time></trkpt><trkpt lat="40.6830452" lon="15.1809274"><ele>581.0</ele><time>2026-04-06T09:13:38.023Z</time></trkpt><trkpt lat="40.6830905" lon="15.1810016"><ele>581.0</ele><time>2026-04-06T09:13:39.023Z</time></trkpt><trkpt lat="40.6831366" lon="15.1810658"><ele>581.0</ele><time>2026-04-06T09:13:40.023Z</time></trkpt><trkpt lat="40.6832318" lon="15.181177"><ele>581.0</ele><time>2026-04-06T09:13:42.023Z</time></trkpt><trkpt lat="40.6833174" lon="15.181303"><ele>581.0</ele><time>2026-04-06T09:13:44.023Z</time></trkpt><trkpt lat="40.6834305" lon="15.1813832"><ele>581.0</ele><time>2026-04-06T09:13:46.023Z</time></trkpt><trkpt lat="40.6835048" lon="15.1814001"><ele>581.0</ele><time>2026-04-06T09:13:47.023Z</time></trkpt><trkpt lat="40.6835846" lon="15.1814285"><ele>581.0</ele><time>2026-04-06T09:13:48.023Z</time></trkpt><trkpt lat="40.6836625" lon="15.1814438"><ele>581.0</ele><time>2026-04-06T09:13:49.023Z</time></trkpt><trkpt lat="40.6837419" lon="15.1814635"><ele>581.0</ele><time>2026-04-06T09:13:50.024Z</time></trkpt><trkpt lat="40.6838146" lon="15.1814681"><ele>581.0</ele><time>2026-04-06T09:13:51.023Z</time></trkpt><trkpt lat="40.68388" lon="15.1814702"><ele>580.8</ele><time>2026-04-06T09:13:52.023Z</time></trkpt><trkpt lat="40.6839926" lon="15.1814749"><ele>580.6</ele><time>2026-04-06T09:13:54.023Z</time></trkpt><trkpt lat="40.6840908" lon="15.1814496"><ele>580.4</ele><time>2026-04-06T09:13:56.023Z</time></trkpt><trkpt lat="40.6841718" lon="15.1814179"><ele>580.2</ele><time>2026-04-06T09:13:58.023Z</time></trkpt><trkpt lat="40.6842683" lon="15.1814014"><ele>580.0</ele><time>2026-04-06T09:14:00.023Z</time></trkpt><trkpt lat="40.6843536" lon="15.1814606"><ele>578.0</ele><time>2026-04-06T09:14:02.023Z</time></trkpt><trkpt lat="40.6844178" lon="15.1815683"><ele>576.0</ele><time>2026-04-06T09:14:04.023Z</time></trkpt><trkpt lat="40.6844323" lon="15.1816957"><ele>574.0</ele><time>2026-04-06T09:14:06.023Z</time></trkpt><trkpt lat="40.6844487" lon="15.1818422"><ele>572.0</ele><time>2026-04-06T09:14:08.024Z</time></trkpt><trkpt lat="40.6845142" lon="15.1819672"><ele>570.0</ele><time>2026-04-06T09:14:10.023Z</time></trkpt><trkpt lat="40.6846131" lon="15.1820276"><ele>570.0</ele><time>2026-04-06T09:14:12.023Z</time></trkpt><trkpt lat="40.6846761" lon="15.1820482"><ele>570.0</ele><time>2026-04-06T09:14:13.024Z</time></trkpt><trkpt lat="40.684735" lon="15.1820809"><ele>570.0</ele><time>2026-04-06T09:14:14.023Z</time></trkpt><trkpt lat="40.6848482" lon="15.1821415"><ele>570.0</ele><time>2026-04-06T09:14:16.023Z</time></trkpt><trkpt lat="40.6849107" lon="15.182174"><ele>570.0</ele><time>2026-04-06T09:14:17.023Z</time></trkpt><trkpt lat="40.6849778" lon="15.1822125"><ele>570.0</ele><time>2026-04-06T09:14:18.023Z</time></trkpt><trkpt lat="40.6850734" lon="15.1822625"><ele>570.0</ele><time>2026-04-06T09:14:20.023Z</time></trkpt><trkpt lat="40.68516" lon="15.1823383"><ele>570.0</ele><time>2026-04-06T09:15:15.023Z</time></trkpt><trkpt lat="40.6852173" lon="15.1823731"><ele>570.0</ele><time>2026-04-06T09:15:47.031Z</time></trkpt><trkpt lat="40.685289" lon="15.1823675"><ele>570.0</ele><time>2026-04-06T09:16:36.031Z</time></trkpt><trkpt lat="40.685228" lon="15.1823881"><ele>570.0</ele><time>2026-04-06T09:17:31.031Z</time></trkpt><trkpt lat="40.6851616" lon="15.1823522"><ele>570.0</ele><time>2026-04-06T09:17:37.008Z</time></trkpt><trkpt lat="40.6852251" lon="15.1823783"><ele>570.0</ele><time>2026-04-06T09:18:04.03Z</time></trkpt><trkpt lat="40.6852924" lon="15.1824163"><ele>569.3333333333334</ele><time>2026-04-06T09:18:09.043Z</time></trkpt><trkpt lat="40.6853749" lon="15.1823714"><ele>568.6666666666666</ele><time>2026-04-06T09:18:11.03Z</time></trkpt><trkpt lat="40.6854189" lon="15.1824382"><ele>568.0</ele><time>2026-04-06T09:18:17.03Z</time></trkpt><trkpt lat="40.6854933" lon="15.1824682"><ele>567.3333333333333</ele><time>2026-04-06T09:18:19.031Z</time></trkpt><trkpt lat="40.6856042" lon="15.1824824"><ele>566.6666666666666</ele><time>2026-04-06T09:18:21.03Z</time></trkpt><trkpt lat="40.6856747" lon="15.1824925"><ele>566.0</ele><time>2026-04-06T09:18:22.03Z</time></trkpt><trkpt lat="40.6857398" lon="15.1825275"><ele>566.0</ele><time>2026-04-06T09:18:23.03Z</time></trkpt><trkpt lat="40.6857942" lon="15.1825842"><ele>566.0</ele><time>2026-04-06T09:18:24.031Z</time></trkpt><trkpt lat="40.6858605" lon="15.1826467"><ele>566.0</ele><time>2026-04-06T09:18:25.03Z</time></trkpt><trkpt lat="40.6859245" lon="15.1827098"><ele>566.0</ele><time>2026-04-06T09:18:26.03Z</time></trkpt><trkpt lat="40.6859806" lon="15.1827803"><ele>566.0</ele><time>2026-04-06T09:18:27.03Z</time></trkpt><trkpt lat="40.6860486" lon="15.1828445"><ele>566.0</ele><time>2026-04-06T09:18:28.03Z</time></trkpt><trkpt lat="40.6861122" lon="15.1829154"><ele>568.4285714285714</ele><time>2026-04-06T09:18:29.03Z</time></trkpt><trkpt lat="40.6861665" lon="15.182987"><ele>570.8571428571429</ele><time>2026-04-06T09:18:30.03Z</time></trkpt><trkpt lat="40.686228" lon="15.1830536"><ele>573.2857142857143</ele><time>2026-04-06T09:18:31.031Z</time></trkpt><trkpt lat="40.68628" lon="15.1831274"><ele>575.7142857142858</ele><time>2026-04-06T09:18:32.03Z</time></trkpt><trkpt lat="40.6863312" lon="15.1831887"><ele>578.1428571428571</ele><time>2026-04-06T09:18:33.03Z</time></trkpt><trkpt lat="40.6863742" lon="15.1832543"><ele>580.5714285714287</ele><time>2026-04-06T09:18:34.031Z</time></trkpt><trkpt lat="40.6864222" lon="15.1833182"><ele>583.0</ele><time>2026-04-06T09:18:35.03Z</time></trkpt><trkpt lat="40.686514" lon="15.1834229"><ele>583.0</ele><time>2026-04-06T09:18:37.03Z</time></trkpt><trkpt lat="40.686574" lon="15.1834631"><ele>583.0</ele><time>2026-04-06T09:18:38.03Z</time></trkpt><trkpt lat="40.6866343" lon="15.1835063"><ele>583.0</ele><time>2026-04-06T09:18:39.031Z</time></trkpt><trkpt lat="40.6866908" lon="15.1835547"><ele>583.0</ele><time>2026-04-06T09:18:40.03Z</time></trkpt><trkpt lat="40.686749" lon="15.1835949"><ele>583.0</ele><time>2026-04-06T09:18:41.031Z</time></trkpt><trkpt lat="40.6867958" lon="15.1836511"><ele>583.0</ele><time>2026-04-06T09:18:42.03Z</time></trkpt><trkpt lat="40.6868972" lon="15.1837381"><ele>587.4</ele><time>2026-04-06T09:18:44.03Z</time></trkpt><trkpt lat="40.6870054" lon="15.183828"><ele>591.8</ele><time>2026-04-06T09:18:46.03Z</time></trkpt><trkpt lat="40.6870568" lon="15.1838869"><ele>596.2</ele><time>2026-04-06T09:18:47.03Z</time></trkpt><trkpt lat="40.6871003" lon="15.1839479"><ele>600.6</ele><time>2026-04-06T09:18:48.031Z</time></trkpt><trkpt lat="40.6871758" lon="15.1840546"><ele>605.0</ele><time>2026-04-06T09:18:50.03Z</time></trkpt><trkpt lat="40.6872539" lon="15.1841482"><ele>605.0</ele><time>2026-04-06T09:18:52.03Z</time></trkpt><trkpt lat="40.6873382" lon="15.1841947"><ele>605.0</ele><time>2026-04-06T09:18:54.03Z</time></trkpt><trkpt lat="40.6874268" lon="15.1842085"><ele>605.0</ele><time>2026-04-06T09:18:56.03Z</time></trkpt><trkpt lat="40.6876537" lon="15.1842349"><ele>605.0</ele><time>2026-04-06T09:19:03.031Z</time></trkpt><trkpt lat="40.6877326" lon="15.184283"><ele>608.6</ele><time>2026-04-06T09:19:05.031Z</time></trkpt><trkpt lat="40.6878465" lon="15.1843435"><ele>612.2</ele><time>2026-04-06T09:19:07.03Z</time></trkpt><trkpt lat="40.6879082" lon="15.1843741"><ele>615.8</ele><time>2026-04-06T09:19:08.03Z</time></trkpt><trkpt lat="40.6880096" lon="15.1844105"><ele>619.4</ele><time>2026-04-06T09:19:10.03Z</time></trkpt><trkpt lat="40.6881346" lon="15.1844528"><ele>623.0</ele><time>2026-04-06T09:19:12.03Z</time></trkpt><trkpt lat="40.6882082" lon="15.1844877"><ele>623.0</ele><time>2026-04-06T09:19:13.03Z</time></trkpt><trkpt lat="40.6882891" lon="15.1845204"><ele>623.0</ele><time>2026-04-06T09:19:14.03Z</time></trkpt><trkpt lat="40.6883703" lon="15.1845546"><ele>623.0</ele><time>2026-04-06T09:19:15.03Z</time></trkpt><trkpt lat="40.6884527" lon="15.1845826"><ele>623.0</ele><time>2026-04-06T09:19:16.031Z</time></trkpt><trkpt lat="40.6885443" lon="15.1845954"><ele>623.0</ele><time>2026-04-06T09:19:17.03Z</time></trkpt><trkpt lat="40.6887319" lon="15.1846083"><ele>624.0</ele><time>2026-04-06T09:19:19.03Z</time></trkpt><trkpt lat="40.6888081" lon="15.1846243"><ele>625.0</ele><time>2026-04-06T09:19:20.03Z</time></trkpt><trkpt lat="40.6888859" lon="15.1846441"><ele>626.0</ele><time>2026-04-06T09:19:21.03Z</time></trkpt><trkpt lat="40.6889699" lon="15.1846586"><ele>627.0</ele><time>2026-04-06T09:19:22.03Z</time></trkpt><trkpt lat="40.6890468" lon="15.1846561"><ele>628.0</ele><time>2026-04-06T09:19:23.03Z</time></trkpt><trkpt lat="40.689124" lon="15.1846421"><ele>629.0</ele><time>2026-04-06T09:19:24.031Z</time></trkpt><trkpt lat="40.6892035" lon="15.1846188"><ele>629.0</ele><time>2026-04-06T09:19:25.03Z</time></trkpt><trkpt lat="40.6892767" lon="15.1846004"><ele>629.0</ele><time>2026-04-06T09:19:26.03Z</time></trkpt><trkpt lat="40.6893747" lon="15.1845881"><ele>629.0</ele><time>2026-04-06T09:19:28.03Z</time></trkpt><trkpt lat="40.6894699" lon="15.1845835"><ele>629.0</ele><time>2026-04-06T09:19:30.031Z</time></trkpt><trkpt lat="40.6896709" lon="15.1845886"><ele>627.0</ele><time>2026-04-06T09:19:43.03Z</time></trkpt><trkpt lat="40.68977" lon="15.1845898"><ele>625.0</ele><time>2026-04-06T09:19:48.03Z</time></trkpt><trkpt lat="40.6898603" lon="15.1845942"><ele>623.0</ele><time>2026-04-06T09:19:52.031Z</time></trkpt><trkpt lat="40.6899024" lon="15.1843325"><ele>621.0</ele><time>2026-04-06T09:19:59.031Z</time></trkpt><trkpt lat="40.6898928" lon="15.1842335"><ele>621.0</ele><time>2026-04-06T09:20:01.03Z</time></trkpt><trkpt lat="40.6898562" lon="15.1840877"><ele>621.0</ele><time>2026-04-06T09:20:03.03Z</time></trkpt><trkpt lat="40.6898425" lon="15.1840059"><ele>621.0</ele><time>2026-04-06T09:20:04.03Z</time></trkpt><trkpt lat="40.68983" lon="15.1839209"><ele>621.0</ele><time>2026-04-06T09:20:05.03Z</time></trkpt><trkpt lat="40.6898186" lon="15.1838245"><ele>621.0</ele><time>2026-04-06T09:20:06.03Z</time></trkpt><trkpt lat="40.6898014" lon="15.1837317"><ele>621.0</ele><time>2026-04-06T09:20:07.03Z</time></trkpt><trkpt lat="40.6897785" lon="15.1836248"><ele>622.5</ele><time>2026-04-06T09:20:08.03Z</time></trkpt><trkpt lat="40.6897625" lon="15.183518"><ele>624.0</ele><time>2026-04-06T09:20:09.03Z</time></trkpt><trkpt lat="40.689752" lon="15.1834062"><ele>625.5</ele><time>2026-04-06T09:20:10.031Z</time></trkpt><trkpt lat="40.6897489" lon="15.1832902"><ele>627.0</ele><time>2026-04-06T09:20:11.03Z</time></trkpt><trkpt lat="40.6897496" lon="15.1831773"><ele>628.5</ele><time>2026-04-06T09:20:12.03Z</time></trkpt><trkpt lat="40.6897615" lon="15.1830693"><ele>630.0</ele><time>2026-04-06T09:20:13.03Z</time></trkpt><trkpt lat="40.6897737" lon="15.1829648"><ele>632.0</ele><time>2026-04-06T09:20:14.03Z</time></trkpt><trkpt lat="40.6897753" lon="15.1828639"><ele>634.0</ele><time>2026-04-06T09:20:15.03Z</time></trkpt><trkpt lat="40.6897906" lon="15.1827638"><ele>636.0</ele><time>2026-04-06T09:20:16.03Z</time></trkpt><trkpt lat="40.689806" lon="15.1826438"><ele>638.0</ele><time>2026-04-06T09:20:17.03Z</time></trkpt><trkpt lat="40.6898285" lon="15.1825253"><ele>640.0</ele><time>2026-04-06T09:20:18.03Z</time></trkpt><trkpt lat="40.6898603" lon="15.1824065"><ele>642.0</ele><time>2026-04-06T09:20:19.03Z</time></trkpt><trkpt lat="40.6898962" lon="15.182283"><ele>643.6666666666666</ele><time>2026-04-06T09:20:20.03Z</time></trkpt><trkpt lat="40.6899303" lon="15.1821498"><ele>645.3333333333334</ele><time>2026-04-06T09:20:21.031Z</time></trkpt><trkpt lat="40.6899503" lon="15.1820366"><ele>647.0</ele><time>2026-04-06T09:20:22.03Z</time></trkpt><trkpt lat="40.6899704" lon="15.181925"><ele>648.6666666666667</ele><time>2026-04-06T09:20:23.03Z</time></trkpt><trkpt lat="40.6899851" lon="15.1818173"><ele>650.3333333333334</ele><time>2026-04-06T09:20:24.03Z</time></trkpt><trkpt lat="40.689993" lon="15.1817133"><ele>652.0</ele><time>2026-04-06T09:20:25.03Z</time></trkpt><trkpt lat="40.6899995" lon="15.1816212"><ele>652.0</ele><time>2026-04-06T09:20:26.031Z</time></trkpt><trkpt lat="40.6900065" lon="15.1815284"><ele>652.0</ele><time>2026-04-06T09:20:27.031Z</time></trkpt><trkpt lat="40.6900299" lon="15.1813751"><ele>652.0</ele><time>2026-04-06T09:20:29.03Z</time></trkpt><trkpt lat="40.690065" lon="15.1812428"><ele>652.0</ele><time>2026-04-06T09:20:31.03Z</time></trkpt><trkpt lat="40.6901201" lon="15.1811148"><ele>652.0</ele><time>2026-04-06T09:20:33.03Z</time></trkpt><trkpt lat="40.690165" lon="15.1809685"><ele>653.2</ele><time>2026-04-06T09:20:35.03Z</time></trkpt><trkpt lat="40.6901995" lon="15.1807998"><ele>654.4000000000001</ele><time>2026-04-06T09:20:37.03Z</time></trkpt><trkpt lat="40.6902152" lon="15.1807006"><ele>655.5999999999999</ele><time>2026-04-06T09:20:38.03Z</time></trkpt><trkpt lat="40.690224" lon="15.1805911"><ele>656.8</ele><time>2026-04-06T09:20:39.03Z</time></trkpt><trkpt lat="40.6902271" lon="15.1804782"><ele>658.0</ele><time>2026-04-06T09:20:40.03Z</time></trkpt><trkpt lat="40.6902232" lon="15.1803775"><ele>658.6666666666667</ele><time>2026-04-06T09:20:41.031Z</time></trkpt><trkpt lat="40.6902178" lon="15.1802774"><ele>659.3333333333334</ele><time>2026-04-06T09:20:42.03Z</time></trkpt><trkpt lat="40.690213" lon="15.1801821"><ele>660.0</ele><time>2026-04-06T09:20:43.03Z</time></trkpt><trkpt lat="40.6902104" lon="15.1800989"><ele>660.6666666666666</ele><time>2026-04-06T09:20:44.031Z</time></trkpt><trkpt lat="40.6902279" lon="15.1799774"><ele>661.3333333333333</ele><time>2026-04-06T09:20:46.03Z</time></trkpt><trkpt lat="40.690238" lon="15.1798686"><ele>662.0</ele><time>2026-04-06T09:20:48.03Z</time></trkpt><trkpt lat="40.6902617" lon="15.1797338"><ele>663.2</ele><time>2026-04-06T09:20:50.03Z</time></trkpt><trkpt lat="40.6902883" lon="15.179592"><ele>664.4000000000001</ele><time>2026-04-06T09:20:52.03Z</time></trkpt><trkpt lat="40.690327" lon="15.1794228"><ele>665.5999999999999</ele><time>2026-04-06T09:20:54.03Z</time></trkpt><trkpt lat="40.6903358" lon="15.1793239"><ele>666.8</ele><time>2026-04-06T09:20:55.031Z</time></trkpt><trkpt lat="40.6903561" lon="15.1792399"><ele>668.0</ele><time>2026-04-06T09:20:56.031Z</time></trkpt><trkpt lat="40.6903708" lon="15.1791501"><ele>668.0</ele><time>2026-04-06T09:20:57.03Z</time></trkpt><trkpt lat="40.6903815" lon="15.179062"><ele>668.0</ele><time>2026-04-06T09:20:58.03Z</time></trkpt><trkpt lat="40.6903951" lon="15.1789739"><ele>668.0</ele><time>2026-04-06T09:20:59.03Z</time></trkpt><trkpt lat="40.690405" lon="15.1788416"><ele>668.0</ele><time>2026-04-06T09:21:01.031Z</time></trkpt><trkpt lat="40.6904108" lon="15.1787408"><ele>668.0</ele><time>2026-04-06T09:21:03.03Z</time></trkpt><trkpt lat="40.6904088" lon="15.1786029"><ele>668.0</ele><time>2026-04-06T09:21:05.03Z</time></trkpt><trkpt lat="40.6904158" lon="15.1784725"><ele>671.5</ele><time>2026-04-06T09:21:07.03Z</time></trkpt><trkpt lat="40.6904302" lon="15.178346"><ele>675.0</ele><time>2026-04-06T09:21:09.03Z</time></trkpt><trkpt lat="40.6904447" lon="15.1782289"><ele>678.5</ele><time>2026-04-06T09:21:11.03Z</time></trkpt><trkpt lat="40.6904838" lon="15.1781073"><ele>682.0</ele><time>2026-04-06T09:21:14.03Z</time></trkpt><trkpt lat="40.6905102" lon="15.1780243"><ele>685.5</ele><time>2026-04-06T09:21:16.03Z</time></trkpt><trkpt lat="40.6905428" lon="15.1779486"><ele>689.0</ele><time>2026-04-06T09:21:18.03Z</time></trkpt><trkpt lat="40.6905827" lon="15.1778446"><ele>691.5</ele><time>2026-04-06T09:21:21.03Z</time></trkpt><trkpt lat="40.6906281" lon="15.1777482"><ele>694.0</ele><time>2026-04-06T09:21:24.03Z</time></trkpt><trkpt lat="40.6906644" lon="15.1776649"><ele>696.5</ele><time>2026-04-06T09:21:27.03Z</time></trkpt><trkpt lat="40.6906765" lon="15.1775721"><ele>699.0</ele><time>2026-04-06T09:21:29.03Z</time></trkpt><trkpt lat="40.6907062" lon="15.1774493"><ele>701.5</ele><time>2026-04-06T09:21:31.03Z</time></trkpt><trkpt lat="40.6907333" lon="15.1773258"><ele>704.0</ele><time>2026-04-06T09:21:33.031Z</time></trkpt><trkpt lat="40.6907691" lon="15.1772532"><ele>704.0</ele><time>2026-04-06T09:21:36.03Z</time></trkpt><trkpt lat="40.6908346" lon="15.1772052"><ele>704.0</ele><time>2026-04-06T09:21:39.03Z</time></trkpt><trkpt lat="40.6909" lon="15.1772183"><ele>704.0</ele><time>2026-04-06T09:21:41.03Z</time></trkpt><trkpt lat="40.6909532" lon="15.1773338"><ele>704.0</ele><time>2026-04-06T09:21:43.031Z</time></trkpt><trkpt lat="40.6909804" lon="15.1774105"><ele>704.0</ele><time>2026-04-06T09:21:44.03Z</time></trkpt><trkpt lat="40.6910042" lon="15.1774914"><ele>704.0</ele><time>2026-04-06T09:21:45.031Z</time></trkpt><trkpt lat="40.6910241" lon="15.1775731"><ele>704.0</ele><time>2026-04-06T09:21:46.03Z</time></trkpt><trkpt lat="40.6910643" lon="15.1776473"><ele>708.0</ele><time>2026-04-06T09:21:47.03Z</time></trkpt><trkpt lat="40.6911124" lon="15.1777309"><ele>712.0</ele><time>2026-04-06T09:21:48.03Z</time></trkpt><trkpt lat="40.6911795" lon="15.1777933"><ele>716.0</ele><time>2026-04-06T09:21:49.031Z</time></trkpt><trkpt lat="40.6912598" lon="15.1778255"><ele>720.0</ele><time>2026-04-06T09:21:50.03Z</time></trkpt><trkpt lat="40.6913324" lon="15.177836"><ele>724.0</ele><time>2026-04-06T09:21:51.03Z</time></trkpt><trkpt lat="40.6914054" lon="15.177825"><ele>728.0</ele><time>2026-04-06T09:21:52.03Z</time></trkpt><trkpt lat="40.6914903" lon="15.1777499"><ele>728.0</ele><time>2026-04-06T09:21:54.03Z</time></trkpt><trkpt lat="40.6915088" lon="15.1776536"><ele>728.0</ele><time>2026-04-06T09:21:56.03Z</time></trkpt><trkpt lat="40.6915036" lon="15.1775596"><ele>728.0</ele><time>2026-04-06T09:21:59.03Z</time></trkpt><trkpt lat="40.6914825" lon="15.1774234"><ele>728.0</ele><time>2026-04-06T09:22:02.03Z</time></trkpt><trkpt lat="40.6914775" lon="15.1772893"><ele>728.0</ele><time>2026-04-06T09:22:04.031Z</time></trkpt><trkpt lat="40.6915085" lon="15.1771464"><ele>730.1666666666666</ele><time>2026-04-06T09:22:06.03Z</time></trkpt><trkpt lat="40.6915614" lon="15.1770349"><ele>732.3333333333333</ele><time>2026-04-06T09:22:08.03Z</time></trkpt><trkpt lat="40.6916297" lon="15.1769428"><ele>734.5</ele><time>2026-04-06T09:22:10.031Z</time></trkpt><trkpt lat="40.6916899" lon="15.1768558"><ele>736.6666666666666</ele><time>2026-04-06T09:22:12.03Z</time></trkpt><trkpt lat="40.6917506" lon="15.1767834"><ele>738.8333333333334</ele><time>2026-04-06T09:22:14.03Z</time></trkpt><trkpt lat="40.6918094" lon="15.1767345"><ele>741.0</ele><time>2026-04-06T09:22:16.03Z</time></trkpt><trkpt lat="40.691904" lon="15.1766787"><ele>746.5</ele><time>2026-04-06T09:22:18.03Z</time></trkpt><trkpt lat="40.6920081" lon="15.1766226"><ele>752.0</ele><time>2026-04-06T09:22:20.03Z</time></trkpt><trkpt lat="40.6921206" lon="15.1765988"><ele>757.5</ele><time>2026-04-06T09:22:22.03Z</time></trkpt><trkpt lat="40.6922102" lon="15.1766285"><ele>763.0</ele><time>2026-04-06T09:22:24.039Z</time></trkpt><trkpt lat="40.6923408" lon="15.1766667"><ele>763.0</ele><time>2026-04-06T09:22:26.039Z</time></trkpt><trkpt lat="40.6924121" lon="15.1766882"><ele>763.0</ele><time>2026-04-06T09:22:27.039Z</time></trkpt><trkpt lat="40.6924898" lon="15.1767174"><ele>763.0</ele><time>2026-04-06T09:22:28.039Z</time></trkpt><trkpt lat="40.6925547" lon="15.17676"><ele>763.0</ele><time>2026-04-06T09:22:29.04Z</time></trkpt><trkpt lat="40.6926009" lon="15.1768307"><ele>763.0</ele><time>2026-04-06T09:22:30.039Z</time></trkpt><trkpt lat="40.6926389" lon="15.1769158"><ele>763.0</ele><time>2026-04-06T09:22:31.04Z</time></trkpt><trkpt lat="40.6926597" lon="15.1770169"><ele>763.0</ele><time>2026-04-06T09:22:32.039Z</time></trkpt><trkpt lat="40.6926795" lon="15.1771137"><ele>763.0</ele><time>2026-04-06T09:22:33.039Z</time></trkpt><trkpt lat="40.6926871" lon="15.1772128"><ele>763.0</ele><time>2026-04-06T09:22:34.039Z</time></trkpt><trkpt lat="40.6926954" lon="15.1773049"><ele>763.0</ele><time>2026-04-06T09:22:35.039Z</time></trkpt><trkpt lat="40.6927213" lon="15.177405"><ele>763.0</ele><time>2026-04-06T09:22:36.039Z</time></trkpt><trkpt lat="40.6927481" lon="15.1775154"><ele>763.0</ele><time>2026-04-06T09:22:37.04Z</time></trkpt><trkpt lat="40.6927947" lon="15.1776159"><ele>765.3333333333334</ele><time>2026-04-06T09:22:38.039Z</time></trkpt><trkpt lat="40.6928524" lon="15.1777005"><ele>767.6666666666667</ele><time>2026-04-06T09:22:39.039Z</time></trkpt><trkpt lat="40.69293" lon="15.1777556"><ele>770.0</ele><time>2026-04-06T09:22:40.04Z</time></trkpt><trkpt lat="40.6930059" lon="15.1778123"><ele>772.3333333333334</ele><time>2026-04-06T09:22:41.039Z</time></trkpt><trkpt lat="40.6930886" lon="15.1778535"><ele>774.6666666666666</ele><time>2026-04-06T09:22:42.039Z</time></trkpt><trkpt lat="40.6931712" lon="15.1778898"><ele>777.0</ele><time>2026-04-06T09:22:43.039Z</time></trkpt><trkpt lat="40.6932637" lon="15.1779088"><ele>777.0</ele><time>2026-04-06T09:22:44.039Z</time></trkpt><trkpt lat="40.6933507" lon="15.1779207"><ele>777.0</ele><time>2026-04-06T09:22:45.04Z</time></trkpt><trkpt lat="40.6934337" lon="15.1779317"><ele>777.0</ele><time>2026-04-06T09:22:46.039Z</time></trkpt><trkpt lat="40.6935203" lon="15.1779317"><ele>777.0</ele><time>2026-04-06T09:22:47.039Z</time></trkpt><trkpt lat="40.6936048" lon="15.1779362"><ele>777.0</ele><time>2026-04-06T09:22:48.039Z</time></trkpt><trkpt lat="40.693691" lon="15.1779365"><ele>777.0</ele><time>2026-04-06T09:22:49.039Z</time></trkpt><trkpt lat="40.6937675" lon="15.1779366"><ele>780.3333333333334</ele><time>2026-04-06T09:22:50.039Z</time></trkpt><trkpt lat="40.6938493" lon="15.1779241"><ele>783.6666666666667</ele><time>2026-04-06T09:22:51.039Z</time></trkpt><trkpt lat="40.6939372" lon="15.1779007"><ele>787.0</ele><time>2026-04-06T09:22:52.04Z</time></trkpt><trkpt lat="40.6940222" lon="15.1778776"><ele>790.3333333333334</ele><time>2026-04-06T09:22:53.039Z</time></trkpt><trkpt lat="40.6940959" lon="15.177826"><ele>793.6666666666667</ele><time>2026-04-06T09:22:54.039Z</time></trkpt><trkpt lat="40.6941666" lon="15.1777706"><ele>797.0</ele><time>2026-04-06T09:22:55.039Z</time></trkpt><trkpt lat="40.6942373" lon="15.1777087"><ele>797.0000000000001</ele><time>2026-04-06T09:22:56.039Z</time></trkpt><trkpt lat="40.694313" lon="15.1776588"><ele>797.0</ele><time>2026-04-06T09:22:57.039Z</time></trkpt><trkpt lat="40.6943872" lon="15.1776176"><ele>797.0</ele><time>2026-04-06T09:22:58.039Z</time></trkpt><trkpt lat="40.6944696" lon="15.1776007"><ele>797.0</ele><time>2026-04-06T09:22:59.039Z</time></trkpt><trkpt lat="40.6945522" lon="15.1775829"><ele>797.0000000000001</ele><time>2026-04-06T09:23:00.039Z</time></trkpt><trkpt lat="40.6946304" lon="15.1775598"><ele>797.0</ele><time>2026-04-06T09:23:01.039Z</time></trkpt><trkpt lat="40.6947189" lon="15.1775318"><ele>800.1666666666667</ele><time>2026-04-06T09:23:02.039Z</time></trkpt><trkpt lat="40.6947853" lon="15.1775016"><ele>803.3333333333334</ele><time>2026-04-06T09:23:03.039Z</time></trkpt><trkpt lat="40.694858" lon="15.1774994"><ele>806.5</ele><time>2026-04-06T09:23:04.039Z</time></trkpt><trkpt lat="40.6949353" lon="15.1775136"><ele>809.6666666666667</ele><time>2026-04-06T09:23:05.039Z</time></trkpt><trkpt lat="40.6950187" lon="15.1775448"><ele>812.8333333333334</ele><time>2026-04-06T09:23:06.039Z</time></trkpt><trkpt lat="40.6950904" lon="15.1775831"><ele>816.0</ele><time>2026-04-06T09:23:07.039Z</time></trkpt><trkpt lat="40.695164" lon="15.177604"><ele>816.0</ele><time>2026-04-06T09:23:08.039Z</time></trkpt><trkpt lat="40.6952398" lon="15.1776314"><ele>816.0</ele><time>2026-04-06T09:23:09.039Z</time></trkpt><trkpt lat="40.6953171" lon="15.1776515"><ele>816.0</ele><time>2026-04-06T09:23:10.039Z</time></trkpt><trkpt lat="40.6953839" lon="15.1776573"><ele>816.0</ele><time>2026-04-06T09:23:11.039Z</time></trkpt><trkpt lat="40.695453" lon="15.177675"><ele>816.0</ele><time>2026-04-06T09:23:12.039Z</time></trkpt><trkpt lat="40.6955274" lon="15.1776901"><ele>816.0</ele><time>2026-04-06T09:23:13.039Z</time></trkpt><trkpt lat="40.6956035" lon="15.1777087"><ele>816.0</ele><time>2026-04-06T09:23:14.039Z</time></trkpt><trkpt lat="40.6956726" lon="15.1777162"><ele>818.4285714285714</ele><time>2026-04-06T09:23:15.039Z</time></trkpt><trkpt lat="40.6957455" lon="15.1777218"><ele>820.8571428571429</ele><time>2026-04-06T09:23:16.04Z</time></trkpt><trkpt lat="40.6958169" lon="15.1777224"><ele>823.2857142857142</ele><time>2026-04-06T09:23:17.039Z</time></trkpt><trkpt lat="40.6958837" lon="15.17772"><ele>825.7142857142858</ele><time>2026-04-06T09:23:18.039Z</time></trkpt><trkpt lat="40.6959509" lon="15.1777106"><ele>828.1428571428571</ele><time>2026-04-06T09:23:19.039Z</time></trkpt><trkpt lat="40.6960179" lon="15.1777128"><ele>830.5714285714286</ele><time>2026-04-06T09:23:20.039Z</time></trkpt><trkpt lat="40.6960898" lon="15.1776959"><ele>833.0</ele><time>2026-04-06T09:23:21.039Z</time></trkpt><trkpt lat="40.6961622" lon="15.1776851"><ele>833.0000000000001</ele><time>2026-04-06T09:23:22.039Z</time></trkpt><trkpt lat="40.696241" lon="15.1776674"><ele>833.0</ele><time>2026-04-06T09:23:23.039Z</time></trkpt><trkpt lat="40.6963162" lon="15.1776422"><ele>833.0</ele><time>2026-04-06T09:23:24.04Z</time></trkpt><trkpt lat="40.6963804" lon="15.1776291"><ele>833.0</ele><time>2026-04-06T09:23:25.039Z</time></trkpt><trkpt lat="40.6965067" lon="15.1776082"><ele>833.0000000000001</ele><time>2026-04-06T09:23:27.039Z</time></trkpt><trkpt lat="40.6965692" lon="15.1775624"><ele>833.0</ele><time>2026-04-06T09:23:28.039Z</time></trkpt><trkpt lat="40.6966237" lon="15.1775023"><ele>833.0000000000001</ele><time>2026-04-06T09:23:29.039Z</time></trkpt><trkpt lat="40.6966807" lon="15.1774189"><ele>833.0</ele><time>2026-04-06T09:23:30.039Z</time></trkpt><trkpt lat="40.6967284" lon="15.1773365"><ele>833.0</ele><time>2026-04-06T09:23:31.039Z</time></trkpt><trkpt lat="40.696787" lon="15.1772824"><ele>833.0</ele><time>2026-04-06T09:23:32.039Z</time></trkpt><trkpt lat="40.6968484" lon="15.1772572"><ele>833.0000000000001</ele><time>2026-04-06T09:23:33.039Z</time></trkpt><trkpt lat="40.6969265" lon="15.1772377"><ele>833.0</ele><time>2026-04-06T09:23:34.039Z</time></trkpt><trkpt lat="40.6970042" lon="15.1772228"><ele>843.3333333333334</ele><time>2026-04-06T09:23:35.04Z</time></trkpt><trkpt lat="40.6970798" lon="15.1772093"><ele>853.6666666666667</ele><time>2026-04-06T09:23:36.039Z</time></trkpt><trkpt lat="40.6971487" lon="15.1772048"><ele>864.0</ele><time>2026-04-06T09:23:37.039Z</time></trkpt><trkpt lat="40.6972476" lon="15.1771907"><ele>874.3333333333333</ele><time>2026-04-06T09:23:39.039Z</time></trkpt><trkpt lat="40.6973302" lon="15.1771816"><ele>884.6666666666666</ele><time>2026-04-06T09:23:41.04Z</time></trkpt><trkpt lat="40.6973942" lon="15.1771831"><ele>895.0</ele><time>2026-04-06T09:23:43.039Z</time></trkpt><trkpt lat="40.6974745" lon="15.1771894"><ele>894.9999999999999</ele><time>2026-04-06T09:23:45.039Z</time></trkpt><trkpt lat="40.6975615" lon="15.1771982"><ele>895.0</ele><time>2026-04-06T09:23:47.039Z</time></trkpt><trkpt lat="40.6976647" lon="15.1772224"><ele>895.0</ele><time>2026-04-06T09:23:49.039Z</time></trkpt><trkpt lat="40.6977643" lon="15.1772961"><ele>895.0</ele><time>2026-04-06T09:23:51.039Z</time></trkpt><trkpt lat="40.6978025" lon="15.1773669"><ele>894.9999999999999</ele><time>2026-04-06T09:23:52.039Z</time></trkpt><trkpt lat="40.6978481" lon="15.1774347"><ele>895.0</ele><time>2026-04-06T09:23:53.039Z</time></trkpt><trkpt lat="40.697905" lon="15.1774955"><ele>889.7142857142857</ele><time>2026-04-06T09:23:54.039Z</time></trkpt><trkpt lat="40.6979687" lon="15.1775336"><ele>884.4285714285714</ele><time>2026-04-06T09:23:55.039Z</time></trkpt><trkpt lat="40.6980353" lon="15.1775615"><ele>879.1428571428571</ele><time>2026-04-06T09:23:56.039Z</time></trkpt><trkpt lat="40.6981076" lon="15.1775839"><ele>873.8571428571429</ele><time>2026-04-06T09:23:57.04Z</time></trkpt><trkpt lat="40.6981723" lon="15.1775874"><ele>868.5714285714287</ele><time>2026-04-06T09:23:58.039Z</time></trkpt><trkpt lat="40.698236" lon="15.1775996"><ele>863.2857142857143</ele><time>2026-04-06T09:23:59.039Z</time></trkpt><trkpt lat="40.6983007" lon="15.1776062"><ele>858.0</ele><time>2026-04-06T09:24:00.039Z</time></trkpt><trkpt lat="40.6983651" lon="15.1776182"><ele>858.0</ele><time>2026-04-06T09:24:01.039Z</time></trkpt><trkpt lat="40.6984303" lon="15.1776382"><ele>858.0</ele><time>2026-04-06T09:24:02.039Z</time></trkpt><trkpt lat="40.6984987" lon="15.1776625"><ele>858.0</ele><time>2026-04-06T09:24:03.039Z</time></trkpt><trkpt lat="40.6985668" lon="15.1776692"><ele>858.0</ele><time>2026-04-06T09:24:04.04Z</time></trkpt><trkpt lat="40.6986327" lon="15.1776647"><ele>858.0</ele><time>2026-04-06T09:24:05.039Z</time></trkpt><trkpt lat="40.698696" lon="15.177648"><ele>858.0</ele><time>2026-04-06T09:24:06.039Z</time></trkpt><trkpt lat="40.6988009" lon="15.1776089"><ele>858.0</ele><time>2026-04-06T09:24:08.039Z</time></trkpt><trkpt lat="40.6988744" lon="15.177593"><ele>859.4</ele><time>2026-04-06T09:24:10.039Z</time></trkpt><trkpt lat="40.6989507" lon="15.1775896"><ele>860.8</ele><time>2026-04-06T09:24:12.039Z</time></trkpt><trkpt lat="40.6990207" lon="15.1776101"><ele>862.2</ele><time>2026-04-06T09:24:14.039Z</time></trkpt><trkpt lat="40.6991018" lon="15.1776509"><ele>863.6</ele><time>2026-04-06T09:24:16.039Z</time></trkpt><trkpt lat="40.6991795" lon="15.1776983"><ele>865.0</ele><time>2026-04-06T09:24:18.039Z</time></trkpt><trkpt lat="40.69922" lon="15.1778809"><ele>864.9999999999999</ele><time>2026-04-06T09:24:20.039Z</time></trkpt><trkpt lat="40.6993127" lon="15.1779757"><ele>865.0</ele><time>2026-04-06T09:24:22.039Z</time></trkpt><trkpt lat="40.6993629" lon="15.1780333"><ele>865.0</ele><time>2026-04-06T09:24:23.039Z</time></trkpt><trkpt lat="40.6994047" lon="15.1781001"><ele>865.0</ele><time>2026-04-06T09:24:24.039Z</time></trkpt><trkpt lat="40.6994749" lon="15.1781869"><ele>864.9999999999999</ele><time>2026-04-06T09:24:26.039Z</time></trkpt><trkpt lat="40.6995477" lon="15.1782433"><ele>865.0</ele><time>2026-04-06T09:24:28.039Z</time></trkpt><trkpt lat="40.6996163" lon="15.1782976"><ele>864.9999999999999</ele><time>2026-04-06T09:24:31.039Z</time></trkpt><trkpt lat="40.6996914" lon="15.1783584"><ele>865.0</ele><time>2026-04-06T09:24:34.039Z</time></trkpt><trkpt lat="40.6997586" lon="15.1784141"><ele>865.0</ele><time>2026-04-06T09:24:36.039Z</time></trkpt><trkpt lat="40.6998473" lon="15.1784804"><ele>865.0</ele><time>2026-04-06T09:24:38.039Z</time></trkpt><trkpt lat="40.6999035" lon="15.1785272"><ele>864.9999999999999</ele><time>2026-04-06T09:24:44.039Z</time></trkpt><trkpt lat="40.699939" lon="15.1786056"><ele>865.0</ele><time>2026-04-06T09:24:50.039Z</time></trkpt><trkpt lat="40.699939" lon="15.1786937"><ele>864.9999999999999</ele><time>2026-04-06T09:24:54.04Z</time></trkpt><trkpt lat="40.699977" lon="15.1787726"><ele>865.0</ele><time>2026-04-06T09:25:01.039Z</time></trkpt><trkpt lat="40.7000514" lon="15.1788042"><ele>865.0</ele><time>2026-04-06T09:25:03.039Z</time></trkpt><trkpt lat="40.7001832" lon="15.1787781"><ele>865.0</ele><time>2026-04-06T09:25:04.039Z</time></trkpt><trkpt lat="40.7002506" lon="15.1787875"><ele>864.9999999999999</ele><time>2026-04-06T09:25:10.04Z</time></trkpt><trkpt lat="40.7003029" lon="15.1787374"><ele>865.0</ele><time>2026-04-06T09:25:15.039Z</time></trkpt><trkpt lat="40.7003502" lon="15.1786801"><ele>875.0</ele><time>2026-04-06T09:25:19.039Z</time></trkpt><trkpt lat="40.7003899" lon="15.1786092"><ele>875.0</ele><time>2026-04-06T09:25:22.039Z</time></trkpt><trkpt lat="40.7004571" lon="15.1785961"><ele>875.0</ele><time>2026-04-06T09:25:26.039Z</time></trkpt></trkseg><trkseg><trkpt lat="40.7004592" lon="15.1785051"><ele>875.0000000000001</ele><time>2026-04-06T09:53:01.077Z</time></trkpt><trkpt lat="40.7003833" lon="15.1785137"><ele>875.0</ele><time>2026-04-06T09:53:05.088Z</time></trkpt><trkpt lat="40.7003495" lon="15.1785873"><ele>875.0</ele><time>2026-04-06T09:53:13.077Z</time></trkpt><trkpt lat="40.7002931" lon="15.1787151"><ele>875.0</ele><time>2026-04-06T09:53:49.077Z</time></trkpt><trkpt lat="40.7002702" lon="15.1788107"><ele>875.0000000000001</ele><time>2026-04-06T09:53:54.077Z</time></trkpt><trkpt lat="40.7002099" lon="15.1788682"><ele>875.0</ele><time>2026-04-06T09:53:59.077Z</time></trkpt><trkpt lat="40.7001402" lon="15.1789293"><ele>873.5714285714286</ele><time>2026-04-06T09:54:03.077Z</time></trkpt><trkpt lat="40.7000783" lon="15.1789896"><ele>872.1428571428571</ele><time>2026-04-06T09:54:11.078Z</time></trkpt><trkpt lat="40.7000122" lon="15.1790458"><ele>870.7142857142858</ele><time>2026-04-06T09:54:15.077Z</time></trkpt><trkpt lat="40.6999589" lon="15.1790955"><ele>869.2857142857142</ele><time>2026-04-06T09:54:17.077Z</time></trkpt><trkpt lat="40.6999043" lon="15.1791651"><ele>867.8571428571429</ele><time>2026-04-06T09:54:19.077Z</time></trkpt><trkpt lat="40.6998615" lon="15.1792285"><ele>866.4285714285714</ele><time>2026-04-06T09:54:21.078Z</time></trkpt><trkpt lat="40.6998057" lon="15.179298"><ele>865.0</ele><time>2026-04-06T09:54:23.077Z</time></trkpt><trkpt lat="40.6997721" lon="15.1794011"><ele>864.8333333333333</ele><time>2026-04-06T09:54:25.077Z</time></trkpt><trkpt lat="40.6997494" lon="15.1794968"><ele>864.6666666666666</ele><time>2026-04-06T09:54:27.077Z</time></trkpt><trkpt lat="40.6997554" lon="15.1796057"><ele>864.5</ele><time>2026-04-06T09:54:29.077Z</time></trkpt><trkpt lat="40.699799" lon="15.1797105"><ele>864.3333333333333</ele><time>2026-04-06T09:54:31.077Z</time></trkpt><trkpt lat="40.6998464" lon="15.1798148"><ele>864.1666666666666</ele><time>2026-04-06T09:54:33.077Z</time></trkpt><trkpt lat="40.6998928" lon="15.1798869"><ele>864.0</ele><time>2026-04-06T09:54:35.077Z</time></trkpt><trkpt lat="40.6999789" lon="15.1799729"><ele>865.6</ele><time>2026-04-06T09:54:37.077Z</time></trkpt><trkpt lat="40.7000556" lon="15.1800309"><ele>867.2</ele><time>2026-04-06T09:54:39.077Z</time></trkpt><trkpt lat="40.7001594" lon="15.1800507"><ele>868.8000000000001</ele><time>2026-04-06T09:54:41.077Z</time></trkpt><trkpt lat="40.7002464" lon="15.1800982"><ele>870.4000000000001</ele><time>2026-04-06T09:54:43.077Z</time></trkpt><trkpt lat="40.7003217" lon="15.1801856"><ele>872.0</ele><time>2026-04-06T09:54:45.078Z</time></trkpt><trkpt lat="40.7004005" lon="15.1802884"><ele>872.0</ele><time>2026-04-06T09:54:47.078Z</time></trkpt><trkpt lat="40.7004728" lon="15.1803354"><ele>872.0</ele><time>2026-04-06T09:54:49.078Z</time></trkpt><trkpt lat="40.7005489" lon="15.180383"><ele>872.0</ele><time>2026-04-06T09:54:51.077Z</time></trkpt><trkpt lat="40.7006024" lon="15.180511"><ele>872.0</ele><time>2026-04-06T09:54:53.077Z</time></trkpt><trkpt lat="40.7006004" lon="15.1806643"><ele>872.0</ele><time>2026-04-06T09:54:55.077Z</time></trkpt><trkpt lat="40.7005997" lon="15.1808306"><ele>872.3333333333334</ele><time>2026-04-06T09:54:57.077Z</time></trkpt><trkpt lat="40.7006242" lon="15.1809716"><ele>872.6666666666667</ele><time>2026-04-06T09:54:59.077Z</time></trkpt><trkpt lat="40.7006659" lon="15.1810382"><ele>873.0</ele><time>2026-04-06T09:55:00.077Z</time></trkpt><trkpt lat="40.7007203" lon="15.1810899"><ele>873.3333333333333</ele><time>2026-04-06T09:55:01.077Z</time></trkpt><trkpt lat="40.7007947" lon="15.1811145"><ele>873.6666666666666</ele><time>2026-04-06T09:55:02.078Z</time></trkpt><trkpt lat="40.7008744" lon="15.1811222"><ele>874.0</ele><time>2026-04-06T09:55:03.077Z</time></trkpt><trkpt lat="40.7009631" lon="15.1811062"><ele>874.2</ele><time>2026-04-06T09:55:04.078Z</time></trkpt><trkpt lat="40.7011225" lon="15.1810946"><ele>874.4000000000001</ele><time>2026-04-06T09:55:06.077Z</time></trkpt><trkpt lat="40.7012093" lon="15.1810594"><ele>874.6</ele><time>2026-04-06T09:55:07.077Z</time></trkpt><trkpt lat="40.7013172" lon="15.1810234"><ele>874.8</ele><time>2026-04-06T09:55:08.077Z</time></trkpt><trkpt lat="40.7013984" lon="15.1809908"><ele>875.0</ele><time>2026-04-06T09:55:09.077Z</time></trkpt><trkpt lat="40.7014808" lon="15.1809715"><ele>875.0</ele><time>2026-04-06T09:55:10.077Z</time></trkpt><trkpt lat="40.7015521" lon="15.1809319"><ele>875.0</ele><time>2026-04-06T09:55:11.077Z</time></trkpt><trkpt lat="40.7019153" lon="15.1809087"><ele>875.0</ele><time>2026-04-06T09:55:17.078Z</time></trkpt><trkpt lat="40.701979" lon="15.1808661"><ele>875.8</ele><time>2026-04-06T09:55:18.077Z</time></trkpt><trkpt lat="40.7020414" lon="15.1808092"><ele>876.6</ele><time>2026-04-06T09:55:19.077Z</time></trkpt><trkpt lat="40.7020983" lon="15.1807585"><ele>877.4000000000001</ele><time>2026-04-06T09:55:20.077Z</time></trkpt><trkpt lat="40.7021937" lon="15.1806889"><ele>878.2</ele><time>2026-04-06T09:55:22.077Z</time></trkpt><trkpt lat="40.7022705" lon="15.1806477"><ele>879.0</ele><time>2026-04-06T09:55:24.077Z</time></trkpt><trkpt lat="40.7025617" lon="15.1806317"><ele>879.1666666666666</ele><time>2026-04-06T09:55:29.077Z</time></trkpt><trkpt lat="40.7026589" lon="15.1806168"><ele>879.3333333333333</ele><time>2026-04-06T09:55:31.077Z</time></trkpt><trkpt lat="40.7027361" lon="15.1805939"><ele>879.5</ele><time>2026-04-06T09:55:34.077Z</time></trkpt><trkpt lat="40.7028261" lon="15.1805709"><ele>879.6666666666666</ele><time>2026-04-06T09:55:37.077Z</time></trkpt><trkpt lat="40.7029086" lon="15.1805642"><ele>879.8333333333333</ele><time>2026-04-06T09:55:39.078Z</time></trkpt><trkpt lat="40.7029959" lon="15.1805549"><ele>880.0</ele><time>2026-04-06T09:55:41.077Z</time></trkpt><trkpt lat="40.7031649" lon="15.1805453"><ele>880.25</ele><time>2026-04-06T09:55:45.077Z</time></trkpt><trkpt lat="40.7033512" lon="15.1805355"><ele>880.5</ele><time>2026-04-06T09:55:49.078Z</time></trkpt><trkpt lat="40.7034538" lon="15.1805124"><ele>880.75</ele><time>2026-04-06T09:55:51.077Z</time></trkpt><trkpt lat="40.7035686" lon="15.1804511"><ele>881.0</ele><time>2026-04-06T09:55:53.077Z</time></trkpt><trkpt lat="40.7036808" lon="15.1804055"><ele>881.8333333333334</ele><time>2026-04-06T09:55:55.077Z</time></trkpt><trkpt lat="40.7037406" lon="15.1803774"><ele>882.6666666666667</ele><time>2026-04-06T09:55:56.077Z</time></trkpt><trkpt lat="40.7038041" lon="15.1803471"><ele>883.5</ele><time>2026-04-06T09:55:57.077Z</time></trkpt><trkpt lat="40.7039167" lon="15.1802591"><ele>884.3333333333333</ele><time>2026-04-06T09:55:59.077Z</time></trkpt><trkpt lat="40.7039798" lon="15.1802183"><ele>885.1666666666666</ele><time>2026-04-06T09:56:00.078Z</time></trkpt><trkpt lat="40.7040659" lon="15.180128"><ele>886.0</ele><time>2026-04-06T09:56:02.077Z</time></trkpt><trkpt lat="40.7041286" lon="15.1800617"><ele>885.9999999999999</ele><time>2026-04-06T09:56:04.077Z</time></trkpt><trkpt lat="40.7042017" lon="15.1800215"><ele>886.0</ele><time>2026-04-06T09:56:06.077Z</time></trkpt><trkpt lat="40.7042827" lon="15.1799861"><ele>886.0</ele><time>2026-04-06T09:56:08.078Z</time></trkpt><trkpt lat="40.7043778" lon="15.1800094"><ele>886.0</ele><time>2026-04-06T09:56:19.077Z</time></trkpt><trkpt lat="40.704415" lon="15.1800949"><ele>885.9999999999999</ele><time>2026-04-06T09:56:24.077Z</time></trkpt><trkpt lat="40.7044445" lon="15.1801729"><ele>886.0</ele><time>2026-04-06T09:56:34.077Z</time></trkpt><trkpt lat="40.704506" lon="15.1801964"><ele>885.9999999999999</ele><time>2026-04-06T09:56:40.077Z</time></trkpt><trkpt lat="40.7044937" lon="15.1802902"><ele>886.0</ele><time>2026-04-06T09:56:54.077Z</time></trkpt><trkpt lat="40.7044732" lon="15.1803802"><ele>886.0</ele><time>2026-04-06T09:56:57.077Z</time></trkpt><trkpt lat="40.7044669" lon="15.1804729"><ele>886.0</ele><time>2026-04-06T09:57:00.077Z</time></trkpt><trkpt lat="40.7044267" lon="15.1805491"><ele>885.9999999999999</ele><time>2026-04-06T09:57:03.077Z</time></trkpt><trkpt lat="40.7043626" lon="15.1806512"><ele>886.0</ele><time>2026-04-06T09:57:06.077Z</time></trkpt><trkpt lat="40.7043309" lon="15.1807289"><ele>888.2857142857143</ele><time>2026-04-06T09:57:08.077Z</time></trkpt><trkpt lat="40.7043404" lon="15.1808206"><ele>890.5714285714287</ele><time>2026-04-06T09:57:11.077Z</time></trkpt><trkpt lat="40.7043509" lon="15.1809051"><ele>892.8571428571429</ele><time>2026-04-06T09:57:14.077Z</time></trkpt><trkpt lat="40.7043554" lon="15.1809937"><ele>895.1428571428571</ele><time>2026-04-06T09:57:18.077Z</time></trkpt><trkpt lat="40.7043842" lon="15.1810833"><ele>897.4285714285714</ele><time>2026-04-06T09:57:20.077Z</time></trkpt><trkpt lat="40.7044065" lon="15.1811753"><ele>899.7142857142857</ele><time>2026-04-06T09:57:23.077Z</time></trkpt><trkpt lat="40.704458" lon="15.1812691"><ele>902.0</ele><time>2026-04-06T09:57:27.077Z</time></trkpt><trkpt lat="40.7044969" lon="15.181376"><ele>905.1666666666667</ele><time>2026-04-06T09:57:30.077Z</time></trkpt><trkpt lat="40.7045576" lon="15.1814143"><ele>908.3333333333334</ele><time>2026-04-06T09:57:32.077Z</time></trkpt><trkpt lat="40.7046065" lon="15.1814778"><ele>911.5</ele><time>2026-04-06T09:57:34.077Z</time></trkpt><trkpt lat="40.7046687" lon="15.1815796"><ele>914.6666666666667</ele><time>2026-04-06T09:57:37.077Z</time></trkpt><trkpt lat="40.7046664" lon="15.1816814"><ele>917.8333333333334</ele><time>2026-04-06T09:57:39.077Z</time></trkpt><trkpt lat="40.7047077" lon="15.1817929"><ele>921.0</ele><time>2026-04-06T09:57:42.077Z</time></trkpt><trkpt lat="40.7047871" lon="15.1818208"><ele>925.0</ele><time>2026-04-06T09:57:44.077Z</time></trkpt><trkpt lat="40.7054143" lon="15.1823087"><ele>923.1666666666666</ele><time>2026-04-06T09:58:25.077Z</time></trkpt><trkpt lat="40.7054678" lon="15.1824094"><ele>921.3333333333333</ele><time>2026-04-06T09:58:32.077Z</time></trkpt><trkpt lat="40.7055416" lon="15.1824601"><ele>919.5</ele><time>2026-04-06T09:58:40.076Z</time></trkpt><trkpt lat="40.7055686" lon="15.1825354"><ele>917.6666666666667</ele><time>2026-04-06T09:59:09.076Z</time></trkpt><trkpt lat="40.7055881" lon="15.1826371"><ele>915.8333333333334</ele><time>2026-04-06T09:59:37.086Z</time></trkpt><trkpt lat="40.7056636" lon="15.1826684"><ele>914.0</ele><time>2026-04-06T10:00:01.086Z</time></trkpt><trkpt lat="40.7057379" lon="15.1826181"><ele>914.0</ele><time>2026-04-06T10:00:39.086Z</time></trkpt><trkpt lat="40.7058384" lon="15.182599"><ele>914.0</ele><time>2026-04-06T10:00:41.086Z</time></trkpt><trkpt lat="40.7059148" lon="15.18143"><ele>916.2</ele><time>2026-04-06T10:01:43.085Z</time></trkpt><trkpt lat="40.7058748" lon="15.1814979"><ele>918.4000000000001</ele><time>2026-04-06T10:01:58.085Z</time></trkpt><trkpt lat="40.7058308" lon="15.1814261"><ele>920.6</ele><time>2026-04-06T10:02:04.085Z</time></trkpt><trkpt lat="40.7058153" lon="15.1813287"><ele>922.8</ele><time>2026-04-06T10:02:08.085Z</time></trkpt><trkpt lat="40.7056739" lon="15.1814374"><ele>925.0</ele><time>2026-04-06T10:02:15.085Z</time></trkpt><trkpt lat="40.7056304" lon="15.1815344"><ele>925.0</ele><time>2026-04-06T10:02:21.085Z</time></trkpt><trkpt lat="40.7055739" lon="15.1816049"><ele>925.0</ele><time>2026-04-06T10:02:26.085Z</time></trkpt><trkpt lat="40.7055342" lon="15.1816719"><ele>925.0</ele><time>2026-04-06T10:02:29.086Z</time></trkpt><trkpt lat="40.7054908" lon="15.1818608"><ele>925.0</ele><time>2026-04-06T10:02:34.085Z</time></trkpt><trkpt lat="40.7052269" lon="15.1827158"><ele>921.3333333333333</ele><time>2026-04-06T10:02:46.085Z</time></trkpt><trkpt lat="40.7053571" lon="15.1829033"><ele>917.6666666666667</ele><time>2026-04-06T10:02:54.085Z</time></trkpt><trkpt lat="40.7055492" lon="15.1830137"><ele>914.0</ele><time>2026-04-06T10:03:03.085Z</time></trkpt><trkpt lat="40.7056549" lon="15.1830465"><ele>914.0000000000001</ele><time>2026-04-06T10:03:48.085Z</time></trkpt><trkpt lat="40.7056833" lon="15.1831272"><ele>914.0</ele><time>2026-04-06T10:04:05.085Z</time></trkpt><trkpt lat="40.7057738" lon="15.1831419"><ele>914.0000000000001</ele><time>2026-04-06T10:04:08.087Z</time></trkpt><trkpt lat="40.7057139" lon="15.1831756"><ele>914.0000000000001</ele><time>2026-04-06T10:04:47.085Z</time></trkpt><trkpt lat="40.7056751" lon="15.1832416"><ele>914.0</ele><time>2026-04-06T10:05:27.085Z</time></trkpt><trkpt lat="40.7056368" lon="15.1833093"><ele>914.0000000000001</ele><time>2026-04-06T10:06:15.085Z</time></trkpt><trkpt lat="40.7055753" lon="15.1833828"><ele>914.0000000000001</ele><time>2026-04-06T10:08:22.093Z</time></trkpt><trkpt lat="40.7055979" lon="15.1834623"><ele>914.0000000000001</ele><time>2026-04-06T10:09:30.071Z</time></trkpt><trkpt lat="40.7055212" lon="15.1833911"><ele>914.0</ele><time>2026-04-06T10:10:12.141Z</time></trkpt><trkpt lat="40.7055901" lon="15.1833881"><ele>914.0000000000001</ele><time>2026-04-06T10:13:02.136Z</time></trkpt><trkpt lat="40.7055404" lon="15.1833305"><ele>914.0000000000001</ele><time>2026-04-06T10:14:24.102Z</time></trkpt><trkpt lat="40.7056044" lon="15.1832844"><ele>914.0</ele><time>2026-04-06T10:14:43.135Z</time></trkpt><trkpt lat="40.7056524" lon="15.1832188"><ele>914.0000000000001</ele><time>2026-04-06T10:14:46.119Z</time></trkpt><trkpt lat="40.7056963" lon="15.1831444"><ele>914.0000000000001</ele><time>2026-04-06T10:14:49.117Z</time></trkpt><trkpt lat="40.7057303" lon="15.1830671"><ele>914.0000000000001</ele><time>2026-04-06T10:14:54.101Z</time></trkpt><trkpt lat="40.7057034" lon="15.1831669"><ele>914.0</ele><time>2026-04-06T10:15:03.152Z</time></trkpt><trkpt lat="40.7057048" lon="15.1832513"><ele>914.0000000000001</ele><time>2026-04-06T10:15:10.116Z</time></trkpt><trkpt lat="40.7056431" lon="15.1832245"><ele>914.0000000000001</ele><time>2026-04-06T10:15:38.101Z</time></trkpt><trkpt lat="40.7055802" lon="15.1832191"><ele>914.0</ele><time>2026-04-06T10:15:54.11Z</time></trkpt><trkpt lat="40.7055069" lon="15.1832415"><ele>914.0000000000001</ele><time>2026-04-06T10:16:02.135Z</time></trkpt><trkpt lat="40.7054732" lon="15.1833138"><ele>914.0000000000001</ele><time>2026-04-06T10:16:06.088Z</time></trkpt><trkpt lat="40.7055361" lon="15.1833377"><ele>913.5000000000001</ele><time>2026-04-06T10:16:41.101Z</time></trkpt><trkpt lat="40.7056106" lon="15.1833548"><ele>913.0</ele><time>2026-04-06T10:17:17.101Z</time></trkpt><trkpt lat="40.7056784" lon="15.1833579"><ele>912.5</ele><time>2026-04-06T10:18:58.101Z</time></trkpt><trkpt lat="40.7056148" lon="15.1833519"><ele>912.0</ele><time>2026-04-06T10:19:30.157Z</time></trkpt><trkpt lat="40.7055708" lon="15.1834307"><ele>911.5000000000001</ele><time>2026-04-06T10:19:33.101Z</time></trkpt><trkpt lat="40.7054578" lon="15.1835594"><ele>911.0</ele><time>2026-04-06T10:20:08.125Z</time></trkpt><trkpt lat="40.7054039" lon="15.1836116"><ele>911.0</ele><time>2026-04-06T10:20:12.109Z</time></trkpt><trkpt lat="40.7053401" lon="15.1836454"><ele>911.0</ele><time>2026-04-06T10:20:16.134Z</time></trkpt><trkpt lat="40.705271" lon="15.1836609"><ele>911.0</ele><time>2026-04-06T10:20:19.109Z</time></trkpt><trkpt lat="40.7048984" lon="15.1838634"><ele>913.8571428571429</ele><time>2026-04-06T10:20:23.109Z</time></trkpt><trkpt lat="40.7048544" lon="15.1838011"><ele>916.7142857142857</ele><time>2026-04-06T10:20:48.109Z</time></trkpt><trkpt lat="40.7049083" lon="15.1837421"><ele>919.5714285714286</ele><time>2026-04-06T10:20:57.109Z</time></trkpt><trkpt lat="40.7049694" lon="15.1836754"><ele>922.4285714285714</ele><time>2026-04-06T10:21:02.109Z</time></trkpt><trkpt lat="40.7050427" lon="15.1836365"><ele>925.2857142857142</ele><time>2026-04-06T10:21:06.109Z</time></trkpt><trkpt lat="40.7051155" lon="15.1836158"><ele>928.1428571428571</ele><time>2026-04-06T10:21:10.109Z</time></trkpt><trkpt lat="40.7051862" lon="15.1835728"><ele>931.0</ele><time>2026-04-06T10:21:16.109Z</time></trkpt><trkpt lat="40.7052349" lon="15.1835184"><ele>926.0</ele><time>2026-04-06T10:21:34.109Z</time></trkpt><trkpt lat="40.7053217" lon="15.1834868"><ele>921.0</ele><time>2026-04-06T10:21:39.109Z</time></trkpt><trkpt lat="40.705486" lon="15.1834719"><ele>916.0</ele><time>2026-04-06T10:22:05.109Z</time></trkpt><trkpt lat="40.7053275" lon="15.183515"><ele>911.0</ele><time>2026-04-06T10:22:13.116Z</time></trkpt><trkpt lat="40.7053769" lon="15.1834612"><ele>911.0</ele><time>2026-04-06T10:22:44.136Z</time></trkpt><trkpt lat="40.7054428" lon="15.1834166"><ele>911.0</ele><time>2026-04-06T10:22:58.125Z</time></trkpt><trkpt lat="40.7054961" lon="15.183362"><ele>911.0</ele><time>2026-04-06T10:23:00.108Z</time></trkpt><trkpt lat="40.7055565" lon="15.1833011"><ele>911.0</ele><time>2026-04-06T10:23:04.123Z</time></trkpt><trkpt lat="40.7055039" lon="15.1832306"><ele>911.0</ele><time>2026-04-06T10:23:47.108Z</time></trkpt><trkpt lat="40.7055522" lon="15.1833254"><ele>911.0</ele><time>2026-04-06T10:23:55.112Z</time></trkpt><trkpt lat="40.7056031" lon="15.1833853"><ele>911.0</ele><time>2026-04-06T10:23:59.108Z</time></trkpt><trkpt lat="40.7056898" lon="15.1834013"><ele>911.0000000000001</ele><time>2026-04-06T10:24:08.108Z</time></trkpt><trkpt lat="40.7057248" lon="15.1833183"><ele>911.0</ele><time>2026-04-06T10:24:21.108Z</time></trkpt><trkpt lat="40.7057071" lon="15.1832349"><ele>911.0</ele><time>2026-04-06T10:24:32.113Z</time></trkpt><trkpt lat="40.7056189" lon="15.1832488"><ele>911.0</ele><time>2026-04-06T10:26:57.117Z</time></trkpt><trkpt lat="40.7055371" lon="15.1832452"><ele>911.0000000000001</ele><time>2026-04-06T10:27:01.074Z</time></trkpt><trkpt lat="40.7054804" lon="15.183304"><ele>911.0</ele><time>2026-04-06T10:27:05.126Z</time></trkpt><trkpt lat="40.7054164" lon="15.183342"><ele>911.0000000000001</ele><time>2026-04-06T10:27:11.108Z</time></trkpt><trkpt lat="40.7054798" lon="15.1833204"><ele>911.0</ele><time>2026-04-06T10:27:41.12Z</time></trkpt><trkpt lat="40.705543" lon="15.1832745"><ele>911.0</ele><time>2026-04-06T10:27:49.128Z</time></trkpt><trkpt lat="40.7056322" lon="15.1832679"><ele>911.0</ele><time>2026-04-06T10:28:04.108Z</time></trkpt><trkpt lat="40.7056505" lon="15.1831726"><ele>911.0000000000001</ele><time>2026-04-06T10:28:09.117Z</time></trkpt><trkpt lat="40.7056395" lon="15.1830502"><ele>911.0</ele><time>2026-04-06T10:28:13.117Z</time></trkpt><trkpt lat="40.7056116" lon="15.1828961"><ele>911.5999999999999</ele><time>2026-04-06T10:28:14.117Z</time></trkpt><trkpt lat="40.7055787" lon="15.182799"><ele>912.1999999999999</ele><time>2026-04-06T10:28:15.117Z</time></trkpt><trkpt lat="40.7055355" lon="15.1827053"><ele>912.8000000000001</ele><time>2026-04-06T10:28:16.117Z</time></trkpt><trkpt lat="40.7054806" lon="15.182598"><ele>913.4000000000001</ele><time>2026-04-06T10:28:17.117Z</time></trkpt><trkpt lat="40.7054147" lon="15.1824812"><ele>914.0</ele><time>2026-04-06T10:28:18.117Z</time></trkpt><trkpt lat="40.7053491" lon="15.1823747"><ele>915.4000000000001</ele><time>2026-04-06T10:28:19.117Z</time></trkpt><trkpt lat="40.7052805" lon="15.1822709"><ele>916.8000000000001</ele><time>2026-04-06T10:28:20.118Z</time></trkpt><trkpt lat="40.7052087" lon="15.1821759"><ele>918.1999999999999</ele><time>2026-04-06T10:28:21.117Z</time></trkpt><trkpt lat="40.7051381" lon="15.1820991"><ele>919.5999999999999</ele><time>2026-04-06T10:28:22.117Z</time></trkpt><trkpt lat="40.7050715" lon="15.1820347"><ele>921.0</ele><time>2026-04-06T10:28:23.117Z</time></trkpt><trkpt lat="40.7050005" lon="15.1819774"><ele>921.0</ele><time>2026-04-06T10:28:24.117Z</time></trkpt><trkpt lat="40.7049317" lon="15.1819285"><ele>921.0</ele><time>2026-04-06T10:28:25.117Z</time></trkpt><trkpt lat="40.7048623" lon="15.1818798"><ele>921.0</ele><time>2026-04-06T10:28:26.117Z</time></trkpt><trkpt lat="40.7047998" lon="15.181836"><ele>921.0</ele><time>2026-04-06T10:28:27.117Z</time></trkpt><trkpt lat="40.7047384" lon="15.1817884"><ele>921.0</ele><time>2026-04-06T10:28:28.117Z</time></trkpt><trkpt lat="40.7046351" lon="15.1817172"><ele>921.0</ele><time>2026-04-06T10:28:30.117Z</time></trkpt><trkpt lat="40.7045345" lon="15.1816498"><ele>921.0</ele><time>2026-04-06T10:28:32.117Z</time></trkpt><trkpt lat="40.7044508" lon="15.1815518"><ele>920.9999999999999</ele><time>2026-04-06T10:28:34.117Z</time></trkpt><trkpt lat="40.7043795" lon="15.1814379"><ele>920.9999999999999</ele><time>2026-04-06T10:28:36.117Z</time></trkpt><trkpt lat="40.7043305" lon="15.1813172"><ele>921.0</ele><time>2026-04-06T10:28:38.117Z</time></trkpt><trkpt lat="40.7043405" lon="15.181168"><ele>921.0</ele><time>2026-04-06T10:28:40.117Z</time></trkpt><trkpt lat="40.7043081" lon="15.1810957"><ele>917.8333333333334</ele><time>2026-04-06T10:28:42.117Z</time></trkpt><trkpt lat="40.7042703" lon="15.180986"><ele>914.6666666666667</ele><time>2026-04-06T10:28:44.117Z</time></trkpt><trkpt lat="40.7042312" lon="15.1809196"><ele>911.5</ele><time>2026-04-06T10:28:46.117Z</time></trkpt><trkpt lat="40.704204" lon="15.1808086"><ele>908.3333333333334</ele><time>2026-04-06T10:28:49.117Z</time></trkpt><trkpt lat="40.7042069" lon="15.1807123"><ele>905.1666666666667</ele><time>2026-04-06T10:28:51.117Z</time></trkpt><trkpt lat="40.7042309" lon="15.1805822"><ele>902.0</ele><time>2026-04-06T10:28:53.117Z</time></trkpt><trkpt lat="40.7042632" lon="15.1804581"><ele>899.3333333333334</ele><time>2026-04-06T10:28:55.117Z</time></trkpt><trkpt lat="40.7043063" lon="15.1803487"><ele>896.6666666666667</ele><time>2026-04-06T10:28:58.117Z</time></trkpt><trkpt lat="40.7043635" lon="15.1802891"><ele>894.0</ele><time>2026-04-06T10:29:00.117Z</time></trkpt><trkpt lat="40.7044063" lon="15.1802265"><ele>891.3333333333333</ele><time>2026-04-06T10:29:02.117Z</time></trkpt><trkpt lat="40.7044123" lon="15.1801177"><ele>888.6666666666666</ele><time>2026-04-06T10:29:06.117Z</time></trkpt><trkpt lat="40.7043841" lon="15.1800205"><ele>886.0</ele><time>2026-04-06T10:29:09.118Z</time></trkpt><trkpt lat="40.7043579" lon="15.1799365"><ele>886.0</ele><time>2026-04-06T10:29:11.117Z</time></trkpt><trkpt lat="40.7043324" lon="15.1798554"><ele>885.9999999999999</ele><time>2026-04-06T10:29:13.117Z</time></trkpt><trkpt lat="40.7042615" lon="15.1798638"><ele>885.9999999999999</ele><time>2026-04-06T10:29:15.118Z</time></trkpt><trkpt lat="40.7041799" lon="15.17988"><ele>886.0</ele><time>2026-04-06T10:29:17.118Z</time></trkpt><trkpt lat="40.7040714" lon="15.179925"><ele>886.0</ele><time>2026-04-06T10:29:19.117Z</time></trkpt><trkpt lat="40.7039477" lon="15.1799777"><ele>886.0</ele><time>2026-04-06T10:29:21.118Z</time></trkpt><trkpt lat="40.7038869" lon="15.1800233"><ele>886.0</ele><time>2026-04-06T10:29:22.117Z</time></trkpt><trkpt lat="40.7038268" lon="15.1800729"><ele>886.0</ele><time>2026-04-06T10:29:23.117Z</time></trkpt><trkpt lat="40.7037735" lon="15.1801269"><ele>886.0</ele><time>2026-04-06T10:29:24.117Z</time></trkpt><trkpt lat="40.7037143" lon="15.1801724"><ele>886.0</ele><time>2026-04-06T10:29:25.117Z</time></trkpt><trkpt lat="40.7036467" lon="15.1802031"><ele>886.0</ele><time>2026-04-06T10:29:26.117Z</time></trkpt><trkpt lat="40.7035811" lon="15.1802337"><ele>886.0</ele><time>2026-04-06T10:29:27.117Z</time></trkpt><trkpt lat="40.7035063" lon="15.1802648"><ele>885.1666666666666</ele><time>2026-04-06T10:29:28.117Z</time></trkpt><trkpt lat="40.7034357" lon="15.1803057"><ele>884.3333333333333</ele><time>2026-04-06T10:29:29.117Z</time></trkpt><trkpt lat="40.7033663" lon="15.1803412"><ele>883.5</ele><time>2026-04-06T10:29:30.117Z</time></trkpt><trkpt lat="40.7032556" lon="15.1803804"><ele>882.6666666666667</ele><time>2026-04-06T10:29:32.117Z</time></trkpt><trkpt lat="40.7031831" lon="15.1804264"><ele>881.8333333333334</ele><time>2026-04-06T10:29:34.117Z</time></trkpt><trkpt lat="40.7031008" lon="15.180434"><ele>881.0</ele><time>2026-04-06T10:29:36.117Z</time></trkpt><trkpt lat="40.7030062" lon="15.1804201"><ele>881.0000000000001</ele><time>2026-04-06T10:29:38.117Z</time></trkpt><trkpt lat="40.7029067" lon="15.1804355"><ele>881.0</ele><time>2026-04-06T10:29:40.118Z</time></trkpt><trkpt lat="40.7028102" lon="15.1804551"><ele>881.0</ele><time>2026-04-06T10:29:42.117Z</time></trkpt><trkpt lat="40.7027443" lon="15.1804669"><ele>881.0</ele><time>2026-04-06T10:29:44.118Z</time></trkpt><trkpt lat="40.7026691" lon="15.1804781"><ele>881.0000000000001</ele><time>2026-04-06T10:29:46.117Z</time></trkpt><trkpt lat="40.702592" lon="15.1805077"><ele>881.0</ele><time>2026-04-06T10:29:48.117Z</time></trkpt><trkpt lat="40.7025062" lon="15.1805418"><ele>880.8333333333334</ele><time>2026-04-06T10:29:50.117Z</time></trkpt><trkpt lat="40.7024356" lon="15.1805799"><ele>880.6666666666667</ele><time>2026-04-06T10:29:52.117Z</time></trkpt><trkpt lat="40.7023676" lon="15.1805948"><ele>880.5</ele><time>2026-04-06T10:29:54.117Z</time></trkpt><trkpt lat="40.702275" lon="15.1806073"><ele>880.3333333333333</ele><time>2026-04-06T10:29:56.117Z</time></trkpt><trkpt lat="40.7021914" lon="15.180631"><ele>880.1666666666666</ele><time>2026-04-06T10:29:58.117Z</time></trkpt><trkpt lat="40.7021251" lon="15.1806657"><ele>880.0</ele><time>2026-04-06T10:30:00.117Z</time></trkpt><trkpt lat="40.7020533" lon="15.1806938"><ele>879.8</ele><time>2026-04-06T10:30:02.117Z</time></trkpt><trkpt lat="40.7019716" lon="15.1807426"><ele>879.6</ele><time>2026-04-06T10:30:04.117Z</time></trkpt><trkpt lat="40.701886" lon="15.1807902"><ele>879.4000000000001</ele><time>2026-04-06T10:30:06.117Z</time></trkpt><trkpt lat="40.7017846" lon="15.1808227"><ele>879.2</ele><time>2026-04-06T10:30:08.117Z</time></trkpt><trkpt lat="40.7016852" lon="15.1808328"><ele>879.0</ele><time>2026-04-06T10:30:10.117Z</time></trkpt><trkpt lat="40.7015738" lon="15.1808269"><ele>878.2</ele><time>2026-04-06T10:30:12.117Z</time></trkpt><trkpt lat="40.7014661" lon="15.1808278"><ele>877.4000000000001</ele><time>2026-04-06T10:30:14.117Z</time></trkpt><trkpt lat="40.701359" lon="15.1808388"><ele>876.6</ele><time>2026-04-06T10:30:16.117Z</time></trkpt><trkpt lat="40.7012645" lon="15.1808577"><ele>875.8</ele><time>2026-04-06T10:30:18.117Z</time></trkpt><trkpt lat="40.7011921" lon="15.1808468"><ele>875.0</ele><time>2026-04-06T10:30:20.117Z</time></trkpt><trkpt lat="40.7011054" lon="15.1808174"><ele>874.8333333333334</ele><time>2026-04-06T10:30:24.117Z</time></trkpt><trkpt lat="40.7010326" lon="15.1807999"><ele>874.6666666666667</ele><time>2026-04-06T10:30:33.117Z</time></trkpt><trkpt lat="40.7009418" lon="15.1807468"><ele>874.5</ele><time>2026-04-06T10:30:36.117Z</time></trkpt><trkpt lat="40.7008537" lon="15.1806425"><ele>874.3333333333333</ele><time>2026-04-06T10:30:38.117Z</time></trkpt><trkpt lat="40.700817" lon="15.1805647"><ele>874.1666666666666</ele><time>2026-04-06T10:30:39.118Z</time></trkpt><trkpt lat="40.7007784" lon="15.1804939"><ele>874.0</ele><time>2026-04-06T10:30:40.117Z</time></trkpt><trkpt lat="40.7006904" lon="15.1803735"><ele>873.6666666666666</ele><time>2026-04-06T10:30:42.118Z</time></trkpt><trkpt lat="40.7006491" lon="15.1803097"><ele>873.3333333333333</ele><time>2026-04-06T10:30:43.117Z</time></trkpt><trkpt lat="40.7005981" lon="15.1802099"><ele>873.0</ele><time>2026-04-06T10:30:45.117Z</time></trkpt><trkpt lat="40.7005388" lon="15.1801409"><ele>872.6666666666667</ele><time>2026-04-06T10:30:47.117Z</time></trkpt><trkpt lat="40.7004575" lon="15.1801032"><ele>872.3333333333334</ele><time>2026-04-06T10:30:49.117Z</time></trkpt><trkpt lat="40.7003782" lon="15.1800449"><ele>872.0</ele><time>2026-04-06T10:30:51.117Z</time></trkpt><trkpt lat="40.7002825" lon="15.1799784"><ele>872.4000000000001</ele><time>2026-04-06T10:30:53.117Z</time></trkpt><trkpt lat="40.700182" lon="15.1799287"><ele>872.8000000000001</ele><time>2026-04-06T10:30:55.117Z</time></trkpt><trkpt lat="40.7000686" lon="15.1799041"><ele>873.2</ele><time>2026-04-06T10:30:57.117Z</time></trkpt><trkpt lat="40.6999635" lon="15.1798734"><ele>873.6</ele><time>2026-04-06T10:30:59.118Z</time></trkpt><trkpt lat="40.6998857" lon="15.1798287"><ele>874.0</ele><time>2026-04-06T10:31:01.117Z</time></trkpt><trkpt lat="40.6998221" lon="15.1797432"><ele>872.0</ele><time>2026-04-06T10:31:03.117Z</time></trkpt><trkpt lat="40.6997768" lon="15.1796123"><ele>870.0000000000001</ele><time>2026-04-06T10:31:05.117Z</time></trkpt><trkpt lat="40.6997844" lon="15.1794574"><ele>868.0000000000001</ele><time>2026-04-06T10:31:07.117Z</time></trkpt><trkpt lat="40.6998206" lon="15.1793158"><ele>866.0</ele><time>2026-04-06T10:31:09.118Z</time></trkpt><trkpt lat="40.6998724" lon="15.179198"><ele>864.0</ele><time>2026-04-06T10:31:11.117Z</time></trkpt><trkpt lat="40.6999223" lon="15.1791143"><ele>864.0</ele><time>2026-04-06T10:31:14.117Z</time></trkpt><trkpt lat="40.6999841" lon="15.1790532"><ele>864.0</ele><time>2026-04-06T10:31:20.118Z</time></trkpt><trkpt lat="40.7000652" lon="15.1789838"><ele>864.0</ele><time>2026-04-06T10:31:24.117Z</time></trkpt><trkpt lat="40.7001408" lon="15.178934"><ele>864.0</ele><time>2026-04-06T10:31:26.117Z</time></trkpt><trkpt lat="40.7002149" lon="15.1788629"><ele>864.0</ele><time>2026-04-06T10:31:28.118Z</time></trkpt><trkpt lat="40.7002769" lon="15.1788053"><ele>864.0</ele><time>2026-04-06T10:31:31.117Z</time></trkpt><trkpt lat="40.7003501" lon="15.1787495"><ele>864.1428571428571</ele><time>2026-04-06T10:31:35.117Z</time></trkpt><trkpt lat="40.7004085" lon="15.178715"><ele>864.2857142857142</ele><time>2026-04-06T10:31:37.117Z</time></trkpt><trkpt lat="40.7003599" lon="15.1788028"><ele>864.4285714285714</ele><time>2026-04-06T10:31:58.1Z</time></trkpt><trkpt lat="40.7003045" lon="15.1787493"><ele>864.5714285714286</ele><time>2026-04-06T10:32:04.117Z</time></trkpt><trkpt lat="40.7002413" lon="15.1787183"><ele>864.7142857142858</ele><time>2026-04-06T10:32:08.162Z</time></trkpt><trkpt lat="40.7001923" lon="15.178653"><ele>864.8571428571429</ele><time>2026-04-06T10:32:12.05Z</time></trkpt><trkpt lat="40.7001827" lon="15.1785684"><ele>865.0</ele><time>2026-04-06T10:32:17.117Z</time></trkpt><trkpt lat="40.7001497" lon="15.1784872"><ele>865.0</ele><time>2026-04-06T10:32:26.117Z</time></trkpt><trkpt lat="40.700208" lon="15.1785259"><ele>865.0</ele><time>2026-04-06T10:32:33.117Z</time></trkpt><trkpt lat="40.7001596" lon="15.1784719"><ele>865.0</ele><time>2026-04-06T10:32:47.117Z</time></trkpt><trkpt lat="40.7001801" lon="15.1783818"><ele>865.0</ele><time>2026-04-06T10:33:36.126Z</time></trkpt><trkpt lat="40.7002383" lon="15.1783438"><ele>865.0</ele><time>2026-04-06T10:33:46.13Z</time></trkpt><trkpt lat="40.7001917" lon="15.178415"><ele>865.0</ele><time>2026-04-06T10:34:10.155Z</time></trkpt></trkseg><trkseg><trkpt lat="40.699624" lon="15.1774171"><ele>871.0</ele><time>2026-04-06T10:52:19.171Z</time></trkpt><trkpt lat="40.699467" lon="15.1775205"><ele>870.9999999999999</ele><time>2026-04-06T10:52:32.151Z</time></trkpt><trkpt lat="40.6994061" lon="15.1774353"><ele>870.9999999999999</ele><time>2026-04-06T10:52:45.15Z</time></trkpt><trkpt lat="40.6994666" lon="15.1773746"><ele>871.0</ele><time>2026-04-06T10:52:47.15Z</time></trkpt><trkpt lat="40.6995381" lon="15.177276"><ele>871.0</ele><time>2026-04-06T10:52:55.154Z</time></trkpt><trkpt lat="40.6995086" lon="15.1771837"><ele>872.8333333333333</ele><time>2026-04-06T10:53:02.151Z</time></trkpt><trkpt lat="40.6995882" lon="15.1771122"><ele>874.6666666666666</ele><time>2026-04-06T10:53:29.15Z</time></trkpt><trkpt lat="40.6996658" lon="15.1771106"><ele>876.5</ele><time>2026-04-06T10:53:38.15Z</time></trkpt><trkpt lat="40.6997655" lon="15.1771017"><ele>878.3333333333333</ele><time>2026-04-06T10:53:55.15Z</time></trkpt><trkpt lat="40.6997357" lon="15.1770006"><ele>880.1666666666666</ele><time>2026-04-06T10:55:35.15Z</time></trkpt><trkpt lat="40.6998057" lon="15.1769894"><ele>882.0</ele><time>2026-04-06T10:56:10.149Z</time></trkpt><trkpt lat="40.6998629" lon="15.1769068"><ele>882.0</ele><time>2026-04-06T10:56:18.149Z</time></trkpt><trkpt lat="40.6999236" lon="15.1768377"><ele>882.0</ele><time>2026-04-06T10:56:21.15Z</time></trkpt><trkpt lat="40.699977" lon="15.1767641"><ele>882.0</ele><time>2026-04-06T10:56:23.149Z</time></trkpt><trkpt lat="40.700067" lon="15.1767195"><ele>882.0</ele><time>2026-04-06T10:56:25.149Z</time></trkpt><trkpt lat="40.7001606" lon="15.1767173"><ele>882.0</ele><time>2026-04-06T10:56:27.149Z</time></trkpt><trkpt lat="40.7002379" lon="15.1766729"><ele>882.0</ele><time>2026-04-06T10:56:29.149Z</time></trkpt><trkpt lat="40.7003194" lon="15.1766772"><ele>882.0</ele><time>2026-04-06T10:56:32.149Z</time></trkpt><trkpt lat="40.7003758" lon="15.1766276"><ele>882.0</ele><time>2026-04-06T10:56:34.149Z</time></trkpt><trkpt lat="40.7003517" lon="15.1767067"><ele>882.0</ele><time>2026-04-06T10:57:47.149Z</time></trkpt><trkpt lat="40.7002939" lon="15.1767669"><ele>882.0</ele><time>2026-04-06T10:57:52.149Z</time></trkpt><trkpt lat="40.7002394" lon="15.17683"><ele>882.0</ele><time>2026-04-06T10:57:58.15Z</time></trkpt><trkpt lat="40.7001938" lon="15.1768914"><ele>882.0</ele><time>2026-04-06T10:58:02.103Z</time></trkpt><trkpt lat="40.7001646" lon="15.1769676"><ele>882.0</ele><time>2026-04-06T10:58:09.122Z</time></trkpt><trkpt lat="40.7002185" lon="15.1770343"><ele>882.0</ele><time>2026-04-06T10:58:26.142Z</time></trkpt><trkpt lat="40.7001917" lon="15.1771364"><ele>882.0</ele><time>2026-04-06T10:59:27.17Z</time></trkpt><trkpt lat="40.7001759" lon="15.1770544"><ele>882.0</ele><time>2026-04-06T10:59:49.181Z</time></trkpt><trkpt lat="40.7001906" lon="15.1769277"><ele>882.0</ele><time>2026-04-06T11:07:09.165Z</time></trkpt><trkpt lat="40.7002483" lon="15.1768862"><ele>882.0</ele><time>2026-04-06T11:07:53.165Z</time></trkpt><trkpt lat="40.7002837" lon="15.1768112"><ele>882.0</ele><time>2026-04-06T11:08:23.165Z</time></trkpt><trkpt lat="40.7003399" lon="15.1767532"><ele>882.0</ele><time>2026-04-06T11:08:33.165Z</time></trkpt><trkpt lat="40.7004047" lon="15.1766173"><ele>882.8</ele><time>2026-04-06T11:08:52.165Z</time></trkpt><trkpt lat="40.7004601" lon="15.1765299"><ele>883.6</ele><time>2026-04-06T11:09:04.165Z</time></trkpt><trkpt lat="40.7005139" lon="15.176472"><ele>884.3999999999999</ele><time>2026-04-06T11:09:10.165Z</time></trkpt><trkpt lat="40.7005879" lon="15.1764549"><ele>885.1999999999999</ele><time>2026-04-06T11:09:15.165Z</time></trkpt><trkpt lat="40.7006873" lon="15.1764183"><ele>886.0</ele><time>2026-04-06T11:09:20.166Z</time></trkpt><trkpt lat="40.7008332" lon="15.1763663"><ele>888.4</ele><time>2026-04-06T11:09:38.165Z</time></trkpt><trkpt lat="40.7010643" lon="15.1763497"><ele>890.8</ele><time>2026-04-06T11:10:14.165Z</time></trkpt><trkpt lat="40.7011353" lon="15.1763115"><ele>893.1999999999999</ele><time>2026-04-06T11:10:19.165Z</time></trkpt><trkpt lat="40.7011758" lon="15.176231"><ele>895.5999999999999</ele><time>2026-04-06T11:10:24.166Z</time></trkpt><trkpt lat="40.7012165" lon="15.1761666"><ele>898.0</ele><time>2026-04-06T11:10:28.165Z</time></trkpt><trkpt lat="40.7012309" lon="15.1760803"><ele>898.0</ele><time>2026-04-06T11:10:34.165Z</time></trkpt><trkpt lat="40.7013022" lon="15.1760359"><ele>898.0</ele><time>2026-04-06T11:10:38.165Z</time></trkpt><trkpt lat="40.7013632" lon="15.1759788"><ele>898.0</ele><time>2026-04-06T11:10:41.165Z</time></trkpt><trkpt lat="40.7016145" lon="15.1759695"><ele>898.0</ele><time>2026-04-06T11:10:54.165Z</time></trkpt><trkpt lat="40.7016844" lon="15.1759729"><ele>898.0</ele><time>2026-04-06T11:11:02.165Z</time></trkpt><trkpt lat="40.7018467" lon="15.1759588"><ele>898.0</ele><time>2026-04-06T11:11:10.165Z</time></trkpt><trkpt lat="40.7019132" lon="15.1759583"><ele>898.0</ele><time>2026-04-06T11:11:12.165Z</time></trkpt><trkpt lat="40.7019927" lon="15.1759525"><ele>898.0</ele><time>2026-04-06T11:11:15.165Z</time></trkpt><trkpt lat="40.702068" lon="15.17599"><ele>898.0</ele><time>2026-04-06T11:11:18.165Z</time></trkpt><trkpt lat="40.7021515" lon="15.1760317"><ele>898.3333333333333</ele><time>2026-04-06T11:11:21.165Z</time></trkpt><trkpt lat="40.7022286" lon="15.1759743"><ele>898.6666666666666</ele><time>2026-04-06T11:11:24.165Z</time></trkpt><trkpt lat="40.7023277" lon="15.1759444"><ele>899.0</ele><time>2026-04-06T11:11:27.165Z</time></trkpt><trkpt lat="40.7023789" lon="15.1758899"><ele>899.3333333333333</ele><time>2026-04-06T11:11:29.165Z</time></trkpt><trkpt lat="40.7024353" lon="15.1758412"><ele>899.6666666666666</ele><time>2026-04-06T11:11:31.165Z</time></trkpt><trkpt lat="40.7025253" lon="15.1758009"><ele>900.0</ele><time>2026-04-06T11:11:33.165Z</time></trkpt><trkpt lat="40.702622" lon="15.1757633"><ele>900.0</ele><time>2026-04-06T11:11:35.165Z</time></trkpt><trkpt lat="40.7027113" lon="15.1757247"><ele>900.0</ele><time>2026-04-06T11:11:37.166Z</time></trkpt><trkpt lat="40.7028167" lon="15.1757396"><ele>900.0</ele><time>2026-04-06T11:11:39.165Z</time></trkpt><trkpt lat="40.7029238" lon="15.1757338"><ele>900.0</ele><time>2026-04-06T11:11:41.165Z</time></trkpt><trkpt lat="40.7029994" lon="15.1756711"><ele>900.0</ele><time>2026-04-06T11:11:43.165Z</time></trkpt><trkpt lat="40.7030586" lon="15.1756098"><ele>900.4285714285716</ele><time>2026-04-06T11:11:45.165Z</time></trkpt><trkpt lat="40.7031082" lon="15.1755576"><ele>900.8571428571429</ele><time>2026-04-06T11:11:47.166Z</time></trkpt><trkpt lat="40.7031613" lon="15.175506"><ele>901.2857142857143</ele><time>2026-04-06T11:11:49.165Z</time></trkpt><trkpt lat="40.7032128" lon="15.1754472"><ele>901.7142857142858</ele><time>2026-04-06T11:11:53.165Z</time></trkpt><trkpt lat="40.7032369" lon="15.1753694"><ele>902.1428571428571</ele><time>2026-04-06T11:11:58.165Z</time></trkpt><trkpt lat="40.7032789" lon="15.1752976"><ele>902.5714285714286</ele><time>2026-04-06T11:12:04.165Z</time></trkpt><trkpt lat="40.7032878" lon="15.1752094"><ele>903.0</ele><time>2026-04-06T11:12:08.165Z</time></trkpt><trkpt lat="40.7033216" lon="15.1751374"><ele>903.0</ele><time>2026-04-06T11:12:12.174Z</time></trkpt><trkpt lat="40.7033568" lon="15.1750503"><ele>903.0</ele><time>2026-04-06T11:12:27.174Z</time></trkpt><trkpt lat="40.7033244" lon="15.1749737"><ele>903.0</ele><time>2026-04-06T11:12:51.174Z</time></trkpt><trkpt lat="40.7032739" lon="15.1749164"><ele>903.0</ele><time>2026-04-06T11:13:23.175Z</time></trkpt><trkpt lat="40.7032292" lon="15.1748491"><ele>903.0</ele><time>2026-04-06T11:13:30.174Z</time></trkpt><trkpt lat="40.7032026" lon="15.174769"><ele>903.0</ele><time>2026-04-06T11:14:23.174Z</time></trkpt><trkpt lat="40.7032283" lon="15.174681"><ele>903.0</ele><time>2026-04-06T11:14:41.174Z</time></trkpt><trkpt lat="40.7034548" lon="15.1747531"><ele>903.0</ele><time>2026-04-06T11:16:48.174Z</time></trkpt><trkpt lat="40.7034551" lon="15.174838"><ele>903.0</ele><time>2026-04-06T11:17:01.174Z</time></trkpt><trkpt lat="40.7035531" lon="15.1748976"><ele>903.0</ele><time>2026-04-06T11:17:15.174Z</time></trkpt><trkpt lat="40.7036218" lon="15.1749379"><ele>903.0</ele><time>2026-04-06T11:17:19.174Z</time></trkpt><trkpt lat="40.7036886" lon="15.1749834"><ele>903.0</ele><time>2026-04-06T11:17:23.174Z</time></trkpt><trkpt lat="40.703764" lon="15.1749747"><ele>903.0</ele><time>2026-04-06T11:17:27.174Z</time></trkpt><trkpt lat="40.7038574" lon="15.1749431"><ele>902.8</ele><time>2026-04-06T11:17:46.174Z</time></trkpt><trkpt lat="40.7039194" lon="15.175002"><ele>902.5999999999999</ele><time>2026-04-06T11:17:50.174Z</time></trkpt><trkpt lat="40.7039982" lon="15.1750461"><ele>902.4000000000001</ele><time>2026-04-06T11:17:53.175Z</time></trkpt><trkpt lat="40.7040637" lon="15.1750804"><ele>902.2</ele><time>2026-04-06T11:17:56.174Z</time></trkpt><trkpt lat="40.704179" lon="15.1750857"><ele>902.0</ele><time>2026-04-06T11:18:12.174Z</time></trkpt><trkpt lat="40.7042063" lon="15.1749459"><ele>902.0000000000001</ele><time>2026-04-06T11:18:14.174Z</time></trkpt><trkpt lat="40.7042478" lon="15.1748821"><ele>902.0</ele><time>2026-04-06T11:18:16.175Z</time></trkpt><trkpt lat="40.7043093" lon="15.1748454"><ele>902.0</ele><time>2026-04-06T11:18:18.175Z</time></trkpt><trkpt lat="40.7043908" lon="15.1748165"><ele>902.0</ele><time>2026-04-06T11:18:20.174Z</time></trkpt><trkpt lat="40.7044589" lon="15.17475"><ele>902.0000000000001</ele><time>2026-04-06T11:18:22.174Z</time></trkpt><trkpt lat="40.7044993" lon="15.1746812"><ele>902.0</ele><time>2026-04-06T11:18:24.175Z</time></trkpt><trkpt lat="40.7045908" lon="15.1746286"><ele>902.2857142857142</ele><time>2026-04-06T11:18:26.174Z</time></trkpt><trkpt lat="40.7046725" lon="15.1746041"><ele>902.5714285714287</ele><time>2026-04-06T11:18:28.174Z</time></trkpt><trkpt lat="40.7047329" lon="15.1745566"><ele>902.8571428571429</ele><time>2026-04-06T11:18:30.174Z</time></trkpt><trkpt lat="40.7047722" lon="15.1744862"><ele>903.1428571428571</ele><time>2026-04-06T11:18:32.174Z</time></trkpt><trkpt lat="40.7047977" lon="15.1744004"><ele>903.4285714285713</ele><time>2026-04-06T11:18:34.174Z</time></trkpt><trkpt lat="40.7048615" lon="15.1743769"><ele>903.7142857142858</ele><time>2026-04-06T11:18:36.174Z</time></trkpt><trkpt lat="40.7049228" lon="15.1743255"><ele>904.0</ele><time>2026-04-06T11:18:46.173Z</time></trkpt><trkpt lat="40.7049701" lon="15.17426"><ele>904.0</ele><time>2026-04-06T11:18:58.183Z</time></trkpt><trkpt lat="40.7050108" lon="15.1741776"><ele>904.0</ele><time>2026-04-06T11:19:02.182Z</time></trkpt><trkpt lat="40.7050362" lon="15.1741"><ele>904.0</ele><time>2026-04-06T11:19:06.182Z</time></trkpt><trkpt lat="40.705129" lon="15.1740777"><ele>904.0</ele><time>2026-04-06T11:19:10.182Z</time></trkpt><trkpt lat="40.7054345" lon="15.1740792"><ele>902.8000000000001</ele><time>2026-04-06T11:19:16.182Z</time></trkpt><trkpt lat="40.7055188" lon="15.1740943"><ele>901.6000000000001</ele><time>2026-04-06T11:19:19.182Z</time></trkpt><trkpt lat="40.7055897" lon="15.174128"><ele>900.4</ele><time>2026-04-06T11:19:21.182Z</time></trkpt><trkpt lat="40.7056832" lon="15.1741964"><ele>899.2</ele><time>2026-04-06T11:19:23.183Z</time></trkpt><trkpt lat="40.7057697" lon="15.1742539"><ele>898.0</ele><time>2026-04-06T11:19:25.182Z</time></trkpt><trkpt lat="40.7058684" lon="15.1742902"><ele>897.9999999999999</ele><time>2026-04-06T11:19:27.182Z</time></trkpt><trkpt lat="40.7059535" lon="15.1743191"><ele>898.0</ele><time>2026-04-06T11:19:29.182Z</time></trkpt><trkpt lat="40.7060282" lon="15.1743553"><ele>898.0</ele><time>2026-04-06T11:19:31.182Z</time></trkpt><trkpt lat="40.7060897" lon="15.1743771"><ele>898.0</ele><time>2026-04-06T11:19:33.182Z</time></trkpt><trkpt lat="40.7061695" lon="15.1744021"><ele>897.9999999999999</ele><time>2026-04-06T11:19:35.182Z</time></trkpt><trkpt lat="40.7062606" lon="15.1744261"><ele>898.0</ele><time>2026-04-06T11:19:37.182Z</time></trkpt><trkpt lat="40.7063673" lon="15.1744599"><ele>898.4999999999999</ele><time>2026-04-06T11:19:39.183Z</time></trkpt><trkpt lat="40.7064363" lon="15.1745279"><ele>899.0</ele><time>2026-04-06T11:19:40.182Z</time></trkpt><trkpt lat="40.7064826" lon="15.174589"><ele>899.5</ele><time>2026-04-06T11:19:41.182Z</time></trkpt><trkpt lat="40.7065223" lon="15.174655"><ele>900.0</ele><time>2026-04-06T11:19:42.183Z</time></trkpt><trkpt lat="40.706585" lon="15.174748"><ele>900.4999999999999</ele><time>2026-04-06T11:19:44.182Z</time></trkpt><trkpt lat="40.7066657" lon="15.1748097"><ele>901.0</ele><time>2026-04-06T11:19:46.182Z</time></trkpt><trkpt lat="40.7067532" lon="15.17488"><ele>899.5999999999999</ele><time>2026-04-06T11:19:48.182Z</time></trkpt><trkpt lat="40.7068234" lon="15.174966"><ele>898.1999999999999</ele><time>2026-04-06T11:19:50.182Z</time></trkpt><trkpt lat="40.7068902" lon="15.1750544"><ele>896.8000000000001</ele><time>2026-04-06T11:19:52.182Z</time></trkpt><trkpt lat="40.7069658" lon="15.1751263"><ele>895.4000000000001</ele><time>2026-04-06T11:19:54.182Z</time></trkpt><trkpt lat="40.7070578" lon="15.1751855"><ele>894.0</ele><time>2026-04-06T11:19:56.182Z</time></trkpt><trkpt lat="40.7071563" lon="15.1752155"><ele>891.8333333333334</ele><time>2026-04-06T11:19:58.182Z</time></trkpt><trkpt lat="40.7072448" lon="15.1752345"><ele>889.6666666666667</ele><time>2026-04-06T11:20:00.182Z</time></trkpt><trkpt lat="40.7073274" lon="15.1752577"><ele>887.5</ele><time>2026-04-06T11:20:02.182Z</time></trkpt><trkpt lat="40.7073871" lon="15.1753189"><ele>885.3333333333334</ele><time>2026-04-06T11:20:04.182Z</time></trkpt><trkpt lat="40.7074424" lon="15.175371"><ele>883.1666666666667</ele><time>2026-04-06T11:20:09.182Z</time></trkpt><trkpt lat="40.7074904" lon="15.1754323"><ele>881.0</ele><time>2026-04-06T11:20:11.182Z</time></trkpt><trkpt lat="40.7075293" lon="15.1755249"><ele>881.0000000000001</ele><time>2026-04-06T11:20:14.182Z</time></trkpt><trkpt lat="40.7075501" lon="15.1756099"><ele>881.0</ele><time>2026-04-06T11:20:17.182Z</time></trkpt><trkpt lat="40.7077206" lon="15.175618"><ele>881.0</ele><time>2026-04-06T11:21:05.182Z</time></trkpt><trkpt lat="40.7077716" lon="15.1756785"><ele>881.0</ele><time>2026-04-06T11:21:15.2Z</time></trkpt><trkpt lat="40.7078268" lon="15.1756342"><ele>881.0000000000001</ele><time>2026-04-06T11:21:58.182Z</time></trkpt><trkpt lat="40.7078121" lon="15.1757219"><ele>881.0</ele><time>2026-04-06T11:22:29.182Z</time></trkpt><trkpt lat="40.7078262" lon="15.1758166"><ele>874.5000000000001</ele><time>2026-04-06T11:22:37.182Z</time></trkpt><trkpt lat="40.7078804" lon="15.1758787"><ele>868.0</ele><time>2026-04-06T11:22:45.18Z</time></trkpt><trkpt lat="40.7079437" lon="15.1759185"><ele>861.5</ele><time>2026-04-06T11:22:52.183Z</time></trkpt><trkpt lat="40.7078757" lon="15.175969"><ele>855.0</ele><time>2026-04-06T11:23:10.2Z</time></trkpt><trkpt lat="40.707856" lon="15.176054"><ele>848.5000000000001</ele><time>2026-04-06T11:23:14.182Z</time></trkpt><trkpt lat="40.7077962" lon="15.1760812"><ele>842.0</ele><time>2026-04-06T11:23:20.182Z</time></trkpt><trkpt lat="40.7078124" lon="15.1762225"><ele>842.0000000000001</ele><time>2026-04-06T11:23:55.182Z</time></trkpt><trkpt lat="40.7078171" lon="15.176307"><ele>842.0</ele><time>2026-04-06T11:24:10.143Z</time></trkpt><trkpt lat="40.7078165" lon="15.176392"><ele>842.0</ele><time>2026-04-06T11:24:33.182Z</time></trkpt><trkpt lat="40.70782" lon="15.1764757"><ele>842.0</ele><time>2026-04-06T11:24:52.182Z</time></trkpt><trkpt lat="40.7078591" lon="15.1765457"><ele>842.0</ele><time>2026-04-06T11:25:01.182Z</time></trkpt><trkpt lat="40.7079145" lon="15.1764914"><ele>842.0000000000001</ele><time>2026-04-06T11:25:10.205Z</time></trkpt><trkpt lat="40.7079741" lon="15.1765227"><ele>842.0</ele><time>2026-04-06T11:25:14.167Z</time></trkpt><trkpt lat="40.7080307" lon="15.1765711"><ele>846.5714285714287</ele><time>2026-04-06T11:25:27.182Z</time></trkpt><trkpt lat="40.7081024" lon="15.1765852"><ele>851.1428571428571</ele><time>2026-04-06T11:25:43.228Z</time></trkpt><trkpt lat="40.7081674" lon="15.1766034"><ele>855.7142857142858</ele><time>2026-04-06T11:25:49.19Z</time></trkpt><trkpt lat="40.7082408" lon="15.1765604"><ele>860.2857142857143</ele><time>2026-04-06T11:26:28.199Z</time></trkpt><trkpt lat="40.7081945" lon="15.1766223"><ele>864.8571428571429</ele><time>2026-04-06T11:29:27.19Z</time></trkpt><trkpt lat="40.708139" lon="15.1765818"><ele>869.4285714285714</ele><time>2026-04-06T11:29:32.19Z</time></trkpt><trkpt lat="40.7080695" lon="15.1765334"><ele>874.0</ele><time>2026-04-06T11:29:50.19Z</time></trkpt><trkpt lat="40.7080011" lon="15.1765555"><ele>874.0</ele><time>2026-04-06T11:29:56.19Z</time></trkpt><trkpt lat="40.7079323" lon="15.1765645"><ele>874.0</ele><time>2026-04-06T11:30:21.22Z</time></trkpt><trkpt lat="40.707867" lon="15.1765619"><ele>874.0</ele><time>2026-04-06T11:30:28.123Z</time></trkpt><trkpt lat="40.707797" lon="15.1765462"><ele>874.0</ele><time>2026-04-06T11:30:41.098Z</time></trkpt><trkpt lat="40.7077529" lon="15.1766061"><ele>874.0</ele><time>2026-04-06T11:30:48.126Z</time></trkpt><trkpt lat="40.707724" lon="15.1765293"><ele>874.0</ele><time>2026-04-06T11:30:58.227Z</time></trkpt><trkpt lat="40.7077668" lon="15.1764613"><ele>874.0</ele><time>2026-04-06T11:31:05.222Z</time></trkpt><trkpt lat="40.7077841" lon="15.176365"><ele>876.2857142857142</ele><time>2026-04-06T11:31:43.191Z</time></trkpt><trkpt lat="40.7077793" lon="15.1762748"><ele>878.5714285714287</ele><time>2026-04-06T11:31:49.19Z</time></trkpt><trkpt lat="40.7077791" lon="15.1761843"><ele>880.8571428571429</ele><time>2026-04-06T11:31:55.214Z</time></trkpt><trkpt lat="40.7077866" lon="15.176097"><ele>883.1428571428571</ele><time>2026-04-06T11:32:02.217Z</time></trkpt><trkpt lat="40.7077926" lon="15.1760075"><ele>885.4285714285713</ele><time>2026-04-06T11:32:09.234Z</time></trkpt><trkpt lat="40.7077547" lon="15.1759397"><ele>887.7142857142858</ele><time>2026-04-06T11:32:14.12Z</time></trkpt><trkpt lat="40.7077139" lon="15.1758675"><ele>890.0</ele><time>2026-04-06T11:32:19.242Z</time></trkpt><trkpt lat="40.7076715" lon="15.1758055"><ele>890.0</ele><time>2026-04-06T11:32:25.198Z</time></trkpt><trkpt lat="40.7076311" lon="15.1757329"><ele>890.0</ele><time>2026-04-06T11:32:33.198Z</time></trkpt><trkpt lat="40.7076188" lon="15.175646"><ele>890.0</ele><time>2026-04-06T11:32:40.172Z</time></trkpt><trkpt lat="40.7075756" lon="15.1755855"><ele>890.0</ele><time>2026-04-06T11:33:42.227Z</time></trkpt><trkpt lat="40.7075665" lon="15.1756681"><ele>890.0</ele><time>2026-04-06T11:34:35.197Z</time></trkpt><trkpt lat="40.7076139" lon="15.17573"><ele>890.0</ele><time>2026-04-06T11:34:46.198Z</time></trkpt><trkpt lat="40.7076807" lon="15.17566"><ele>890.0</ele><time>2026-04-06T11:34:52.197Z</time></trkpt><trkpt lat="40.7076317" lon="15.175567"><ele>888.2</ele><time>2026-04-06T11:34:55.197Z</time></trkpt><trkpt lat="40.7075497" lon="15.1755105"><ele>886.4</ele><time>2026-04-06T11:34:58.197Z</time></trkpt><trkpt lat="40.707471" lon="15.1754776"><ele>884.5999999999999</ele><time>2026-04-06T11:35:01.197Z</time></trkpt><trkpt lat="40.7073914" lon="15.175407"><ele>882.8</ele><time>2026-04-06T11:35:04.197Z</time></trkpt><trkpt lat="40.707315" lon="15.1753372"><ele>881.0</ele><time>2026-04-06T11:35:07.197Z</time></trkpt><trkpt lat="40.7072178" lon="15.1753095"><ele>881.0</ele><time>2026-04-06T11:35:09.197Z</time></trkpt><trkpt lat="40.7071467" lon="15.1752769"><ele>880.9999999999999</ele><time>2026-04-06T11:35:11.197Z</time></trkpt><trkpt lat="40.707044" lon="15.175223"><ele>880.9999999999999</ele><time>2026-04-06T11:35:13.197Z</time></trkpt><trkpt lat="40.7069562" lon="15.1751088"><ele>881.0</ele><time>2026-04-06T11:35:15.197Z</time></trkpt><trkpt lat="40.706898" lon="15.1750379"><ele>881.0</ele><time>2026-04-06T11:35:16.197Z</time></trkpt><trkpt lat="40.7068237" lon="15.1749773"><ele>883.1666666666667</ele><time>2026-04-06T11:35:17.197Z</time></trkpt><trkpt lat="40.7067217" lon="15.1749032"><ele>885.3333333333334</ele><time>2026-04-06T11:35:18.197Z</time></trkpt><trkpt lat="40.706638" lon="15.1748371"><ele>887.5</ele><time>2026-04-06T11:35:19.197Z</time></trkpt><trkpt lat="40.7065752" lon="15.1747668"><ele>889.6666666666667</ele><time>2026-04-06T11:35:20.197Z</time></trkpt><trkpt lat="40.7065163" lon="15.1747055"><ele>891.8333333333334</ele><time>2026-04-06T11:35:21.197Z</time></trkpt><trkpt lat="40.7064637" lon="15.1746445"><ele>894.0</ele><time>2026-04-06T11:35:22.197Z</time></trkpt><trkpt lat="40.7063808" lon="15.1745609"><ele>894.6666666666666</ele><time>2026-04-06T11:35:24.197Z</time></trkpt><trkpt lat="40.7062849" lon="15.1745449"><ele>895.3333333333333</ele><time>2026-04-06T11:35:26.197Z</time></trkpt><trkpt lat="40.7062063" lon="15.1745424"><ele>896.0</ele><time>2026-04-06T11:35:28.198Z</time></trkpt><trkpt lat="40.7061272" lon="15.1745263"><ele>896.6666666666666</ele><time>2026-04-06T11:35:30.197Z</time></trkpt><trkpt lat="40.7060408" lon="15.1744838"><ele>897.3333333333333</ele><time>2026-04-06T11:35:32.197Z</time></trkpt><trkpt lat="40.7059548" lon="15.1744571"><ele>898.0</ele><time>2026-04-06T11:35:34.198Z</time></trkpt><trkpt lat="40.7058831" lon="15.1744298"><ele>898.0</ele><time>2026-04-06T11:35:36.198Z</time></trkpt><trkpt lat="40.705797" lon="15.1743901"><ele>898.0</ele><time>2026-04-06T11:35:38.197Z</time></trkpt><trkpt lat="40.7057086" lon="15.1743339"><ele>898.0</ele><time>2026-04-06T11:35:41.197Z</time></trkpt><trkpt lat="40.7056191" lon="15.174291"><ele>898.0</ele><time>2026-04-06T11:35:43.197Z</time></trkpt><trkpt lat="40.7055196" lon="15.1742811"><ele>898.0</ele><time>2026-04-06T11:35:45.197Z</time></trkpt><trkpt lat="40.7054186" lon="15.1743064"><ele>897.9999999999999</ele><time>2026-04-06T11:35:47.197Z</time></trkpt><trkpt lat="40.7053221" lon="15.1743279"><ele>898.0</ele><time>2026-04-06T11:35:49.198Z</time></trkpt><trkpt lat="40.7052483" lon="15.1743287"><ele>898.0</ele><time>2026-04-06T11:35:51.197Z</time></trkpt><trkpt lat="40.7051799" lon="15.1743284"><ele>898.0</ele><time>2026-04-06T11:35:55.197Z</time></trkpt><trkpt lat="40.7050933" lon="15.1743394"><ele>897.9999999999999</ele><time>2026-04-06T11:35:57.197Z</time></trkpt><trkpt lat="40.7050118" lon="15.174335"><ele>898.0</ele><time>2026-04-06T11:36:00.197Z</time></trkpt><trkpt lat="40.7049217" lon="15.1743062"><ele>898.9999999999999</ele><time>2026-04-06T11:36:03.197Z</time></trkpt><trkpt lat="40.7048553" lon="15.1742477"><ele>900.0</ele><time>2026-04-06T11:36:06.197Z</time></trkpt><trkpt lat="40.7047908" lon="15.1742201"><ele>901.0</ele><time>2026-04-06T11:36:08.198Z</time></trkpt><trkpt lat="40.7046945" lon="15.1742008"><ele>902.0</ele><time>2026-04-06T11:36:11.197Z</time></trkpt><trkpt lat="40.7046151" lon="15.1742193"><ele>902.9999999999999</ele><time>2026-04-06T11:36:13.197Z</time></trkpt><trkpt lat="40.7045394" lon="15.174245"><ele>904.0</ele><time>2026-04-06T11:36:15.197Z</time></trkpt><trkpt lat="40.7044649" lon="15.1742827"><ele>904.9999999999999</ele><time>2026-04-06T11:36:17.197Z</time></trkpt><trkpt lat="40.7043902" lon="15.1742981"><ele>906.0</ele><time>2026-04-06T11:36:19.197Z</time></trkpt><trkpt lat="40.7043126" lon="15.1743248"><ele>907.0</ele><time>2026-04-06T11:36:21.197Z</time></trkpt><trkpt lat="40.7042412" lon="15.1743673"><ele>908.0</ele><time>2026-04-06T11:36:23.197Z</time></trkpt><trkpt lat="40.7041804" lon="15.1744245"><ele>908.9999999999999</ele><time>2026-04-06T11:36:25.197Z</time></trkpt><trkpt lat="40.7041148" lon="15.1744735"><ele>910.0</ele><time>2026-04-06T11:36:28.197Z</time></trkpt><trkpt lat="40.7040564" lon="15.1745424"><ele>909.9999999999999</ele><time>2026-04-06T11:36:31.197Z</time></trkpt><trkpt lat="40.7039974" lon="15.1746098"><ele>910.0</ele><time>2026-04-06T11:36:33.197Z</time></trkpt><trkpt lat="40.7039365" lon="15.174683"><ele>910.0</ele><time>2026-04-06T11:36:35.197Z</time></trkpt><trkpt lat="40.7038676" lon="15.1747745"><ele>910.0</ele><time>2026-04-06T11:36:38.197Z</time></trkpt><trkpt lat="40.7038062" lon="15.1748378"><ele>909.9999999999999</ele><time>2026-04-06T11:36:40.197Z</time></trkpt><trkpt lat="40.7037545" lon="15.1749009"><ele>910.0</ele><time>2026-04-06T11:36:42.198Z</time></trkpt><trkpt lat="40.7036903" lon="15.1749589"><ele>908.8333333333333</ele><time>2026-04-06T11:36:44.197Z</time></trkpt><trkpt lat="40.7036102" lon="15.175018"><ele>907.6666666666666</ele><time>2026-04-06T11:36:46.197Z</time></trkpt><trkpt lat="40.7035479" lon="15.1750759"><ele>906.5</ele><time>2026-04-06T11:36:49.197Z</time></trkpt><trkpt lat="40.7034728" lon="15.1751269"><ele>905.3333333333333</ele><time>2026-04-06T11:36:52.197Z</time></trkpt><trkpt lat="40.7034218" lon="15.1751824"><ele>904.1666666666666</ele><time>2026-04-06T11:36:54.197Z</time></trkpt><trkpt lat="40.7033581" lon="15.1752507"><ele>903.0</ele><time>2026-04-06T11:36:57.197Z</time></trkpt><trkpt lat="40.7032952" lon="15.1753261"><ele>903.0</ele><time>2026-04-06T11:37:00.197Z</time></trkpt><trkpt lat="40.7032376" lon="15.1753605"><ele>903.0</ele><time>2026-04-06T11:37:02.197Z</time></trkpt><trkpt lat="40.7032059" lon="15.1754489"><ele>903.0</ele><time>2026-04-06T11:37:04.198Z</time></trkpt><trkpt lat="40.7031479" lon="15.1755205"><ele>903.0</ele><time>2026-04-06T11:37:06.197Z</time></trkpt><trkpt lat="40.7030423" lon="15.1755863"><ele>903.0</ele><time>2026-04-06T11:37:08.197Z</time></trkpt><trkpt lat="40.7029212" lon="15.1755877"><ele>903.0</ele><time>2026-04-06T11:37:10.197Z</time></trkpt><trkpt lat="40.702857" lon="15.1755994"><ele>903.0</ele><time>2026-04-06T11:37:11.197Z</time></trkpt><trkpt lat="40.7027583" lon="15.1756543"><ele>903.0</ele><time>2026-04-06T11:37:13.197Z</time></trkpt><trkpt lat="40.7026595" lon="15.1756973"><ele>903.0</ele><time>2026-04-06T11:37:15.197Z</time></trkpt><trkpt lat="40.7025649" lon="15.1757454"><ele>903.0</ele><time>2026-04-06T11:37:17.197Z</time></trkpt><trkpt lat="40.7024889" lon="15.1758087"><ele>902.5714285714286</ele><time>2026-04-06T11:37:19.197Z</time></trkpt><trkpt lat="40.702436" lon="15.1758673"><ele>902.1428571428571</ele><time>2026-04-06T11:37:21.197Z</time></trkpt><trkpt lat="40.7023601" lon="15.1759068"><ele>901.7142857142858</ele><time>2026-04-06T11:37:24.197Z</time></trkpt><trkpt lat="40.7022983" lon="15.1759653"><ele>901.2857142857143</ele><time>2026-04-06T11:37:27.197Z</time></trkpt><trkpt lat="40.70224" lon="15.1760002"><ele>900.8571428571429</ele><time>2026-04-06T11:37:31.197Z</time></trkpt><trkpt lat="40.7021761" lon="15.176028"><ele>900.4285714285716</ele><time>2026-04-06T11:37:43.197Z</time></trkpt><trkpt lat="40.7021176" lon="15.175997"><ele>900.0000000000001</ele><time>2026-04-06T11:37:50.198Z</time></trkpt><trkpt lat="40.7020528" lon="15.1759658"><ele>900.0000000000001</ele><time>2026-04-06T11:37:55.197Z</time></trkpt><trkpt lat="40.7019745" lon="15.1759757"><ele>900.0</ele><time>2026-04-06T11:38:02.197Z</time></trkpt><trkpt lat="40.7019031" lon="15.1759996"><ele>900.0000000000001</ele><time>2026-04-06T11:38:17.197Z</time></trkpt><trkpt lat="40.7018398" lon="15.1760119"><ele>900.0000000000001</ele><time>2026-04-06T11:38:23.197Z</time></trkpt><trkpt lat="40.7017702" lon="15.1760192"><ele>900.0</ele><time>2026-04-06T11:38:28.198Z</time></trkpt><trkpt lat="40.7017" lon="15.1759921"><ele>900.0000000000001</ele><time>2026-04-06T11:38:33.197Z</time></trkpt><trkpt lat="40.7016452" lon="15.1759442"><ele>900.0000000000001</ele><time>2026-04-06T11:38:36.197Z</time></trkpt><trkpt lat="40.7015852" lon="15.1758641"><ele>899.6666666666666</ele><time>2026-04-06T11:38:39.197Z</time></trkpt><trkpt lat="40.7015463" lon="15.175785"><ele>899.3333333333333</ele><time>2026-04-06T11:38:42.197Z</time></trkpt><trkpt lat="40.701484" lon="15.1758002"><ele>899.0</ele><time>2026-04-06T11:38:48.197Z</time></trkpt><trkpt lat="40.7014077" lon="15.1758332"><ele>898.6666666666666</ele><time>2026-04-06T11:38:57.206Z</time></trkpt><trkpt lat="40.7013236" lon="15.175897"><ele>898.3333333333333</ele><time>2026-04-06T11:38:59.207Z</time></trkpt><trkpt lat="40.7012247" lon="15.1759998"><ele>898.0</ele><time>2026-04-06T11:39:01.206Z</time></trkpt><trkpt lat="40.7011638" lon="15.1760571"><ele>897.9999999999999</ele><time>2026-04-06T11:39:02.206Z</time></trkpt><trkpt lat="40.7011018" lon="15.1761696"><ele>898.0</ele><time>2026-04-06T11:39:04.206Z</time></trkpt><trkpt lat="40.7010636" lon="15.176254"><ele>898.0</ele><time>2026-04-06T11:39:06.206Z</time></trkpt><trkpt lat="40.7009901" lon="15.1762816"><ele>898.0</ele><time>2026-04-06T11:39:08.206Z</time></trkpt><trkpt lat="40.7009043" lon="15.1763036"><ele>897.9999999999999</ele><time>2026-04-06T11:39:10.206Z</time></trkpt><trkpt lat="40.7008252" lon="15.1763184"><ele>898.0</ele><time>2026-04-06T11:39:11.206Z</time></trkpt><trkpt lat="40.700721" lon="15.1763795"><ele>899.5999999999999</ele><time>2026-04-06T11:39:13.205Z</time></trkpt><trkpt lat="40.7006646" lon="15.1764335"><ele>901.1999999999999</ele><time>2026-04-06T11:39:14.205Z</time></trkpt><trkpt lat="40.7006092" lon="15.1765045"><ele>902.8</ele><time>2026-04-06T11:39:15.205Z</time></trkpt><trkpt lat="40.7005257" lon="15.1766196"><ele>904.4</ele><time>2026-04-06T11:39:17.205Z</time></trkpt><trkpt lat="40.7004673" lon="15.1767032"><ele>906.0</ele><time>2026-04-06T11:39:19.205Z</time></trkpt><trkpt lat="40.7003815" lon="15.1767605"><ele>902.6666666666666</ele><time>2026-04-06T11:39:22.205Z</time></trkpt><trkpt lat="40.7003166" lon="15.1767689"><ele>899.3333333333333</ele><time>2026-04-06T11:39:24.205Z</time></trkpt><trkpt lat="40.7002398" lon="15.1767806"><ele>896.0</ele><time>2026-04-06T11:39:26.205Z</time></trkpt><trkpt lat="40.7001778" lon="15.1768102"><ele>892.6666666666666</ele><time>2026-04-06T11:39:27.206Z</time></trkpt><trkpt lat="40.7001097" lon="15.1768356"><ele>889.3333333333333</ele><time>2026-04-06T11:39:28.205Z</time></trkpt><trkpt lat="40.7000408" lon="15.1768717"><ele>886.0</ele><time>2026-04-06T11:39:29.205Z</time></trkpt><trkpt lat="40.6999403" lon="15.1769697"><ele>885.3333333333333</ele><time>2026-04-06T11:39:31.205Z</time></trkpt><trkpt lat="40.6998631" lon="15.1770684"><ele>884.6666666666666</ele><time>2026-04-06T11:39:33.205Z</time></trkpt><trkpt lat="40.6997958" lon="15.177159"><ele>884.0</ele><time>2026-04-06T11:39:35.205Z</time></trkpt><trkpt lat="40.6997305" lon="15.1772257"><ele>883.3333333333333</ele><time>2026-04-06T11:39:37.205Z</time></trkpt><trkpt lat="40.6996757" lon="15.1772999"><ele>882.6666666666666</ele><time>2026-04-06T11:39:39.205Z</time></trkpt><trkpt lat="40.6996208" lon="15.1773784"><ele>882.0</ele><time>2026-04-06T11:39:41.205Z</time></trkpt><trkpt lat="40.6995614" lon="15.1774595"><ele>879.8</ele><time>2026-04-06T11:39:43.205Z</time></trkpt><trkpt lat="40.6994982" lon="15.1775834"><ele>877.6</ele><time>2026-04-06T11:39:45.205Z</time></trkpt><trkpt lat="40.6994662" lon="15.1776566"><ele>875.3999999999999</ele><time>2026-04-06T11:39:46.205Z</time></trkpt><trkpt lat="40.6994799" lon="15.1778011"><ele>873.1999999999999</ele><time>2026-04-06T11:39:48.205Z</time></trkpt><trkpt lat="40.6995395" lon="15.1779184"><ele>871.0</ele><time>2026-04-06T11:39:50.205Z</time></trkpt><trkpt lat="40.6996021" lon="15.1780388"><ele>871.0</ele><time>2026-04-06T11:39:52.205Z</time></trkpt><trkpt lat="40.699682" lon="15.1781093"><ele>870.9999999999999</ele><time>2026-04-06T11:39:54.205Z</time></trkpt><trkpt lat="40.6997563" lon="15.1782025"><ele>870.9999999999999</ele><time>2026-04-06T11:39:56.205Z</time></trkpt><trkpt lat="40.6998351" lon="15.1782604"><ele>871.0</ele><time>2026-04-06T11:39:58.205Z</time></trkpt><trkpt lat="40.6999243" lon="15.1783105"><ele>871.0</ele><time>2026-04-06T11:40:00.205Z</time></trkpt><trkpt lat="40.6999793" lon="15.1783713"><ele>869.9999999999999</ele><time>2026-04-06T11:40:02.205Z</time></trkpt><trkpt lat="40.7000294" lon="15.1784366"><ele>869.0</ele><time>2026-04-06T11:40:04.206Z</time></trkpt><trkpt lat="40.7000468" lon="15.1785295"><ele>868.0</ele><time>2026-04-06T11:40:06.205Z</time></trkpt><trkpt lat="40.7000367" lon="15.1786459"><ele>867.0</ele><time>2026-04-06T11:40:09.205Z</time></trkpt><trkpt lat="40.7000872" lon="15.1787097"><ele>865.9999999999999</ele><time>2026-04-06T11:40:11.205Z</time></trkpt><trkpt lat="40.7001749" lon="15.1787481"><ele>865.0</ele><time>2026-04-06T11:40:14.205Z</time></trkpt><trkpt lat="40.7002302" lon="15.1788052"><ele>864.9999999999999</ele><time>2026-04-06T11:40:17.205Z</time></trkpt><trkpt lat="40.7003" lon="15.1787648"><ele>865.0</ele><time>2026-04-06T11:40:21.205Z</time></trkpt><trkpt lat="40.7003579" lon="15.1786853"><ele>865.0</ele><time>2026-04-06T11:40:24.206Z</time></trkpt><trkpt lat="40.7003761" lon="15.1785846"><ele>865.0</ele><time>2026-04-06T11:40:26.206Z</time></trkpt><trkpt lat="40.7003843" lon="15.1784819"><ele>864.9999999999999</ele><time>2026-04-06T11:40:29.205Z</time></trkpt><trkpt lat="40.7003234" lon="15.1785176"><ele>865.0</ele><time>2026-04-06T11:40:45.205Z</time></trkpt><trkpt lat="40.7001925" lon="15.1786088"><ele>865.0</ele><time>2026-04-06T11:40:58.205Z</time></trkpt><trkpt lat="40.7001305" lon="15.1785931"><ele>865.0</ele><time>2026-04-06T11:41:03.229Z</time></trkpt><trkpt lat="40.7000898" lon="15.1785252"><ele>865.0</ele><time>2026-04-06T11:41:12.182Z</time></trkpt><trkpt lat="40.7001001" lon="15.1784296"><ele>865.0</ele><time>2026-04-06T11:41:19.544Z</time></trkpt><trkpt lat="40.7001698" lon="15.178461"><ele>865.0</ele><time>2026-04-06T11:42:47.206Z</time></trkpt><trkpt lat="40.7002355" lon="15.1784767"><ele>865.0</ele><time>2026-04-06T11:43:29.154Z</time></trkpt><trkpt lat="40.70031" lon="15.1784852"><ele>865.0</ele><time>2026-04-06T11:43:33.223Z</time></trkpt><trkpt lat="40.700375" lon="15.1784959"><ele>866.4285714285714</ele><time>2026-04-06T11:43:39.213Z</time></trkpt><trkpt lat="40.7004294" lon="15.1784528"><ele>867.8571428571429</ele><time>2026-04-06T11:43:59.205Z</time></trkpt><trkpt lat="40.7005272" lon="15.1784411"><ele>869.2857142857142</ele><time>2026-04-06T11:45:03.205Z</time></trkpt><trkpt lat="40.7004564" lon="15.1784409"><ele>870.7142857142858</ele><time>2026-04-06T11:45:23.237Z</time></trkpt><trkpt lat="40.7004039" lon="15.1784881"><ele>872.1428571428571</ele><time>2026-04-06T11:45:28.221Z</time></trkpt><trkpt lat="40.7003357" lon="15.1785048"><ele>873.5714285714286</ele><time>2026-04-06T11:45:34.307Z</time></trkpt><trkpt lat="40.7002792" lon="15.17845"><ele>875.0</ele><time>2026-04-06T11:45:39.215Z</time></trkpt><trkpt lat="40.7003129" lon="15.1783692"><ele>875.0</ele><time>2026-04-06T11:46:07.215Z</time></trkpt><trkpt lat="40.7002959" lon="15.1784522"><ele>875.0</ele><time>2026-04-06T11:46:37.173Z</time></trkpt><trkpt lat="40.7002382" lon="15.1785046"><ele>875.0</ele><time>2026-04-06T11:47:33.234Z</time></trkpt><trkpt lat="40.7002426" lon="15.1784194"><ele>875.0</ele><time>2026-04-06T11:47:42.214Z</time></trkpt><trkpt lat="40.7001962" lon="15.1783567"><ele>875.0</ele><time>2026-04-06T11:50:50.216Z</time></trkpt><trkpt lat="40.700186" lon="15.1784442"><ele>875.0</ele><time>2026-04-06T11:51:38.214Z</time></trkpt><trkpt lat="40.7002559" lon="15.1784333"><ele>875.0</ele><time>2026-04-06T11:53:04.223Z</time></trkpt><trkpt lat="40.7002744" lon="15.1783449"><ele>873.3333333333334</ele><time>2026-04-06T11:53:15.223Z</time></trkpt><trkpt lat="40.7002131" lon="15.1783207"><ele>871.6666666666667</ele><time>2026-04-06T11:58:51.244Z</time></trkpt><trkpt lat="40.7001686" lon="15.1783993"><ele>870.0</ele><time>2026-04-06T11:58:58.238Z</time></trkpt><trkpt lat="40.7001669" lon="15.1784891"><ele>868.3333333333333</ele><time>2026-04-06T11:59:05.233Z</time></trkpt><trkpt lat="40.7001123" lon="15.1785318"><ele>866.6666666666666</ele><time>2026-04-06T11:59:19.231Z</time></trkpt><trkpt lat="40.7000134" lon="15.1784197"><ele>865.0</ele><time>2026-04-06T11:59:38.231Z</time></trkpt><trkpt lat="40.7001342" lon="15.1784045"><ele>864.9999999999999</ele><time>2026-04-06T11:59:58.251Z</time></trkpt><trkpt lat="40.7002429" lon="15.178436"><ele>865.0</ele><time>2026-04-06T12:06:43.174Z</time></trkpt><trkpt lat="40.7001842" lon="15.1784051"><ele>865.0</ele><time>2026-04-06T12:09:05.253Z</time></trkpt><trkpt lat="40.7002367" lon="15.1783232"><ele>865.0</ele><time>2026-04-06T12:12:05.238Z</time></trkpt><trkpt lat="40.7001781" lon="15.1783874"><ele>864.9999999999999</ele><time>2026-04-06T12:12:21.246Z</time></trkpt><trkpt lat="40.7001311" lon="15.1784433"><ele>865.0</ele><time>2026-04-06T12:12:28.247Z</time></trkpt><trkpt lat="40.700125" lon="15.1785299"><ele>865.0</ele><time>2026-04-06T12:12:39.262Z</time></trkpt><trkpt lat="40.7001888" lon="15.1785293"><ele>865.0</ele><time>2026-04-06T12:13:33.246Z</time></trkpt><trkpt lat="40.7002057" lon="15.1784193"><ele>865.0</ele><time>2026-04-06T12:14:12.246Z</time></trkpt><trkpt lat="40.7002766" lon="15.1783821"><ele>865.0</ele><time>2026-04-06T12:20:10.255Z</time></trkpt><trkpt lat="40.7002233" lon="15.178428"><ele>865.0</ele><time>2026-04-06T12:21:05.255Z</time></trkpt><trkpt lat="40.7002076" lon="15.1783419"><ele>865.0</ele><time>2026-04-06T12:21:48.255Z</time></trkpt><trkpt lat="40.7001592" lon="15.1782857"><ele>865.0</ele><time>2026-04-06T12:23:08.255Z</time></trkpt><trkpt lat="40.7001067" lon="15.1783519"><ele>865.0</ele><time>2026-04-06T12:23:31.255Z</time></trkpt><trkpt lat="40.7000753" lon="15.1784283"><ele>865.0</ele><time>2026-04-06T12:23:38.255Z</time></trkpt><trkpt lat="40.7002657" lon="15.178434"><ele>865.0</ele><time>2026-04-06T12:24:19.255Z</time></trkpt><trkpt lat="40.7001896" lon="15.178512"><ele>865.0</ele><time>2026-04-06T12:24:43.255Z</time></trkpt><trkpt lat="40.7002215" lon="15.1784389"><ele>865.0</ele><time>2026-04-06T12:25:24.304Z</time></trkpt><trkpt lat="40.7002877" lon="15.1784463"><ele>864.9999999999999</ele><time>2026-04-06T12:26:12.268Z</time></trkpt><trkpt lat="40.7002913" lon="15.178353"><ele>865.0</ele><time>2026-04-06T12:26:28.262Z</time></trkpt><trkpt lat="40.7002414" lon="15.1784106"><ele>865.0</ele><time>2026-04-06T12:26:45.262Z</time></trkpt><trkpt lat="40.7001861" lon="15.1785034"><ele>865.0</ele><time>2026-04-06T12:28:27.261Z</time></trkpt><trkpt lat="40.700147" lon="15.1785704"><ele>864.9999999999999</ele><time>2026-04-06T12:28:55.261Z</time></trkpt><trkpt lat="40.7001454" lon="15.1784317"><ele>865.0</ele><time>2026-04-06T12:30:45.261Z</time></trkpt><trkpt lat="40.7001979" lon="15.1783834"><ele>865.0</ele><time>2026-04-06T12:33:01.297Z</time></trkpt><trkpt lat="40.7001339" lon="15.1784017"><ele>865.0</ele><time>2026-04-06T12:34:39.27Z</time></trkpt><trkpt lat="40.7001395" lon="15.1784899"><ele>865.0</ele><time>2026-04-06T12:35:29.311Z</time></trkpt><trkpt lat="40.7001501" lon="15.1785733"><ele>865.0</ele><time>2026-04-06T12:35:41.273Z</time></trkpt><trkpt lat="40.7002088" lon="15.1785313"><ele>865.0</ele><time>2026-04-06T12:36:08.239Z</time></trkpt><trkpt lat="40.7002536" lon="15.1785926"><ele>865.0</ele><time>2026-04-06T12:36:17.146Z</time></trkpt><trkpt lat="40.7002768" lon="15.1784929"><ele>865.0</ele><time>2026-04-06T12:38:17.287Z</time></trkpt><trkpt lat="40.7002059" lon="15.1784875"><ele>865.0</ele><time>2026-04-06T12:38:28.269Z</time></trkpt><trkpt lat="40.700233" lon="15.178399"><ele>865.0</ele><time>2026-04-06T12:40:26.277Z</time></trkpt><trkpt lat="40.7002823" lon="15.178329"><ele>865.0</ele><time>2026-04-06T12:40:32.277Z</time></trkpt><trkpt lat="40.700335" lon="15.1782785"><ele>865.0</ele><time>2026-04-06T12:40:41.277Z</time></trkpt><trkpt lat="40.7003726" lon="15.178356"><ele>865.0</ele><time>2026-04-06T12:41:03.277Z</time></trkpt><trkpt lat="40.7003718" lon="15.1784472"><ele>865.0</ele><time>2026-04-06T12:41:10.277Z</time></trkpt><trkpt lat="40.7003912" lon="15.1785269"><ele>865.0</ele><time>2026-04-06T12:41:20.292Z</time></trkpt><trkpt lat="40.7003294" lon="15.1785508"><ele>865.0</ele><time>2026-04-06T12:41:42.289Z</time></trkpt><trkpt lat="40.7002615" lon="15.1785435"><ele>865.0</ele><time>2026-04-06T12:41:47.216Z</time></trkpt><trkpt lat="40.7001958" lon="15.178524"><ele>865.0</ele><time>2026-04-06T12:41:51.277Z</time></trkpt><trkpt lat="40.7002115" lon="15.1784382"><ele>865.0</ele><time>2026-04-06T12:42:09.277Z</time></trkpt><trkpt lat="40.7002493" lon="15.1783596"><ele>865.0</ele><time>2026-04-06T12:42:19.277Z</time></trkpt><trkpt lat="40.7002697" lon="15.1782786"><ele>865.0</ele><time>2026-04-06T12:42:28.277Z</time></trkpt><trkpt lat="40.7002428" lon="15.1781983"><ele>865.0</ele><time>2026-04-06T12:42:37.277Z</time></trkpt><trkpt lat="40.7002796" lon="15.1782702"><ele>865.0</ele><time>2026-04-06T12:42:56.317Z</time></trkpt><trkpt lat="40.7002312" lon="15.1783234"><ele>865.0</ele><time>2026-04-06T12:43:13.277Z</time></trkpt><trkpt lat="40.7001855" lon="15.1784111"><ele>865.0</ele><time>2026-04-06T12:44:18.277Z</time></trkpt><trkpt lat="40.7002422" lon="15.1783592"><ele>865.0</ele><time>2026-04-06T12:44:59.285Z</time></trkpt><trkpt lat="40.7003035" lon="15.1783277"><ele>865.0</ele><time>2026-04-06T12:46:42.285Z</time></trkpt><trkpt lat="40.7002279" lon="15.1783753"><ele>865.0</ele><time>2026-04-06T12:46:56.285Z</time></trkpt><trkpt lat="40.7001728" lon="15.1783346"><ele>865.0</ele><time>2026-04-06T12:47:09.285Z</time></trkpt><trkpt lat="40.7001191" lon="15.1783929"><ele>865.0</ele><time>2026-04-06T12:47:58.312Z</time></trkpt><trkpt lat="40.7001827" lon="15.1783648"><ele>865.0</ele><time>2026-04-06T12:49:41.309Z</time></trkpt><trkpt lat="40.7002291" lon="15.1784757"><ele>865.0</ele><time>2026-04-06T12:54:19.293Z</time></trkpt><trkpt lat="40.7002534" lon="15.1783961"><ele>865.0</ele><time>2026-04-06T12:56:07.282Z</time></trkpt><trkpt lat="40.7002" lon="15.1784431"><ele>865.0</ele><time>2026-04-06T12:56:51.276Z</time></trkpt><trkpt lat="40.7001851" lon="15.178532"><ele>865.0</ele><time>2026-04-06T12:57:11.315Z</time></trkpt><trkpt lat="40.7002389" lon="15.1784802"><ele>865.0</ele><time>2026-04-06T12:57:56.293Z</time></trkpt><trkpt lat="40.7001749" lon="15.1784478"><ele>865.0</ele><time>2026-04-06T12:58:49.292Z</time></trkpt><trkpt lat="40.7001068" lon="15.1784269"><ele>865.0</ele><time>2026-04-06T12:58:58.292Z</time></trkpt><trkpt lat="40.7001788" lon="15.1784211"><ele>865.0</ele><time>2026-04-06T13:00:25.301Z</time></trkpt><trkpt lat="40.7002319" lon="15.1784684"><ele>865.0</ele><time>2026-04-06T13:02:46.301Z</time></trkpt><trkpt lat="40.7002027" lon="15.1783931"><ele>865.0</ele><time>2026-04-06T13:03:09.272Z</time></trkpt><trkpt lat="40.7001508" lon="15.1784641"><ele>865.0</ele><time>2026-04-06T13:06:35.31Z</time></trkpt><trkpt lat="40.7002153" lon="15.1784793"><ele>865.0</ele><time>2026-04-06T13:08:17.31Z</time></trkpt><trkpt lat="40.7001847" lon="15.1785671"><ele>865.0</ele><time>2026-04-06T13:08:46.311Z</time></trkpt><trkpt lat="40.7001918" lon="15.178483"><ele>865.0</ele><time>2026-04-06T13:09:52.31Z</time></trkpt><trkpt lat="40.7001416" lon="15.1784167"><ele>865.0</ele><time>2026-04-06T13:10:48.314Z</time></trkpt><trkpt lat="40.7002075" lon="15.1784073"><ele>865.0</ele><time>2026-04-06T13:11:33.32Z</time></trkpt><trkpt lat="40.7001395" lon="15.1784619"><ele>865.0</ele><time>2026-04-06T13:15:21.35Z</time></trkpt><trkpt lat="40.7001939" lon="15.1785098"><ele>865.0</ele><time>2026-04-06T13:16:23.184Z</time></trkpt><trkpt lat="40.7001824" lon="15.1783991"><ele>865.0</ele><time>2026-04-06T13:17:20.362Z</time></trkpt><trkpt lat="40.7001685" lon="15.1785098"><ele>865.0</ele><time>2026-04-06T13:20:11.327Z</time></trkpt><trkpt lat="40.7002127" lon="15.1784485"><ele>865.0</ele><time>2026-04-06T13:20:46.261Z</time></trkpt><trkpt lat="40.7002665" lon="15.1783922"><ele>865.0</ele><time>2026-04-06T13:22:16.326Z</time></trkpt><trkpt lat="40.7002066" lon="15.1783655"><ele>865.0</ele><time>2026-04-06T13:23:24.316Z</time></trkpt><trkpt lat="40.7001377" lon="15.1784482"><ele>865.0</ele><time>2026-04-06T13:23:53.326Z</time></trkpt><trkpt lat="40.7001928" lon="15.1784005"><ele>865.0</ele><time>2026-04-06T13:24:49.326Z</time></trkpt><trkpt lat="40.7001583" lon="15.1783285"><ele>865.0</ele><time>2026-04-06T13:26:34.335Z</time></trkpt><trkpt lat="40.7002107" lon="15.1782784"><ele>865.0</ele><time>2026-04-06T13:26:45.354Z</time></trkpt><trkpt lat="40.7002059" lon="15.1783641"><ele>865.0</ele><time>2026-04-06T13:27:42.335Z</time></trkpt><trkpt lat="40.7002546" lon="15.1784202"><ele>865.0</ele><time>2026-04-06T13:28:06.344Z</time></trkpt><trkpt lat="40.7002666" lon="15.1785079"><ele>865.0</ele><time>2026-04-06T13:28:22.36Z</time></trkpt><trkpt lat="40.7001991" lon="15.1785208"><ele>865.0</ele><time>2026-04-06T13:29:05.338Z</time></trkpt><trkpt lat="40.7002084" lon="15.1784348"><ele>865.0</ele><time>2026-04-06T13:29:20.339Z</time></trkpt><trkpt lat="40.7002302" lon="15.1783532"><ele>865.0</ele><time>2026-04-06T13:29:30.335Z</time></trkpt><trkpt lat="40.7001823" lon="15.1784072"><ele>864.9999999999999</ele><time>2026-04-06T13:30:21.359Z</time></trkpt><trkpt lat="40.7001296" lon="15.1784529"><ele>865.0</ele><time>2026-04-06T13:30:31.335Z</time></trkpt><trkpt lat="40.7001907" lon="15.1785099"><ele>865.0</ele><time>2026-04-06T13:30:48.336Z</time></trkpt><trkpt lat="40.7002422" lon="15.1784163"><ele>865.0</ele><time>2026-04-06T13:31:40.335Z</time></trkpt><trkpt lat="40.7001892" lon="15.1784741"><ele>864.9999999999999</ele><time>2026-04-06T13:32:28.343Z</time></trkpt><trkpt lat="40.7001861" lon="15.1785748"><ele>865.0</ele><time>2026-04-06T13:32:49.361Z</time></trkpt><trkpt lat="40.7002565" lon="15.1785084"><ele>864.9999999999999</ele><time>2026-04-06T13:34:48.358Z</time></trkpt><trkpt lat="40.7001977" lon="15.1784746"><ele>865.0</ele><time>2026-04-06T13:35:08.343Z</time></trkpt><trkpt lat="40.7001615" lon="15.1783962"><ele>865.0</ele><time>2026-04-06T13:35:21.402Z</time></trkpt><trkpt lat="40.7002691" lon="15.1784208"><ele>865.0</ele><time>2026-04-06T13:37:27.324Z</time></trkpt><trkpt lat="40.7002027" lon="15.178413"><ele>864.9999999999999</ele><time>2026-04-06T13:39:20.358Z</time></trkpt><trkpt lat="40.7001419" lon="15.1783846"><ele>865.0</ele><time>2026-04-06T13:39:55.352Z</time></trkpt><trkpt lat="40.7002691" lon="15.1786748"><ele>865.0</ele><time>2026-04-06T13:40:34.352Z</time></trkpt><trkpt lat="40.7002676" lon="15.1785882"><ele>865.0</ele><time>2026-04-06T13:40:50.352Z</time></trkpt><trkpt lat="40.7002425" lon="15.1785105"><ele>865.0</ele><time>2026-04-06T13:40:52.352Z</time></trkpt><trkpt lat="40.7001652" lon="15.1785296"><ele>865.0</ele><time>2026-04-06T13:41:47.353Z</time></trkpt><trkpt lat="40.7000933" lon="15.1785012"><ele>865.0</ele><time>2026-04-06T13:41:51.352Z</time></trkpt><trkpt lat="40.700027" lon="15.1784483"><ele>865.0</ele><time>2026-04-06T13:41:56.36Z</time></trkpt><trkpt lat="40.6999651" lon="15.1784092"><ele>865.0</ele><time>2026-04-06T13:42:02.352Z</time></trkpt><trkpt lat="40.7000281" lon="15.1783943"><ele>865.0</ele><time>2026-04-06T13:42:27.377Z</time></trkpt><trkpt lat="40.7000912" lon="15.1783826"><ele>865.0</ele><time>2026-04-06T13:42:30.352Z</time></trkpt><trkpt lat="40.7001542" lon="15.178366"><ele>865.0</ele><time>2026-04-06T13:42:34.37Z</time></trkpt><trkpt lat="40.7002183" lon="15.1783437"><ele>865.0</ele><time>2026-04-06T13:42:47.352Z</time></trkpt><trkpt lat="40.7002857" lon="15.1783782"><ele>865.0</ele><time>2026-04-06T13:43:29.409Z</time></trkpt><trkpt lat="40.700329" lon="15.1784523"><ele>865.0</ele><time>2026-04-06T13:43:32.357Z</time></trkpt><trkpt lat="40.7003821" lon="15.1785252"><ele>865.0</ele><time>2026-04-06T13:43:47.358Z</time></trkpt><trkpt lat="40.7003059" lon="15.17851"><ele>865.0</ele><time>2026-04-06T13:46:37.363Z</time></trkpt><trkpt lat="40.7002572" lon="15.1784513"><ele>865.0</ele><time>2026-04-06T13:46:42.266Z</time></trkpt><trkpt lat="40.7002133" lon="15.1783867"><ele>865.0</ele><time>2026-04-06T13:46:51.343Z</time></trkpt><trkpt lat="40.700217" lon="15.1782958"><ele>865.0</ele><time>2026-04-06T13:47:00.364Z</time></trkpt><trkpt lat="40.700209" lon="15.1783801"><ele>865.0</ele><time>2026-04-06T13:47:17.393Z</time></trkpt><trkpt lat="40.7002176" lon="15.1784648"><ele>865.0</ele><time>2026-04-06T13:48:27.362Z</time></trkpt><trkpt lat="40.700201" lon="15.1785497"><ele>865.0</ele><time>2026-04-06T13:49:11.362Z</time></trkpt><trkpt lat="40.7002012" lon="15.1786358"><ele>866.4285714285714</ele><time>2026-04-06T13:49:24.406Z</time></trkpt><trkpt lat="40.7002775" lon="15.1786602"><ele>867.8571428571429</ele><time>2026-04-06T13:49:29.373Z</time></trkpt><trkpt lat="40.7003477" lon="15.178662"><ele>869.2857142857142</ele><time>2026-04-06T13:49:34.362Z</time></trkpt><trkpt lat="40.700415" lon="15.1786507"><ele>870.7142857142858</ele><time>2026-04-06T13:49:40.362Z</time></trkpt><trkpt lat="40.7003795" lon="15.1785755"><ele>872.1428571428571</ele><time>2026-04-06T13:50:25.362Z</time></trkpt><trkpt lat="40.7003253" lon="15.1786397"><ele>873.5714285714286</ele><time>2026-04-06T13:52:24.397Z</time></trkpt><trkpt lat="40.7003865" lon="15.1786119"><ele>875.0</ele><time>2026-04-06T13:52:35.385Z</time></trkpt><trkpt lat="40.7003925" lon="15.1785286"><ele>875.0</ele><time>2026-04-06T13:54:55.369Z</time></trkpt><trkpt lat="40.7003304" lon="15.1785436"><ele>875.0</ele><time>2026-04-06T13:57:02.37Z</time></trkpt><trkpt lat="40.7002648" lon="15.1785725"><ele>875.0</ele><time>2026-04-06T13:57:08.369Z</time></trkpt><trkpt lat="40.7002252" lon="15.1784979"><ele>875.0</ele><time>2026-04-06T13:57:15.369Z</time></trkpt><trkpt lat="40.7002964" lon="15.1785185"><ele>875.0</ele><time>2026-04-06T13:58:16.369Z</time></trkpt><trkpt lat="40.7003605" lon="15.17855"><ele>875.0</ele><time>2026-04-06T13:58:21.369Z</time></trkpt><trkpt lat="40.7004215" lon="15.178583"><ele>875.0</ele><time>2026-04-06T13:58:27.405Z</time></trkpt><trkpt lat="40.7002784" lon="15.1784778"><ele>875.0</ele><time>2026-04-06T14:02:05.377Z</time></trkpt><trkpt lat="40.7002686" lon="15.1783848"><ele>875.0</ele><time>2026-04-06T14:02:42.377Z</time></trkpt><trkpt lat="40.700312" lon="15.178445"><ele>875.0</ele><time>2026-04-06T14:03:49.377Z</time></trkpt><trkpt lat="40.7002661" lon="15.1785302"><ele>875.0</ele><time>2026-04-06T14:04:38.377Z</time></trkpt><trkpt lat="40.7003257" lon="15.17858"><ele>875.0</ele><time>2026-04-06T14:07:24.312Z</time></trkpt><trkpt lat="40.7002678" lon="15.1785403"><ele>875.0</ele><time>2026-04-06T14:08:30.389Z</time></trkpt><trkpt lat="40.7002913" lon="15.1784573"><ele>875.0</ele><time>2026-04-06T14:09:09.413Z</time></trkpt><trkpt lat="40.700351" lon="15.1784973"><ele>875.0</ele><time>2026-04-06T14:09:14.386Z</time></trkpt><trkpt lat="40.7004159" lon="15.1784594"><ele>875.0</ele><time>2026-04-06T14:09:20.386Z</time></trkpt><trkpt lat="40.7004755" lon="15.1784268"><ele>875.0</ele><time>2026-04-06T14:09:28.386Z</time></trkpt><trkpt lat="40.7004233" lon="15.1784846"><ele>875.0</ele><time>2026-04-06T14:09:58.387Z</time></trkpt><trkpt lat="40.7003747" lon="15.1785441"><ele>875.0</ele><time>2026-04-06T14:10:07.408Z</time></trkpt><trkpt lat="40.7003238" lon="15.1784764"><ele>875.0</ele><time>2026-04-06T14:10:13.348Z</time></trkpt><trkpt lat="40.7002752" lon="15.1784129"><ele>875.0</ele><time>2026-04-06T14:10:20.387Z</time></trkpt><trkpt lat="40.7002472" lon="15.178494"><ele>875.0</ele><time>2026-04-06T14:15:59.437Z</time></trkpt><trkpt lat="40.7003005" lon="15.1785411"><ele>875.0</ele><time>2026-04-06T14:16:22.355Z</time></trkpt><trkpt lat="40.7003645" lon="15.1785629"><ele>875.0</ele><time>2026-04-06T14:16:26.397Z</time></trkpt><trkpt lat="40.7004302" lon="15.1785192"><ele>875.0</ele><time>2026-04-06T14:17:13.429Z</time></trkpt><trkpt lat="40.7004904" lon="15.1784607"><ele>875.0</ele><time>2026-04-06T14:17:19.426Z</time></trkpt><trkpt lat="40.7005446" lon="15.1784152"><ele>875.0</ele><time>2026-04-06T14:17:25.324Z</time></trkpt><trkpt lat="40.7005874" lon="15.1783509"><ele>875.0</ele><time>2026-04-06T14:17:39.419Z</time></trkpt><trkpt lat="40.7006292" lon="15.1782791"><ele>875.0</ele><time>2026-04-06T14:17:50.394Z</time></trkpt><trkpt lat="40.7005831" lon="15.1783441"><ele>875.0</ele><time>2026-04-06T14:18:18.394Z</time></trkpt><trkpt lat="40.7005372" lon="15.1784134"><ele>875.0</ele><time>2026-04-06T14:18:23.337Z</time></trkpt><trkpt lat="40.7005007" lon="15.1784821"><ele>875.0</ele><time>2026-04-06T14:18:29.394Z</time></trkpt><trkpt lat="40.7004294" lon="15.1785091"><ele>875.0</ele><time>2026-04-06T14:18:43.394Z</time></trkpt><trkpt lat="40.7004044" lon="15.1785941"><ele>875.0</ele><time>2026-04-06T14:18:51.379Z</time></trkpt><trkpt lat="40.7003675" lon="15.1785264"><ele>875.0</ele><time>2026-04-06T14:19:28.403Z</time></trkpt><trkpt lat="40.7003404" lon="15.1784461"><ele>875.0</ele><time>2026-04-06T14:20:00.427Z</time></trkpt><trkpt lat="40.7002735" lon="15.1784669"><ele>875.0</ele><time>2026-04-06T14:20:14.414Z</time></trkpt><trkpt lat="40.7002641" lon="15.1785612"><ele>875.0</ele><time>2026-04-06T14:20:18.403Z</time></trkpt><trkpt lat="40.7002818" lon="15.178832"><ele>875.0</ele><time>2026-04-06T14:20:33.403Z</time></trkpt><trkpt lat="40.700234" lon="15.1788931"><ele>875.0</ele><time>2026-04-06T14:20:36.403Z</time></trkpt><trkpt lat="40.7001552" lon="15.1789176"><ele>873.5714285714286</ele><time>2026-04-06T14:20:46.403Z</time></trkpt><trkpt lat="40.7000911" lon="15.1789187"><ele>872.1428571428571</ele><time>2026-04-06T14:20:48.403Z</time></trkpt><trkpt lat="40.7000271" lon="15.1789253"><ele>870.7142857142858</ele><time>2026-04-06T14:20:50.403Z</time></trkpt><trkpt lat="40.6999651" lon="15.1789691"><ele>869.2857142857142</ele><time>2026-04-06T14:20:53.403Z</time></trkpt><trkpt lat="40.6998808" lon="15.1790552"><ele>867.8571428571429</ele><time>2026-04-06T14:20:55.403Z</time></trkpt><trkpt lat="40.6998433" lon="15.1791356"><ele>866.4285714285714</ele><time>2026-04-06T14:20:56.404Z</time></trkpt><trkpt lat="40.6998206" lon="15.1792193"><ele>865.0</ele><time>2026-04-06T14:20:57.403Z</time></trkpt><trkpt lat="40.6997859" lon="15.1792967"><ele>864.8571428571429</ele><time>2026-04-06T14:20:58.403Z</time></trkpt><trkpt lat="40.6997627" lon="15.1793863"><ele>864.7142857142858</ele><time>2026-04-06T14:20:59.403Z</time></trkpt><trkpt lat="40.699756" lon="15.1794747"><ele>864.5714285714286</ele><time>2026-04-06T14:21:00.403Z</time></trkpt><trkpt lat="40.6997634" lon="15.1795587"><ele>864.4285714285714</ele><time>2026-04-06T14:21:01.404Z</time></trkpt><trkpt lat="40.6997808" lon="15.1796567"><ele>864.2857142857142</ele><time>2026-04-06T14:21:02.403Z</time></trkpt><trkpt lat="40.6998152" lon="15.1797395"><ele>864.1428571428571</ele><time>2026-04-06T14:21:03.403Z</time></trkpt><trkpt lat="40.6998583" lon="15.1798162"><ele>864.0</ele><time>2026-04-06T14:21:04.403Z</time></trkpt><trkpt lat="40.6999104" lon="15.1798737"><ele>865.3333333333334</ele><time>2026-04-06T14:21:05.403Z</time></trkpt><trkpt lat="40.6999679" lon="15.1799145"><ele>866.6666666666667</ele><time>2026-04-06T14:21:06.403Z</time></trkpt><trkpt lat="40.7000325" lon="15.1799443"><ele>868.0</ele><time>2026-04-06T14:21:07.403Z</time></trkpt><trkpt lat="40.7001017" lon="15.1799704"><ele>869.3333333333334</ele><time>2026-04-06T14:21:08.403Z</time></trkpt><trkpt lat="40.7002226" lon="15.1800155"><ele>870.6666666666667</ele><time>2026-04-06T14:21:10.403Z</time></trkpt><trkpt lat="40.7002846" lon="15.1800457"><ele>872.0</ele><time>2026-04-06T14:21:11.404Z</time></trkpt><trkpt lat="40.7003777" lon="15.1801289"><ele>872.0000000000001</ele><time>2026-04-06T14:21:13.404Z</time></trkpt><trkpt lat="40.7004571" lon="15.1801993"><ele>872.0</ele><time>2026-04-06T14:21:15.404Z</time></trkpt><trkpt lat="40.7005234" lon="15.180242"><ele>872.0</ele><time>2026-04-06T14:21:22.403Z</time></trkpt><trkpt lat="40.7005743" lon="15.1803034"><ele>872.0</ele><time>2026-04-06T14:21:25.403Z</time></trkpt><trkpt lat="40.7006344" lon="15.1803731"><ele>872.0000000000001</ele><time>2026-04-06T14:21:31.403Z</time></trkpt><trkpt lat="40.7007039" lon="15.1804883"><ele>872.0</ele><time>2026-04-06T14:21:33.403Z</time></trkpt><trkpt lat="40.7008073" lon="15.1806208"><ele>872.4000000000001</ele><time>2026-04-06T14:21:35.403Z</time></trkpt><trkpt lat="40.7008537" lon="15.1807075"><ele>872.8000000000001</ele><time>2026-04-06T14:21:36.403Z</time></trkpt><trkpt lat="40.7009029" lon="15.1807754"><ele>873.2</ele><time>2026-04-06T14:21:37.403Z</time></trkpt><trkpt lat="40.7009669" lon="15.1808047"><ele>873.6</ele><time>2026-04-06T14:21:38.403Z</time></trkpt><trkpt lat="40.7010888" lon="15.1808164"><ele>874.0</ele><time>2026-04-06T14:21:40.403Z</time></trkpt><trkpt lat="40.7012106" lon="15.1808517"><ele>874.1666666666666</ele><time>2026-04-06T14:21:42.403Z</time></trkpt><trkpt lat="40.7012768" lon="15.180849"><ele>874.3333333333333</ele><time>2026-04-06T14:21:43.404Z</time></trkpt><trkpt lat="40.701342" lon="15.1808427"><ele>874.5</ele><time>2026-04-06T14:21:44.403Z</time></trkpt><trkpt lat="40.701452" lon="15.1808473"><ele>874.6666666666667</ele><time>2026-04-06T14:21:46.403Z</time></trkpt><trkpt lat="40.7015452" lon="15.1808455"><ele>874.8333333333334</ele><time>2026-04-06T14:21:48.403Z</time></trkpt><trkpt lat="40.7016516" lon="15.1808414"><ele>875.0</ele><time>2026-04-06T14:21:50.403Z</time></trkpt><trkpt lat="40.7017614" lon="15.1808274"><ele>875.0</ele><time>2026-04-06T14:21:52.403Z</time></trkpt><trkpt lat="40.7018715" lon="15.1807769"><ele>875.0</ele><time>2026-04-06T14:21:54.403Z</time></trkpt><trkpt lat="40.7019621" lon="15.1807188"><ele>875.0</ele><time>2026-04-06T14:21:56.403Z</time></trkpt><trkpt lat="40.7020634" lon="15.1806776"><ele>875.0</ele><time>2026-04-06T14:21:58.403Z</time></trkpt><trkpt lat="40.7021618" lon="15.1806479"><ele>875.0</ele><time>2026-04-06T14:22:00.403Z</time></trkpt><trkpt lat="40.7022518" lon="15.1806269"><ele>875.8333333333334</ele><time>2026-04-06T14:22:02.403Z</time></trkpt><trkpt lat="40.7023432" lon="15.1806254"><ele>876.6666666666667</ele><time>2026-04-06T14:22:04.403Z</time></trkpt><trkpt lat="40.7024128" lon="15.1806083"><ele>877.5</ele><time>2026-04-06T14:22:06.403Z</time></trkpt><trkpt lat="40.7024742" lon="15.1805748"><ele>878.3333333333333</ele><time>2026-04-06T14:22:08.403Z</time></trkpt><trkpt lat="40.7025474" lon="15.1805453"><ele>879.1666666666666</ele><time>2026-04-06T14:22:10.403Z</time></trkpt><trkpt lat="40.7026253" lon="15.1805228"><ele>880.0</ele><time>2026-04-06T14:22:12.403Z</time></trkpt><trkpt lat="40.7027032" lon="15.1805125"><ele>880.1666666666666</ele><time>2026-04-06T14:22:14.403Z</time></trkpt><trkpt lat="40.7027856" lon="15.1805024"><ele>880.3333333333333</ele><time>2026-04-06T14:22:16.403Z</time></trkpt><trkpt lat="40.7028581" lon="15.1804814"><ele>880.5</ele><time>2026-04-06T14:22:18.403Z</time></trkpt><trkpt lat="40.7029413" lon="15.1804767"><ele>880.6666666666667</ele><time>2026-04-06T14:22:20.403Z</time></trkpt><trkpt lat="40.7030286" lon="15.180491"><ele>880.8333333333334</ele><time>2026-04-06T14:22:22.403Z</time></trkpt><trkpt lat="40.7031205" lon="15.1804841"><ele>881.0</ele><time>2026-04-06T14:22:24.403Z</time></trkpt><trkpt lat="40.7031956" lon="15.180435"><ele>881.0</ele><time>2026-04-06T14:22:26.403Z</time></trkpt><trkpt lat="40.7032787" lon="15.1803892"><ele>880.9999999999999</ele><time>2026-04-06T14:22:28.403Z</time></trkpt><trkpt lat="40.70339" lon="15.1803461"><ele>880.9999999999999</ele><time>2026-04-06T14:22:30.404Z</time></trkpt><trkpt lat="40.7034907" lon="15.1802854"><ele>881.0</ele><time>2026-04-06T14:22:32.403Z</time></trkpt><trkpt lat="40.7036009" lon="15.1802418"><ele>881.0</ele><time>2026-04-06T14:22:34.403Z</time></trkpt><trkpt lat="40.7037093" lon="15.1801765"><ele>882.0</ele><time>2026-04-06T14:22:36.403Z</time></trkpt><trkpt lat="40.7038179" lon="15.1800904"><ele>882.9999999999999</ele><time>2026-04-06T14:22:38.403Z</time></trkpt><trkpt lat="40.7039047" lon="15.180029"><ele>883.9999999999999</ele><time>2026-04-06T14:22:40.404Z</time></trkpt><trkpt lat="40.704003" lon="15.1799715"><ele>885.0</ele><time>2026-04-06T14:22:42.403Z</time></trkpt><trkpt lat="40.7040981" lon="15.1799295"><ele>886.0</ele><time>2026-04-06T14:22:44.403Z</time></trkpt><trkpt lat="40.7041804" lon="15.1799018"><ele>885.9999999999999</ele><time>2026-04-06T14:22:46.403Z</time></trkpt><trkpt lat="40.7042431" lon="15.1798916"><ele>886.0</ele><time>2026-04-06T14:22:54.403Z</time></trkpt><trkpt lat="40.7043121" lon="15.1799007"><ele>886.0</ele><time>2026-04-06T14:23:05.403Z</time></trkpt><trkpt lat="40.7043887" lon="15.1800124"><ele>886.0</ele><time>2026-04-06T14:23:11.403Z</time></trkpt><trkpt lat="40.7044309" lon="15.1800939"><ele>885.9999999999999</ele><time>2026-04-06T14:23:14.403Z</time></trkpt><trkpt lat="40.7044692" lon="15.1801738"><ele>886.0</ele><time>2026-04-06T14:23:19.403Z</time></trkpt><trkpt lat="40.7044546" lon="15.1802721"><ele>885.9999999999999</ele><time>2026-04-06T14:23:24.403Z</time></trkpt><trkpt lat="40.7043969" lon="15.1803359"><ele>886.0</ele><time>2026-04-06T14:23:27.403Z</time></trkpt><trkpt lat="40.7043563" lon="15.1804067"><ele>886.0</ele><time>2026-04-06T14:23:29.403Z</time></trkpt><trkpt lat="40.7043363" lon="15.180529"><ele>886.0</ele><time>2026-04-06T14:23:32.403Z</time></trkpt><trkpt lat="40.7043399" lon="15.1806623"><ele>885.9999999999999</ele><time>2026-04-06T14:23:35.403Z</time></trkpt><trkpt lat="40.704346" lon="15.1807783"><ele>886.0</ele><time>2026-04-06T14:23:38.403Z</time></trkpt><trkpt lat="40.7043887" lon="15.1808659"><ele>891.9999999999999</ele><time>2026-04-06T14:23:41.403Z</time></trkpt><trkpt lat="40.7044188" lon="15.1809635"><ele>898.0</ele><time>2026-04-06T14:23:44.403Z</time></trkpt><trkpt lat="40.7044505" lon="15.1810623"><ele>904.0</ele><time>2026-04-06T14:23:47.404Z</time></trkpt><trkpt lat="40.7044773" lon="15.181156"><ele>910.0</ele><time>2026-04-06T14:23:50.403Z</time></trkpt><trkpt lat="40.7045138" lon="15.181233"><ele>915.9999999999999</ele><time>2026-04-06T14:23:52.403Z</time></trkpt><trkpt lat="40.7045762" lon="15.1813134"><ele>922.0</ele><time>2026-04-06T14:23:55.404Z</time></trkpt><trkpt lat="40.7046249" lon="15.1814103"><ele>921.9999999999999</ele><time>2026-04-06T14:23:57.404Z</time></trkpt><trkpt lat="40.7046802" lon="15.1814801"><ele>922.0</ele><time>2026-04-06T14:23:59.403Z</time></trkpt><trkpt lat="40.704731" lon="15.1815484"><ele>922.0</ele><time>2026-04-06T14:24:01.403Z</time></trkpt><trkpt lat="40.704758" lon="15.1816433"><ele>922.0</ele><time>2026-04-06T14:24:03.404Z</time></trkpt><trkpt lat="40.7048205" lon="15.1817457"><ele>921.9999999999999</ele><time>2026-04-06T14:24:05.403Z</time></trkpt><trkpt lat="40.7049033" lon="15.1818303"><ele>922.0</ele><time>2026-04-06T14:24:07.403Z</time></trkpt><trkpt lat="40.7049879" lon="15.1818915"><ele>921.8333333333333</ele><time>2026-04-06T14:24:09.404Z</time></trkpt><trkpt lat="40.705093" lon="15.1819468"><ele>921.6666666666666</ele><time>2026-04-06T14:24:11.403Z</time></trkpt><trkpt lat="40.7052021" lon="15.1820088"><ele>921.5</ele><time>2026-04-06T14:24:13.404Z</time></trkpt><trkpt lat="40.7052572" lon="15.1820496"><ele>921.3333333333333</ele><time>2026-04-06T14:24:14.403Z</time></trkpt><trkpt lat="40.7053129" lon="15.1821069"><ele>921.1666666666666</ele><time>2026-04-06T14:24:15.403Z</time></trkpt><trkpt lat="40.705356" lon="15.1821865"><ele>921.0</ele><time>2026-04-06T14:24:16.403Z</time></trkpt><trkpt lat="40.7054261" lon="15.1822927"><ele>919.8333333333334</ele><time>2026-04-06T14:24:17.403Z</time></trkpt><trkpt lat="40.705503" lon="15.182382"><ele>918.6666666666667</ele><time>2026-04-06T14:24:18.404Z</time></trkpt><trkpt lat="40.7055547" lon="15.1824759"><ele>917.5</ele><time>2026-04-06T14:24:19.404Z</time></trkpt><trkpt lat="40.7055941" lon="15.1825682"><ele>916.3333333333334</ele><time>2026-04-06T14:24:20.403Z</time></trkpt><trkpt lat="40.7056222" lon="15.1826444"><ele>915.1666666666667</ele><time>2026-04-06T14:24:21.403Z</time></trkpt><trkpt lat="40.7056365" lon="15.182794"><ele>914.0</ele><time>2026-04-06T14:24:23.403Z</time></trkpt><trkpt lat="40.7056353" lon="15.1829326"><ele>914.0</ele><time>2026-04-06T14:24:25.403Z</time></trkpt><trkpt lat="40.7056033" lon="15.1830835"><ele>914.0</ele><time>2026-04-06T14:24:27.404Z</time></trkpt><trkpt lat="40.7055574" lon="15.1832224"><ele>914.0</ele><time>2026-04-06T14:24:29.403Z</time></trkpt><trkpt lat="40.7055058" lon="15.1837536"><ele>914.3333333333334</ele><time>2026-04-06T14:24:33.403Z</time></trkpt><trkpt lat="40.705424" lon="15.1838211"><ele>914.6666666666667</ele><time>2026-04-06T14:24:34.403Z</time></trkpt><trkpt lat="40.7054598" lon="15.1839048"><ele>915.0</ele><time>2026-04-06T14:24:35.404Z</time></trkpt><trkpt lat="40.7055471" lon="15.1839456"><ele>915.3333333333333</ele><time>2026-04-06T14:24:38.403Z</time></trkpt><trkpt lat="40.7055018" lon="15.1840477"><ele>915.6666666666666</ele><time>2026-04-06T14:24:45.403Z</time></trkpt><trkpt lat="40.7054654" lon="15.1841366"><ele>916.0</ele><time>2026-04-06T14:24:48.403Z</time></trkpt><trkpt lat="40.7054639" lon="15.1842243"><ele>915.9999999999999</ele><time>2026-04-06T14:24:50.403Z</time></trkpt><trkpt lat="40.7054807" lon="15.1843357"><ele>916.0</ele><time>2026-04-06T14:24:52.404Z</time></trkpt><trkpt lat="40.7055311" lon="15.1844433"><ele>916.0</ele><time>2026-04-06T14:24:54.403Z</time></trkpt><trkpt lat="40.7055743" lon="15.1845091"><ele>916.0</ele><time>2026-04-06T14:24:55.403Z</time></trkpt><trkpt lat="40.7056066" lon="15.1846285"><ele>915.9999999999999</ele><time>2026-04-06T14:24:57.403Z</time></trkpt><trkpt lat="40.7056303" lon="15.1847592"><ele>916.0</ele><time>2026-04-06T14:24:59.403Z</time></trkpt><trkpt lat="40.7056503" lon="15.1848474"><ele>917.1666666666666</ele><time>2026-04-06T14:25:02.403Z</time></trkpt><trkpt lat="40.7056507" lon="15.1849616"><ele>918.3333333333333</ele><time>2026-04-06T14:25:05.403Z</time></trkpt><trkpt lat="40.7056979" lon="15.1850471"><ele>919.5</ele><time>2026-04-06T14:25:07.403Z</time></trkpt><trkpt lat="40.7057367" lon="15.1851651"><ele>920.6666666666667</ele><time>2026-04-06T14:25:09.403Z</time></trkpt><trkpt lat="40.7057421" lon="15.1852711"><ele>921.8333333333334</ele><time>2026-04-06T14:25:12.403Z</time></trkpt><trkpt lat="40.7057426" lon="15.1853656"><ele>923.0</ele><time>2026-04-06T14:25:20.404Z</time></trkpt><trkpt lat="40.7056876" lon="15.1854281"><ele>923.0</ele><time>2026-04-06T14:25:25.403Z</time></trkpt><trkpt lat="40.7056604" lon="15.185505"><ele>923.0</ele><time>2026-04-06T14:25:28.403Z</time></trkpt><trkpt lat="40.7056485" lon="15.1856034"><ele>923.0</ele><time>2026-04-06T14:25:32.403Z</time></trkpt><trkpt lat="40.7056427" lon="15.1856893"><ele>923.0</ele><time>2026-04-06T14:25:35.403Z</time></trkpt><trkpt lat="40.7056508" lon="15.1857734"><ele>923.0</ele><time>2026-04-06T14:25:39.403Z</time></trkpt><trkpt lat="40.7056384" lon="15.1858645"><ele>923.0</ele><time>2026-04-06T14:25:43.403Z</time></trkpt><trkpt lat="40.7056123" lon="15.1859417"><ele>923.0</ele><time>2026-04-06T14:25:47.411Z</time></trkpt><trkpt lat="40.705615" lon="15.1860398"><ele>924.3333333333334</ele><time>2026-04-06T14:25:50.411Z</time></trkpt><trkpt lat="40.7055713" lon="15.1861233"><ele>925.6666666666667</ele><time>2026-04-06T14:25:53.411Z</time></trkpt><trkpt lat="40.7054795" lon="15.1861463"><ele>927.0</ele><time>2026-04-06T14:25:58.411Z</time></trkpt><trkpt lat="40.7054032" lon="15.1861824"><ele>928.3333333333333</ele><time>2026-04-06T14:26:01.411Z</time></trkpt><trkpt lat="40.7053379" lon="15.186126"><ele>929.6666666666666</ele><time>2026-04-06T14:26:05.412Z</time></trkpt><trkpt lat="40.7052602" lon="15.1860928"><ele>931.0</ele><time>2026-04-06T14:26:09.411Z</time></trkpt><trkpt lat="40.7052049" lon="15.1860498"><ele>934.4285714285714</ele><time>2026-04-06T14:26:12.411Z</time></trkpt><trkpt lat="40.7051574" lon="15.1859675"><ele>937.8571428571429</ele><time>2026-04-06T14:26:15.411Z</time></trkpt><trkpt lat="40.705072" lon="15.1859512"><ele>941.2857142857142</ele><time>2026-04-06T14:26:18.411Z</time></trkpt><trkpt lat="40.7050007" lon="15.1859399"><ele>944.7142857142857</ele><time>2026-04-06T14:26:21.411Z</time></trkpt><trkpt lat="40.7049314" lon="15.185914"><ele>948.1428571428571</ele><time>2026-04-06T14:26:24.412Z</time></trkpt><trkpt lat="40.7048694" lon="15.1858755"><ele>951.5714285714284</ele><time>2026-04-06T14:26:26.411Z</time></trkpt><trkpt lat="40.704812" lon="15.1858391"><ele>954.9999999999999</ele><time>2026-04-06T14:26:28.411Z</time></trkpt><trkpt lat="40.7047516" lon="15.1857877"><ele>954.9999999999999</ele><time>2026-04-06T14:26:30.411Z</time></trkpt><trkpt lat="40.7046633" lon="15.1857674"><ele>955.0</ele><time>2026-04-06T14:26:33.411Z</time></trkpt><trkpt lat="40.7045791" lon="15.1857391"><ele>955.0</ele><time>2026-04-06T14:26:36.411Z</time></trkpt><trkpt lat="40.7045173" lon="15.1857016"><ele>955.0</ele><time>2026-04-06T14:26:39.411Z</time></trkpt><trkpt lat="40.7044488" lon="15.1856826"><ele>954.9999999999999</ele><time>2026-04-06T14:26:41.411Z</time></trkpt><trkpt lat="40.704377" lon="15.1856666"><ele>955.0</ele><time>2026-04-06T14:26:43.411Z</time></trkpt><trkpt lat="40.7043122" lon="15.1855981"><ele>958.2</ele><time>2026-04-06T14:26:46.411Z</time></trkpt><trkpt lat="40.7042548" lon="15.1855093"><ele>961.4</ele><time>2026-04-06T14:26:49.411Z</time></trkpt><trkpt lat="40.7041968" lon="15.1854444"><ele>964.5999999999999</ele><time>2026-04-06T14:26:51.411Z</time></trkpt><trkpt lat="40.7041266" lon="15.1853922"><ele>967.8</ele><time>2026-04-06T14:26:53.411Z</time></trkpt><trkpt lat="40.7040333" lon="15.1853548"><ele>971.0</ele><time>2026-04-06T14:26:55.411Z</time></trkpt><trkpt lat="40.7039163" lon="15.1853152"><ele>971.0</ele><time>2026-04-06T14:26:57.412Z</time></trkpt><trkpt lat="40.7038021" lon="15.1852872"><ele>970.9999999999999</ele><time>2026-04-06T14:26:59.411Z</time></trkpt><trkpt lat="40.7036997" lon="15.1852552"><ele>970.9999999999999</ele><time>2026-04-06T14:27:01.412Z</time></trkpt><trkpt lat="40.7035951" lon="15.1851685"><ele>971.0</ele><time>2026-04-06T14:27:03.411Z</time></trkpt><trkpt lat="40.7035226" lon="15.1851212"><ele>971.0</ele><time>2026-04-06T14:27:05.411Z</time></trkpt><trkpt lat="40.7034546" lon="15.185088"><ele>972.5714285714287</ele><time>2026-04-06T14:27:07.412Z</time></trkpt><trkpt lat="40.703387" lon="15.1850296"><ele>974.1428571428572</ele><time>2026-04-06T14:27:09.411Z</time></trkpt><trkpt lat="40.703326" lon="15.1850006"><ele>975.7142857142858</ele><time>2026-04-06T14:27:11.411Z</time></trkpt><trkpt lat="40.7032619" lon="15.1849823"><ele>977.2857142857142</ele><time>2026-04-06T14:27:13.411Z</time></trkpt><trkpt lat="40.7031956" lon="15.1849736"><ele>978.8571428571428</ele><time>2026-04-06T14:27:15.411Z</time></trkpt><trkpt lat="40.7031266" lon="15.1849559"><ele>980.4285714285713</ele><time>2026-04-06T14:27:17.411Z</time></trkpt><trkpt lat="40.7030366" lon="15.184938"><ele>982.0</ele><time>2026-04-06T14:27:20.412Z</time></trkpt><trkpt lat="40.7029556" lon="15.1849346"><ele>981.9999999999999</ele><time>2026-04-06T14:27:23.411Z</time></trkpt><trkpt lat="40.7028683" lon="15.1849536"><ele>982.0</ele><time>2026-04-06T14:27:26.411Z</time></trkpt><trkpt lat="40.7027952" lon="15.1849752"><ele>982.0</ele><time>2026-04-06T14:27:29.411Z</time></trkpt><trkpt lat="40.7027387" lon="15.1850275"><ele>982.0</ele><time>2026-04-06T14:27:32.411Z</time></trkpt><trkpt lat="40.702674" lon="15.1850368"><ele>981.9999999999999</ele><time>2026-04-06T14:27:34.411Z</time></trkpt><trkpt lat="40.7026137" lon="15.1850035"><ele>982.0</ele><time>2026-04-06T14:27:36.411Z</time></trkpt><trkpt lat="40.7025262" lon="15.1849569"><ele>983.1428571428571</ele><time>2026-04-06T14:27:39.411Z</time></trkpt><trkpt lat="40.7024567" lon="15.1849108"><ele>984.2857142857142</ele><time>2026-04-06T14:27:41.411Z</time></trkpt><trkpt lat="40.7023945" lon="15.1848691"><ele>985.4285714285713</ele><time>2026-04-06T14:27:43.411Z</time></trkpt><trkpt lat="40.7023339" lon="15.1848463"><ele>986.5714285714284</ele><time>2026-04-06T14:27:45.411Z</time></trkpt><trkpt lat="40.7022622" lon="15.1848502"><ele>987.7142857142857</ele><time>2026-04-06T14:27:48.412Z</time></trkpt><trkpt lat="40.7021996" lon="15.1848385"><ele>988.8571428571427</ele><time>2026-04-06T14:27:52.411Z</time></trkpt><trkpt lat="40.7021159" lon="15.18485"><ele>989.9999999999999</ele><time>2026-04-06T14:27:55.411Z</time></trkpt><trkpt lat="40.7020208" lon="15.1848522"><ele>991.8333333333334</ele><time>2026-04-06T14:27:58.411Z</time></trkpt><trkpt lat="40.7019501" lon="15.1848578"><ele>993.6666666666667</ele><time>2026-04-06T14:28:01.411Z</time></trkpt><trkpt lat="40.7018771" lon="15.1849188"><ele>995.5</ele><time>2026-04-06T14:28:05.411Z</time></trkpt><trkpt lat="40.7018002" lon="15.184956"><ele>997.3333333333334</ele><time>2026-04-06T14:28:08.412Z</time></trkpt><trkpt lat="40.7017041" lon="15.1849761"><ele>999.1666666666667</ele><time>2026-04-06T14:28:11.411Z</time></trkpt><trkpt lat="40.7016373" lon="15.1849864"><ele>1001.0</ele><time>2026-04-06T14:28:13.411Z</time></trkpt><trkpt lat="40.7015572" lon="15.1849585"><ele>1002.8333333333334</ele><time>2026-04-06T14:28:16.411Z</time></trkpt><trkpt lat="40.7014935" lon="15.1849434"><ele>1004.6666666666667</ele><time>2026-04-06T14:28:20.411Z</time></trkpt><trkpt lat="40.7014262" lon="15.1849352"><ele>1006.5</ele><time>2026-04-06T14:28:24.411Z</time></trkpt><trkpt lat="40.7012945" lon="15.184917"><ele>1008.3333333333333</ele><time>2026-04-06T14:29:03.411Z</time></trkpt><trkpt lat="40.7012313" lon="15.1849482"><ele>1010.1666666666666</ele><time>2026-04-06T14:29:14.415Z</time></trkpt><trkpt lat="40.7011576" lon="15.1849414"><ele>1012.0</ele><time>2026-04-06T14:29:31.444Z</time></trkpt><trkpt lat="40.7010923" lon="15.1849729"><ele>1012.0000000000001</ele><time>2026-04-06T14:29:55.411Z</time></trkpt><trkpt lat="40.7011493" lon="15.1850159"><ele>1012.0</ele><time>2026-04-06T14:33:16.42Z</time></trkpt><trkpt lat="40.701101" lon="15.1849623"><ele>1012.0000000000001</ele><time>2026-04-06T14:33:44.42Z</time></trkpt><trkpt lat="40.7011632" lon="15.1849878"><ele>1012.0000000000001</ele><time>2026-04-06T14:35:02.432Z</time></trkpt><trkpt lat="40.7011021" lon="15.1849651"><ele>1012.0</ele><time>2026-04-06T14:35:29.42Z</time></trkpt><trkpt lat="40.7011193" lon="15.184874"><ele>1012.0000000000001</ele><time>2026-04-06T14:35:38.416Z</time></trkpt><trkpt lat="40.7011419" lon="15.1849523"><ele>1012.0000000000001</ele><time>2026-04-06T14:37:54.44Z</time></trkpt><trkpt lat="40.7012092" lon="15.1849899"><ele>1012.0000000000001</ele><time>2026-04-06T14:38:55.42Z</time></trkpt><trkpt lat="40.7012655" lon="15.1850302"><ele>1012.0</ele><time>2026-04-06T14:39:01.473Z</time></trkpt><trkpt lat="40.7012647" lon="15.1849445"><ele>1012.0000000000001</ele><time>2026-04-06T14:42:48.474Z</time></trkpt><trkpt lat="40.7012751" lon="15.1848577"><ele>1012.0000000000001</ele><time>2026-04-06T14:42:57.429Z</time></trkpt><trkpt lat="40.7013362" lon="15.1848944"><ele>1012.0</ele><time>2026-04-06T14:45:07.48Z</time></trkpt><trkpt lat="40.7013401" lon="15.1849792"><ele>1012.0000000000001</ele><time>2026-04-06T14:45:11.434Z</time></trkpt><trkpt lat="40.7014195" lon="15.1849871"><ele>1012.0000000000001</ele><time>2026-04-06T14:46:17.434Z</time></trkpt><trkpt lat="40.7014835" lon="15.1849995"><ele>1011.9999999999999</ele><time>2026-04-06T14:46:24.422Z</time></trkpt><trkpt lat="40.7015493" lon="15.1849898"><ele>1012.0</ele><time>2026-04-06T14:46:31.435Z</time></trkpt><trkpt lat="40.7016146" lon="15.1849808"><ele>1012.0</ele><time>2026-04-06T14:46:35.47Z</time></trkpt><trkpt lat="40.7016811" lon="15.1849819"><ele>1012.0</ele><time>2026-04-06T14:46:40.465Z</time></trkpt><trkpt lat="40.7017415" lon="15.1850171"><ele>1011.9999999999999</ele><time>2026-04-06T14:46:44.434Z</time></trkpt><trkpt lat="40.7018793" lon="15.1850469"><ele>1012.0</ele><time>2026-04-06T14:46:45.434Z</time></trkpt><trkpt lat="40.7019499" lon="15.1850242"><ele>1008.3333333333333</ele><time>2026-04-06T14:46:48.434Z</time></trkpt><trkpt lat="40.702013" lon="15.1849882"><ele>1004.6666666666667</ele><time>2026-04-06T14:47:00.435Z</time></trkpt><trkpt lat="40.7022897" lon="15.1849855"><ele>1001.0</ele><time>2026-04-06T14:47:23.434Z</time></trkpt><trkpt lat="40.7025422" lon="15.1849888"><ele>1001.0</ele><time>2026-04-06T14:47:43.434Z</time></trkpt><trkpt lat="40.702604" lon="15.1850174"><ele>1001.0</ele><time>2026-04-06T14:47:46.434Z</time></trkpt><trkpt lat="40.7026807" lon="15.1850615"><ele>1001.0</ele><time>2026-04-06T14:47:50.434Z</time></trkpt><trkpt lat="40.7027518" lon="15.1850779"><ele>1001.0</ele><time>2026-04-06T14:47:57.434Z</time></trkpt><trkpt lat="40.7030053" lon="15.184993"><ele>997.8333333333334</ele><time>2026-04-06T14:48:12.434Z</time></trkpt><trkpt lat="40.7030773" lon="15.1849616"><ele>994.6666666666667</ele><time>2026-04-06T14:48:16.434Z</time></trkpt><trkpt lat="40.703167" lon="15.1849699"><ele>991.5</ele><time>2026-04-06T14:48:20.434Z</time></trkpt><trkpt lat="40.7032522" lon="15.185003"><ele>988.3333333333333</ele><time>2026-04-06T14:48:23.434Z</time></trkpt><trkpt lat="40.7033206" lon="15.1850496"><ele>985.1666666666666</ele><time>2026-04-06T14:48:26.435Z</time></trkpt><trkpt lat="40.7034033" lon="15.1850954"><ele>982.0</ele><time>2026-04-06T14:48:29.434Z</time></trkpt><trkpt lat="40.703477" lon="15.1851291"><ele>981.9999999999999</ele><time>2026-04-06T14:48:32.435Z</time></trkpt><trkpt lat="40.7035633" lon="15.1851742"><ele>982.0</ele><time>2026-04-06T14:48:34.434Z</time></trkpt><trkpt lat="40.7036498" lon="15.1851949"><ele>982.0</ele><time>2026-04-06T14:48:37.434Z</time></trkpt><trkpt lat="40.703738" lon="15.1852349"><ele>982.0</ele><time>2026-04-06T14:48:40.434Z</time></trkpt><trkpt lat="40.7038204" lon="15.1852888"><ele>981.9999999999999</ele><time>2026-04-06T14:48:43.434Z</time></trkpt><trkpt lat="40.7038917" lon="15.1853325"><ele>982.0</ele><time>2026-04-06T14:48:46.434Z</time></trkpt><trkpt lat="40.7039731" lon="15.1853556"><ele>980.4285714285713</ele><time>2026-04-06T14:48:49.434Z</time></trkpt><trkpt lat="40.7040452" lon="15.1853988"><ele>978.8571428571428</ele><time>2026-04-06T14:48:52.434Z</time></trkpt><trkpt lat="40.7041155" lon="15.1854626"><ele>977.2857142857142</ele><time>2026-04-06T14:48:56.434Z</time></trkpt><trkpt lat="40.7041774" lon="15.1855253"><ele>975.7142857142858</ele><time>2026-04-06T14:49:00.434Z</time></trkpt><trkpt lat="40.7042252" lon="15.1855906"><ele>974.1428571428572</ele><time>2026-04-06T14:49:04.434Z</time></trkpt><trkpt lat="40.7042801" lon="15.1856451"><ele>972.5714285714287</ele><time>2026-04-06T14:49:08.434Z</time></trkpt><trkpt lat="40.7043478" lon="15.1856586"><ele>971.0</ele><time>2026-04-06T14:49:13.434Z</time></trkpt><trkpt lat="40.7044286" lon="15.1856583"><ele>968.7142857142858</ele><time>2026-04-06T14:49:18.434Z</time></trkpt><trkpt lat="40.7044949" lon="15.1856894"><ele>966.4285714285716</ele><time>2026-04-06T14:49:25.434Z</time></trkpt><trkpt lat="40.7045654" lon="15.1857226"><ele>964.1428571428571</ele><time>2026-04-06T14:49:30.434Z</time></trkpt><trkpt lat="40.7046322" lon="15.1857645"><ele>961.8571428571429</ele><time>2026-04-06T14:49:33.434Z</time></trkpt><trkpt lat="40.7046988" lon="15.1858257"><ele>959.5714285714286</ele><time>2026-04-06T14:49:37.435Z</time></trkpt><trkpt lat="40.7047623" lon="15.1858378"><ele>957.2857142857142</ele><time>2026-04-06T14:49:41.434Z</time></trkpt><trkpt lat="40.7048239" lon="15.1858565"><ele>954.9999999999999</ele><time>2026-04-06T14:49:45.434Z</time></trkpt><trkpt lat="40.7050151" lon="15.1858683"><ele>954.9999999999999</ele><time>2026-04-06T14:49:57.434Z</time></trkpt><trkpt lat="40.7050851" lon="15.1859013"><ele>955.0</ele><time>2026-04-06T14:50:03.434Z</time></trkpt><trkpt lat="40.7051593" lon="15.1859608"><ele>954.9999999999999</ele><time>2026-04-06T14:50:08.434Z</time></trkpt><trkpt lat="40.7052099" lon="15.1860335"><ele>954.9999999999999</ele><time>2026-04-06T14:50:12.435Z</time></trkpt><trkpt lat="40.7052724" lon="15.1860636"><ele>955.0</ele><time>2026-04-06T14:50:17.435Z</time></trkpt><trkpt lat="40.7053178" lon="15.1861328"><ele>954.9999999999999</ele><time>2026-04-06T14:50:21.434Z</time></trkpt><trkpt lat="40.7053714" lon="15.1861911"><ele>954.9999999999999</ele><time>2026-04-06T14:50:26.434Z</time></trkpt><trkpt lat="40.7054044" lon="15.1862719"><ele>951.5714285714284</ele><time>2026-04-06T14:50:30.434Z</time></trkpt><trkpt lat="40.7054656" lon="15.1863045"><ele>948.1428571428571</ele><time>2026-04-06T14:50:37.434Z</time></trkpt><trkpt lat="40.7055413" lon="15.1863052"><ele>944.7142857142857</ele><time>2026-04-06T14:50:46.434Z</time></trkpt><trkpt lat="40.705569" lon="15.1862282"><ele>941.2857142857142</ele><time>2026-04-06T14:50:50.434Z</time></trkpt><trkpt lat="40.7055576" lon="15.1861257"><ele>937.8571428571429</ele><time>2026-04-06T14:50:56.434Z</time></trkpt><trkpt lat="40.7055853" lon="15.1860437"><ele>934.4285714285714</ele><time>2026-04-06T14:51:03.435Z</time></trkpt><trkpt lat="40.7056055" lon="15.1859551"><ele>931.0</ele><time>2026-04-06T14:51:07.434Z</time></trkpt><trkpt lat="40.7055507" lon="15.1859059"><ele>931.0</ele><time>2026-04-06T14:51:11.434Z</time></trkpt><trkpt lat="40.7055244" lon="15.1858284"><ele>931.0</ele><time>2026-04-06T14:51:17.434Z</time></trkpt><trkpt lat="40.7055239" lon="15.1857453"><ele>931.0</ele><time>2026-04-06T14:51:22.434Z</time></trkpt><trkpt lat="40.7055525" lon="15.1856519"><ele>931.0</ele><time>2026-04-06T14:51:26.435Z</time></trkpt><trkpt lat="40.7055643" lon="15.185538"><ele>931.0</ele><time>2026-04-06T14:51:29.434Z</time></trkpt><trkpt lat="40.7055691" lon="15.1854509"><ele>931.0</ele><time>2026-04-06T14:51:31.434Z</time></trkpt><trkpt lat="40.705551" lon="15.1853557"><ele>931.0</ele><time>2026-04-06T14:51:34.434Z</time></trkpt><trkpt lat="40.7055242" lon="15.1852604"><ele>929.6666666666666</ele><time>2026-04-06T14:51:38.434Z</time></trkpt><trkpt lat="40.7055631" lon="15.1851694"><ele>928.3333333333333</ele><time>2026-04-06T14:51:41.434Z</time></trkpt><trkpt lat="40.7055866" lon="15.1850888"><ele>927.0</ele><time>2026-04-06T14:51:44.434Z</time></trkpt><trkpt lat="40.7056214" lon="15.1849808"><ele>925.6666666666667</ele><time>2026-04-06T14:51:47.434Z</time></trkpt><trkpt lat="40.7056353" lon="15.1848668"><ele>924.3333333333334</ele><time>2026-04-06T14:51:50.434Z</time></trkpt><trkpt lat="40.7056092" lon="15.1847424"><ele>923.0</ele><time>2026-04-06T14:51:52.435Z</time></trkpt><trkpt lat="40.7055744" lon="15.1846256"><ele>921.8333333333334</ele><time>2026-04-06T14:51:54.434Z</time></trkpt><trkpt lat="40.7055444" lon="15.1845007"><ele>920.6666666666667</ele><time>2026-04-06T14:51:56.434Z</time></trkpt><trkpt lat="40.7055167" lon="15.1844088"><ele>919.5</ele><time>2026-04-06T14:51:58.434Z</time></trkpt><trkpt lat="40.7054989" lon="15.184304"><ele>918.3333333333333</ele><time>2026-04-06T14:52:01.434Z</time></trkpt><trkpt lat="40.7055084" lon="15.1841964"><ele>917.1666666666666</ele><time>2026-04-06T14:52:04.434Z</time></trkpt><trkpt lat="40.7054986" lon="15.1840674"><ele>916.0</ele><time>2026-04-06T14:52:08.434Z</time></trkpt><trkpt lat="40.705497" lon="15.1839686"><ele>915.1666666666666</ele><time>2026-04-06T14:52:11.434Z</time></trkpt><trkpt lat="40.7055221" lon="15.1838681"><ele>914.3333333333333</ele><time>2026-04-06T14:52:14.434Z</time></trkpt><trkpt lat="40.7055378" lon="15.1837477"><ele>913.5</ele><time>2026-04-06T14:52:17.434Z</time></trkpt><trkpt lat="40.7055393" lon="15.1836498"><ele>912.6666666666667</ele><time>2026-04-06T14:52:20.434Z</time></trkpt><trkpt lat="40.7055506" lon="15.1835605"><ele>911.8333333333334</ele><time>2026-04-06T14:52:23.434Z</time></trkpt><trkpt lat="40.7055647" lon="15.1834602"><ele>911.0</ele><time>2026-04-06T14:52:26.434Z</time></trkpt><trkpt lat="40.7055645" lon="15.1833734"><ele>911.0</ele><time>2026-04-06T14:52:30.445Z</time></trkpt><trkpt lat="40.7055515" lon="15.1832786"><ele>911.0</ele><time>2026-04-06T14:52:35.445Z</time></trkpt><trkpt lat="40.7055726" lon="15.1831921"><ele>911.0</ele><time>2026-04-06T14:52:39.444Z</time></trkpt><trkpt lat="40.705569" lon="15.1830905"><ele>911.0</ele><time>2026-04-06T14:52:45.444Z</time></trkpt><trkpt lat="40.7055014" lon="15.1830886"><ele>911.0</ele><time>2026-04-06T14:52:51.444Z</time></trkpt><trkpt lat="40.7054957" lon="15.1829834"><ele>911.0</ele><time>2026-04-06T14:53:16.444Z</time></trkpt><trkpt lat="40.7055281" lon="15.1829077"><ele>911.0</ele><time>2026-04-06T14:53:20.445Z</time></trkpt><trkpt lat="40.7056461" lon="15.1828789"><ele>911.4285714285714</ele><time>2026-04-06T14:53:45.444Z</time></trkpt><trkpt lat="40.7056759" lon="15.1827995"><ele>911.8571428571429</ele><time>2026-04-06T14:54:01.445Z</time></trkpt><trkpt lat="40.7057338" lon="15.1827555"><ele>912.2857142857143</ele><time>2026-04-06T14:54:04.444Z</time></trkpt><trkpt lat="40.7057867" lon="15.1826591"><ele>912.7142857142858</ele><time>2026-04-06T14:54:07.444Z</time></trkpt><trkpt lat="40.7058302" lon="15.1825752"><ele>913.1428571428571</ele><time>2026-04-06T14:54:10.444Z</time></trkpt><trkpt lat="40.7058944" lon="15.182538"><ele>913.5714285714287</ele><time>2026-04-06T14:54:14.444Z</time></trkpt><trkpt lat="40.7059658" lon="15.1824997"><ele>914.0000000000001</ele><time>2026-04-06T14:54:18.445Z</time></trkpt><trkpt lat="40.7060206" lon="15.1824265"><ele>915.0000000000001</ele><time>2026-04-06T14:54:21.444Z</time></trkpt><trkpt lat="40.7060793" lon="15.1823923"><ele>916.0</ele><time>2026-04-06T14:54:24.444Z</time></trkpt><trkpt lat="40.7061353" lon="15.1823471"><ele>917.0000000000001</ele><time>2026-04-06T14:54:26.444Z</time></trkpt><trkpt lat="40.7061925" lon="15.1822889"><ele>918.0000000000001</ele><time>2026-04-06T14:54:28.444Z</time></trkpt><trkpt lat="40.7062135" lon="15.1821951"><ele>919.0</ele><time>2026-04-06T14:54:31.444Z</time></trkpt><trkpt lat="40.7062187" lon="15.1821032"><ele>920.0000000000001</ele><time>2026-04-06T14:54:33.444Z</time></trkpt><trkpt lat="40.7062111" lon="15.1820127"><ele>921.0000000000001</ele><time>2026-04-06T14:54:35.444Z</time></trkpt><trkpt lat="40.7061897" lon="15.1819215"><ele>921.3333333333334</ele><time>2026-04-06T14:54:37.444Z</time></trkpt><trkpt lat="40.7061438" lon="15.1818262"><ele>921.6666666666667</ele><time>2026-04-06T14:54:41.444Z</time></trkpt><trkpt lat="40.706075" lon="15.181767"><ele>922.0</ele><time>2026-04-06T14:54:44.444Z</time></trkpt><trkpt lat="40.7060439" lon="15.1816676"><ele>922.3333333333334</ele><time>2026-04-06T14:54:48.444Z</time></trkpt><trkpt lat="40.7060277" lon="15.1815707"><ele>922.6666666666667</ele><time>2026-04-06T14:54:51.444Z</time></trkpt><trkpt lat="40.7060148" lon="15.1814683"><ele>923.0</ele><time>2026-04-06T14:54:54.444Z</time></trkpt><trkpt lat="40.7059498" lon="15.1814773"><ele>923.2857142857142</ele><time>2026-04-06T14:55:03.444Z</time></trkpt><trkpt lat="40.7058887" lon="15.1814393"><ele>923.5714285714287</ele><time>2026-04-06T14:55:10.444Z</time></trkpt><trkpt lat="40.7058204" lon="15.1814723"><ele>923.8571428571429</ele><time>2026-04-06T14:55:20.444Z</time></trkpt><trkpt lat="40.7057865" lon="15.1815602"><ele>924.1428571428571</ele><time>2026-04-06T14:55:24.444Z</time></trkpt><trkpt lat="40.7057581" lon="15.1816504"><ele>924.4285714285713</ele><time>2026-04-06T14:55:27.444Z</time></trkpt><trkpt lat="40.7057314" lon="15.181744"><ele>924.7142857142858</ele><time>2026-04-06T14:55:31.444Z</time></trkpt><trkpt lat="40.7056883" lon="15.1818182"><ele>925.0</ele><time>2026-04-06T14:55:35.444Z</time></trkpt><trkpt lat="40.7056342" lon="15.1818809"><ele>924.9999999999999</ele><time>2026-04-06T14:55:40.444Z</time></trkpt><trkpt lat="40.7055782" lon="15.1819707"><ele>925.0</ele><time>2026-04-06T14:55:43.444Z</time></trkpt><trkpt lat="40.7055687" lon="15.1820547"><ele>925.0</ele><time>2026-04-06T14:55:45.444Z</time></trkpt><trkpt lat="40.705549" lon="15.1821469"><ele>925.0</ele><time>2026-04-06T14:55:47.444Z</time></trkpt><trkpt lat="40.7055472" lon="15.1822393"><ele>924.9999999999999</ele><time>2026-04-06T14:55:49.444Z</time></trkpt><trkpt lat="40.705553" lon="15.1823422"><ele>925.0</ele><time>2026-04-06T14:55:51.444Z</time></trkpt><trkpt lat="40.7055986" lon="15.1824249"><ele>924.9999999999999</ele><time>2026-04-06T14:55:53.445Z</time></trkpt><trkpt lat="40.7056735" lon="15.1824554"><ele>925.0</ele><time>2026-04-06T14:55:55.444Z</time></trkpt><trkpt lat="40.7057231" lon="15.1825234"><ele>925.0</ele><time>2026-04-06T14:55:58.445Z</time></trkpt><trkpt lat="40.7056997" lon="15.1823329"><ele>925.0</ele><time>2026-04-06T14:56:20.374Z</time></trkpt><trkpt lat="40.7057548" lon="15.1823792"><ele>924.9999999999999</ele><time>2026-04-06T14:56:46.445Z</time></trkpt><trkpt lat="40.7057777" lon="15.1824591"><ele>925.0</ele><time>2026-04-06T14:56:51.445Z</time></trkpt><trkpt lat="40.7057414" lon="15.1825458"><ele>923.4285714285714</ele><time>2026-04-06T14:56:55.447Z</time></trkpt><trkpt lat="40.7057347" lon="15.1826305"><ele>921.8571428571429</ele><time>2026-04-06T14:57:22.411Z</time></trkpt><trkpt lat="40.7057992" lon="15.1826363"><ele>920.2857142857143</ele><time>2026-04-06T14:58:47.46Z</time></trkpt><trkpt lat="40.7057245" lon="15.182632"><ele>918.7142857142858</ele><time>2026-04-06T15:00:08.453Z</time></trkpt><trkpt lat="40.7056437" lon="15.1826626"><ele>917.1428571428571</ele><time>2026-04-06T15:00:33.453Z</time></trkpt><trkpt lat="40.7057057" lon="15.182644"><ele>915.5714285714287</ele><time>2026-04-06T15:01:46.471Z</time></trkpt><trkpt lat="40.705643" lon="15.1825793"><ele>914.0000000000001</ele><time>2026-04-06T15:02:38.471Z</time></trkpt><trkpt lat="40.7056282" lon="15.1824951"><ele>914.0000000000001</ele><time>2026-04-06T15:03:54.392Z</time></trkpt><trkpt lat="40.705553" lon="15.1824977"><ele>914.0</ele><time>2026-04-06T15:04:27.452Z</time></trkpt><trkpt lat="40.7054784" lon="15.1825339"><ele>914.0</ele><time>2026-04-06T15:04:30.477Z</time></trkpt><trkpt lat="40.7054026" lon="15.1825355"><ele>914.0</ele><time>2026-04-06T15:04:34.452Z</time></trkpt><trkpt lat="40.7053291" lon="15.1824808"><ele>914.0000000000001</ele><time>2026-04-06T15:04:39.499Z</time></trkpt><trkpt lat="40.7052553" lon="15.1823989"><ele>914.0</ele><time>2026-04-06T15:04:41.453Z</time></trkpt><trkpt lat="40.7052037" lon="15.1823436"><ele>916.3333333333334</ele><time>2026-04-06T15:04:43.452Z</time></trkpt><trkpt lat="40.7051278" lon="15.1822611"><ele>918.6666666666667</ele><time>2026-04-06T15:04:47.453Z</time></trkpt><trkpt lat="40.7050723" lon="15.182199"><ele>921.0</ele><time>2026-04-06T15:04:49.452Z</time></trkpt><trkpt lat="40.7047196" lon="15.1817927"><ele>921.0000000000001</ele><time>2026-04-06T15:04:51.452Z</time></trkpt><trkpt lat="40.7046598" lon="15.1817475"><ele>921.0</ele><time>2026-04-06T15:04:54.453Z</time></trkpt><trkpt lat="40.7046114" lon="15.1816689"><ele>921.0000000000001</ele><time>2026-04-06T15:04:57.452Z</time></trkpt><trkpt lat="40.7045587" lon="15.1816053"><ele>921.0000000000001</ele><time>2026-04-06T15:05:01.452Z</time></trkpt><trkpt lat="40.7045204" lon="15.1815184"><ele>921.0</ele><time>2026-04-06T15:05:05.452Z</time></trkpt><trkpt lat="40.704487" lon="15.1814346"><ele>921.0000000000001</ele><time>2026-04-06T15:05:08.452Z</time></trkpt><trkpt lat="40.7044445" lon="15.1813708"><ele>921.0000000000001</ele><time>2026-04-06T15:05:10.452Z</time></trkpt><trkpt lat="40.7043781" lon="15.1812775"><ele>918.2857142857144</ele><time>2026-04-06T15:05:13.452Z</time></trkpt><trkpt lat="40.7043313" lon="15.1811803"><ele>915.5714285714287</ele><time>2026-04-06T15:05:18.452Z</time></trkpt><trkpt lat="40.7042955" lon="15.181106"><ele>912.8571428571429</ele><time>2026-04-06T15:05:21.452Z</time></trkpt><trkpt lat="40.7042557" lon="15.1810388"><ele>910.1428571428572</ele><time>2026-04-06T15:05:24.452Z</time></trkpt><trkpt lat="40.7042121" lon="15.1809643"><ele>907.4285714285716</ele><time>2026-04-06T15:05:27.453Z</time></trkpt><trkpt lat="40.7041862" lon="15.1808674"><ele>904.7142857142857</ele><time>2026-04-06T15:05:32.452Z</time></trkpt><trkpt lat="40.7041753" lon="15.1807638"><ele>902.0</ele><time>2026-04-06T15:05:35.452Z</time></trkpt><trkpt lat="40.7041934" lon="15.1806515"><ele>902.4285714285713</ele><time>2026-04-06T15:05:39.452Z</time></trkpt><trkpt lat="40.704202" lon="15.1805552"><ele>902.8571428571429</ele><time>2026-04-06T15:05:44.452Z</time></trkpt><trkpt lat="40.7042453" lon="15.180487"><ele>903.2857142857142</ele><time>2026-04-06T15:05:49.461Z</time></trkpt><trkpt lat="40.7043137" lon="15.1804225"><ele>903.7142857142857</ele><time>2026-04-06T15:05:53.461Z</time></trkpt><trkpt lat="40.7043785" lon="15.1803525"><ele>904.1428571428571</ele><time>2026-04-06T15:06:01.461Z</time></trkpt><trkpt lat="40.7044079" lon="15.1802702"><ele>904.5714285714286</ele><time>2026-04-06T15:06:08.461Z</time></trkpt><trkpt lat="40.7044175" lon="15.1801852"><ele>905.0</ele><time>2026-04-06T15:06:12.461Z</time></trkpt><trkpt lat="40.7044529" lon="15.1800988"><ele>900.25</ele><time>2026-04-06T15:06:23.461Z</time></trkpt><trkpt lat="40.7043587" lon="15.1799159"><ele>895.5</ele><time>2026-04-06T15:06:29.462Z</time></trkpt><trkpt lat="40.70426" lon="15.1799116"><ele>890.75</ele><time>2026-04-06T15:06:31.461Z</time></trkpt><trkpt lat="40.7041342" lon="15.1799788"><ele>886.0</ele><time>2026-04-06T15:06:33.461Z</time></trkpt><trkpt lat="40.7040161" lon="15.1800399"><ele>885.9999999999999</ele><time>2026-04-06T15:06:35.461Z</time></trkpt><trkpt lat="40.7039599" lon="15.180079"><ele>886.0</ele><time>2026-04-06T15:06:36.461Z</time></trkpt><trkpt lat="40.703855" lon="15.1801597"><ele>886.0</ele><time>2026-04-06T15:06:38.461Z</time></trkpt><trkpt lat="40.7037951" lon="15.1801983"><ele>886.0</ele><time>2026-04-06T15:06:39.461Z</time></trkpt><trkpt lat="40.7037398" lon="15.1802427"><ele>885.9999999999999</ele><time>2026-04-06T15:06:40.461Z</time></trkpt><trkpt lat="40.7036329" lon="15.1803013"><ele>886.0</ele><time>2026-04-06T15:06:42.461Z</time></trkpt><trkpt lat="40.7035208" lon="15.1803666"><ele>885.0</ele><time>2026-04-06T15:06:44.461Z</time></trkpt><trkpt lat="40.7034109" lon="15.1804271"><ele>883.9999999999999</ele><time>2026-04-06T15:06:46.462Z</time></trkpt><trkpt lat="40.7033114" lon="15.180482"><ele>882.9999999999999</ele><time>2026-04-06T15:06:48.461Z</time></trkpt><trkpt lat="40.7032199" lon="15.1805188"><ele>882.0</ele><time>2026-04-06T15:06:50.461Z</time></trkpt><trkpt lat="40.7031168" lon="15.1805203"><ele>881.0</ele><time>2026-04-06T15:06:52.461Z</time></trkpt><trkpt lat="40.703018" lon="15.1805159"><ele>881.0</ele><time>2026-04-06T15:06:54.461Z</time></trkpt><trkpt lat="40.702939" lon="15.1805072"><ele>881.0</ele><time>2026-04-06T15:06:56.461Z</time></trkpt><trkpt lat="40.7028601" lon="15.1805205"><ele>881.0</ele><time>2026-04-06T15:06:59.461Z</time></trkpt><trkpt lat="40.7027896" lon="15.1805247"><ele>881.0</ele><time>2026-04-06T15:07:01.461Z</time></trkpt><trkpt lat="40.7027111" lon="15.1805516"><ele>881.0</ele><time>2026-04-06T15:07:03.461Z</time></trkpt><trkpt lat="40.7026478" lon="15.1805741"><ele>881.0</ele><time>2026-04-06T15:07:05.461Z</time></trkpt><trkpt lat="40.7025845" lon="15.1806112"><ele>881.0</ele><time>2026-04-06T15:07:28.461Z</time></trkpt><trkpt lat="40.7025002" lon="15.1806295"><ele>880.8333333333334</ele><time>2026-04-06T15:07:32.461Z</time></trkpt><trkpt lat="40.7024058" lon="15.1806421"><ele>880.6666666666667</ele><time>2026-04-06T15:07:36.461Z</time></trkpt><trkpt lat="40.7023167" lon="15.1806559"><ele>880.5</ele><time>2026-04-06T15:07:40.461Z</time></trkpt><trkpt lat="40.7022325" lon="15.1806654"><ele>880.3333333333333</ele><time>2026-04-06T15:07:43.461Z</time></trkpt><trkpt lat="40.7021601" lon="15.1806856"><ele>880.1666666666666</ele><time>2026-04-06T15:07:45.461Z</time></trkpt><trkpt lat="40.7020877" lon="15.1807138"><ele>880.0</ele><time>2026-04-06T15:07:47.461Z</time></trkpt><trkpt lat="40.702013" lon="15.1807491"><ele>879.8</ele><time>2026-04-06T15:07:49.461Z</time></trkpt><trkpt lat="40.7019277" lon="15.1808095"><ele>879.6</ele><time>2026-04-06T15:07:51.461Z</time></trkpt><trkpt lat="40.7018297" lon="15.180853"><ele>879.4000000000001</ele><time>2026-04-06T15:07:53.461Z</time></trkpt><trkpt lat="40.7017183" lon="15.1808785"><ele>879.2</ele><time>2026-04-06T15:07:55.461Z</time></trkpt><trkpt lat="40.7016009" lon="15.1808739"><ele>879.0</ele><time>2026-04-06T15:07:57.461Z</time></trkpt><trkpt lat="40.7014878" lon="15.1808771"><ele>878.3333333333334</ele><time>2026-04-06T15:07:59.461Z</time></trkpt><trkpt lat="40.7014212" lon="15.1808792"><ele>877.6666666666667</ele><time>2026-04-06T15:08:00.461Z</time></trkpt><trkpt lat="40.7012919" lon="15.180872"><ele>877.0</ele><time>2026-04-06T15:08:02.461Z</time></trkpt><trkpt lat="40.7012142" lon="15.1808605"><ele>876.3333333333334</ele><time>2026-04-06T15:08:03.462Z</time></trkpt><trkpt lat="40.7011322" lon="15.1808479"><ele>875.6666666666667</ele><time>2026-04-06T15:08:04.461Z</time></trkpt><trkpt lat="40.701067" lon="15.1808325"><ele>875.0</ele><time>2026-04-06T15:08:05.461Z</time></trkpt><trkpt lat="40.7009556" lon="15.1807741"><ele>874.4</ele><time>2026-04-06T15:08:07.461Z</time></trkpt><trkpt lat="40.7008814" lon="15.1806684"><ele>873.8</ele><time>2026-04-06T15:08:09.461Z</time></trkpt><trkpt lat="40.7008139" lon="15.1805559"><ele>873.2</ele><time>2026-04-06T15:08:11.461Z</time></trkpt><trkpt lat="40.7007344" lon="15.180476"><ele>872.6</ele><time>2026-04-06T15:08:13.461Z</time></trkpt><trkpt lat="40.7006759" lon="15.180412"><ele>872.0</ele><time>2026-04-06T15:08:16.461Z</time></trkpt><trkpt lat="40.7006365" lon="15.1803368"><ele>872.0000000000001</ele><time>2026-04-06T15:08:19.461Z</time></trkpt><trkpt lat="40.7005948" lon="15.1802674"><ele>872.0</ele><time>2026-04-06T15:08:21.462Z</time></trkpt><trkpt lat="40.7005191" lon="15.1802108"><ele>872.0</ele><time>2026-04-06T15:08:24.461Z</time></trkpt><trkpt lat="40.7004518" lon="15.1801633"><ele>872.0</ele><time>2026-04-06T15:08:26.461Z</time></trkpt><trkpt lat="40.7003894" lon="15.1801001"><ele>872.0000000000001</ele><time>2026-04-06T15:08:28.461Z</time></trkpt><trkpt lat="40.7003152" lon="15.180034"><ele>872.0</ele><time>2026-04-06T15:08:30.461Z</time></trkpt><trkpt lat="40.7002234" lon="15.1799903"><ele>872.3333333333334</ele><time>2026-04-06T15:08:32.461Z</time></trkpt><trkpt lat="40.7001444" lon="15.1799535"><ele>872.6666666666667</ele><time>2026-04-06T15:08:34.461Z</time></trkpt><trkpt lat="40.7000712" lon="15.1799326"><ele>873.0</ele><time>2026-04-06T15:08:36.461Z</time></trkpt><trkpt lat="40.6999926" lon="15.1799163"><ele>873.3333333333333</ele><time>2026-04-06T15:08:39.461Z</time></trkpt><trkpt lat="40.6998988" lon="15.1798889"><ele>873.6666666666666</ele><time>2026-04-06T15:08:42.462Z</time></trkpt><trkpt lat="40.6998345" lon="15.1798284"><ele>874.0</ele><time>2026-04-06T15:08:44.461Z</time></trkpt><trkpt lat="40.6997861" lon="15.1797208"><ele>872.0</ele><time>2026-04-06T15:08:46.461Z</time></trkpt><trkpt lat="40.6997616" lon="15.1796121"><ele>870.0000000000001</ele><time>2026-04-06T15:08:48.461Z</time></trkpt><trkpt lat="40.6997655" lon="15.1794873"><ele>868.0000000000001</ele><time>2026-04-06T15:08:50.461Z</time></trkpt><trkpt lat="40.6997903" lon="15.1793575"><ele>866.0</ele><time>2026-04-06T15:08:52.461Z</time></trkpt><trkpt lat="40.6998405" lon="15.179248"><ele>864.0</ele><time>2026-04-06T15:08:54.461Z</time></trkpt><trkpt lat="40.6998884" lon="15.1791467"><ele>864.0</ele><time>2026-04-06T15:08:56.461Z</time></trkpt><trkpt lat="40.6999442" lon="15.179062"><ele>864.0000000000001</ele><time>2026-04-06T15:08:59.461Z</time></trkpt><trkpt lat="40.6999663" lon="15.1789833"><ele>864.0000000000001</ele><time>2026-04-06T15:09:07.461Z</time></trkpt><trkpt lat="40.7001827" lon="15.1789735"><ele>864.0</ele><time>2026-04-06T15:09:21.461Z</time></trkpt><trkpt lat="40.7002328" lon="15.1789231"><ele>864.0</ele><time>2026-04-06T15:09:29.461Z</time></trkpt><trkpt lat="40.7001975" lon="15.1788168"><ele>865.0</ele><time>2026-04-06T15:10:10.461Z</time></trkpt></trkseg><trkseg><trkpt lat="40.6882664" lon="15.1846171"><ele>623.0</ele><time>2026-04-06T15:33:59.497Z</time></trkpt><trkpt lat="40.6882047" lon="15.1845582"><ele>623.0</ele><time>2026-04-06T15:34:02.497Z</time></trkpt><trkpt lat="40.6881435" lon="15.1845366"><ele>623.0</ele><time>2026-04-06T15:34:04.497Z</time></trkpt><trkpt lat="40.6880468" lon="15.1845029"><ele>623.0</ele><time>2026-04-06T15:34:06.497Z</time></trkpt><trkpt lat="40.6879747" lon="15.1844752"><ele>623.0</ele><time>2026-04-06T15:34:08.498Z</time></trkpt><trkpt lat="40.6879089" lon="15.1844543"><ele>623.0</ele><time>2026-04-06T15:34:10.497Z</time></trkpt><trkpt lat="40.6878393" lon="15.1844103"><ele>623.0</ele><time>2026-04-06T15:34:12.497Z</time></trkpt><trkpt lat="40.6877695" lon="15.1843778"><ele>623.0</ele><time>2026-04-06T15:34:14.497Z</time></trkpt><trkpt lat="40.6876874" lon="15.1843483"><ele>623.0</ele><time>2026-04-06T15:34:16.497Z</time></trkpt><trkpt lat="40.6876149" lon="15.1843125"><ele>623.0</ele><time>2026-04-06T15:34:18.497Z</time></trkpt><trkpt lat="40.6875508" lon="15.184283"><ele>623.0</ele><time>2026-04-06T15:34:20.497Z</time></trkpt><trkpt lat="40.6874628" lon="15.1842474"><ele>623.0</ele><time>2026-04-06T15:34:22.497Z</time></trkpt><trkpt lat="40.6873556" lon="15.1842297"><ele>620.0</ele><time>2026-04-06T15:34:24.497Z</time></trkpt><trkpt lat="40.6872638" lon="15.1842017"><ele>617.0</ele><time>2026-04-06T15:34:26.497Z</time></trkpt><trkpt lat="40.6871843" lon="15.1841684"><ele>614.0</ele><time>2026-04-06T15:34:28.497Z</time></trkpt><trkpt lat="40.6871131" lon="15.1841203"><ele>611.0</ele><time>2026-04-06T15:34:31.497Z</time></trkpt><trkpt lat="40.6870508" lon="15.1840556"><ele>608.0</ele><time>2026-04-06T15:34:33.497Z</time></trkpt><trkpt lat="40.6869842" lon="15.1840168"><ele>605.0</ele><time>2026-04-06T15:34:34.497Z</time></trkpt><trkpt lat="40.6869019" lon="15.183939"><ele>600.6</ele><time>2026-04-06T15:34:36.497Z</time></trkpt><trkpt lat="40.6868238" lon="15.1838895"><ele>596.2</ele><time>2026-04-06T15:34:38.497Z</time></trkpt><trkpt lat="40.6867247" lon="15.1838025"><ele>591.8</ele><time>2026-04-06T15:34:40.497Z</time></trkpt><trkpt lat="40.6866536" lon="15.1837008"><ele>587.4</ele><time>2026-04-06T15:34:42.497Z</time></trkpt><trkpt lat="40.6865827" lon="15.1836242"><ele>583.0</ele><time>2026-04-06T15:34:44.497Z</time></trkpt><trkpt lat="40.6865139" lon="15.1835723"><ele>583.0</ele><time>2026-04-06T15:34:46.497Z</time></trkpt><trkpt lat="40.6864429" lon="15.1835235"><ele>583.0</ele><time>2026-04-06T15:34:48.497Z</time></trkpt><trkpt lat="40.6863604" lon="15.1834543"><ele>583.0</ele><time>2026-04-06T15:34:51.497Z</time></trkpt><trkpt lat="40.6863042" lon="15.1833532"><ele>583.0</ele><time>2026-04-06T15:34:53.497Z</time></trkpt><trkpt lat="40.6862451" lon="15.1832445"><ele>583.0</ele><time>2026-04-06T15:34:55.497Z</time></trkpt><trkpt lat="40.6861869" lon="15.1831472"><ele>583.4</ele><time>2026-04-06T15:34:57.497Z</time></trkpt><trkpt lat="40.686112" lon="15.1830522"><ele>583.8</ele><time>2026-04-06T15:34:59.498Z</time></trkpt><trkpt lat="40.6860304" lon="15.1829377"><ele>584.2</ele><time>2026-04-06T15:35:01.497Z</time></trkpt><trkpt lat="40.685959" lon="15.1828492"><ele>584.6</ele><time>2026-04-06T15:35:03.498Z</time></trkpt><trkpt lat="40.6859022" lon="15.182753"><ele>585.0</ele><time>2026-04-06T15:35:05.497Z</time></trkpt><trkpt lat="40.6858429" lon="15.1826722"><ele>581.8333333333334</ele><time>2026-04-06T15:35:07.497Z</time></trkpt><trkpt lat="40.6857641" lon="15.1826161"><ele>578.6666666666666</ele><time>2026-04-06T15:35:09.497Z</time></trkpt><trkpt lat="40.6856661" lon="15.1825984"><ele>575.5</ele><time>2026-04-06T15:35:11.497Z</time></trkpt><trkpt lat="40.6855625" lon="15.1825817"><ele>572.3333333333333</ele><time>2026-04-06T15:35:13.498Z</time></trkpt><trkpt lat="40.6854988" lon="15.1825802"><ele>569.1666666666666</ele><time>2026-04-06T15:35:14.497Z</time></trkpt><trkpt lat="40.6854174" lon="15.1825673"><ele>566.0</ele><time>2026-04-06T15:35:16.497Z</time></trkpt><trkpt lat="40.6853612" lon="15.1825239"><ele>566.0</ele><time>2026-04-06T15:35:18.497Z</time></trkpt><trkpt lat="40.6853044" lon="15.1824875"><ele>566.0</ele><time>2026-04-06T15:35:21.497Z</time></trkpt><trkpt lat="40.6852293" lon="15.1824379"><ele>566.0</ele><time>2026-04-06T15:35:24.497Z</time></trkpt><trkpt lat="40.68517" lon="15.1823994"><ele>566.0</ele><time>2026-04-06T15:35:26.497Z</time></trkpt><trkpt lat="40.685113" lon="15.1823565"><ele>566.0</ele><time>2026-04-06T15:35:28.497Z</time></trkpt><trkpt lat="40.6850425" lon="15.1823301"><ele>566.0</ele><time>2026-04-06T15:35:30.497Z</time></trkpt><trkpt lat="40.6849733" lon="15.1822964"><ele>566.0</ele><time>2026-04-06T15:35:32.498Z</time></trkpt><trkpt lat="40.6848973" lon="15.1822434"><ele>566.6666666666666</ele><time>2026-04-06T15:35:34.497Z</time></trkpt><trkpt lat="40.6848297" lon="15.182226"><ele>567.3333333333333</ele><time>2026-04-06T15:35:36.498Z</time></trkpt><trkpt lat="40.6847561" lon="15.1821708"><ele>568.0</ele><time>2026-04-06T15:35:38.497Z</time></trkpt><trkpt lat="40.6846962" lon="15.1821157"><ele>568.6666666666666</ele><time>2026-04-06T15:35:40.497Z</time></trkpt><trkpt lat="40.6846411" lon="15.1820562"><ele>569.3333333333334</ele><time>2026-04-06T15:35:42.497Z</time></trkpt><trkpt lat="40.6845897" lon="15.1819669"><ele>570.0</ele><time>2026-04-06T15:35:44.497Z</time></trkpt><trkpt lat="40.6845557" lon="15.1818771"><ele>570.0</ele><time>2026-04-06T15:35:46.497Z</time></trkpt><trkpt lat="40.6845155" lon="15.181764"><ele>570.0</ele><time>2026-04-06T15:35:48.496Z</time></trkpt><trkpt lat="40.6845024" lon="15.1816485"><ele>570.0</ele><time>2026-04-06T15:35:50.496Z</time></trkpt><trkpt lat="40.6845052" lon="15.1815088"><ele>570.0</ele><time>2026-04-06T15:35:53.496Z</time></trkpt><trkpt lat="40.6844567" lon="15.181419"><ele>570.0</ele><time>2026-04-06T15:35:55.496Z</time></trkpt><trkpt lat="40.6843684" lon="15.1813849"><ele>571.6666666666666</ele><time>2026-04-06T15:35:57.496Z</time></trkpt><trkpt lat="40.6842706" lon="15.1813935"><ele>573.3333333333334</ele><time>2026-04-06T15:35:59.496Z</time></trkpt><trkpt lat="40.6842009" lon="15.1814704"><ele>575.0</ele><time>2026-04-06T15:36:01.497Z</time></trkpt><trkpt lat="40.6841241" lon="15.1815254"><ele>576.6666666666667</ele><time>2026-04-06T15:36:03.496Z</time></trkpt><trkpt lat="40.6840577" lon="15.1815394"><ele>578.3333333333334</ele><time>2026-04-06T15:36:05.496Z</time></trkpt><trkpt lat="40.6839908" lon="15.1815324"><ele>580.0</ele><time>2026-04-06T15:36:08.496Z</time></trkpt><trkpt lat="40.6839137" lon="15.1815251"><ele>580.2</ele><time>2026-04-06T15:36:11.496Z</time></trkpt><trkpt lat="40.6838235" lon="15.1815242"><ele>580.4</ele><time>2026-04-06T15:36:14.496Z</time></trkpt><trkpt lat="40.6837389" lon="15.1815321"><ele>580.6</ele><time>2026-04-06T15:36:17.497Z</time></trkpt><trkpt lat="40.683631" lon="15.1815461"><ele>580.8</ele><time>2026-04-06T15:36:19.496Z</time></trkpt><trkpt lat="40.6835499" lon="15.1814904"><ele>581.0</ele><time>2026-04-06T15:36:21.496Z</time></trkpt><trkpt lat="40.683472" lon="15.1814243"><ele>581.0</ele><time>2026-04-06T15:36:23.496Z</time></trkpt><trkpt lat="40.6834113" lon="15.1813594"><ele>581.0</ele><time>2026-04-06T15:36:25.496Z</time></trkpt><trkpt lat="40.6833645" lon="15.1813018"><ele>581.0</ele><time>2026-04-06T15:36:26.496Z</time></trkpt><trkpt lat="40.6832964" lon="15.1812381"><ele>581.0</ele><time>2026-04-06T15:36:28.496Z</time></trkpt><trkpt lat="40.6831939" lon="15.1811865"><ele>581.0</ele><time>2026-04-06T15:36:30.497Z</time></trkpt><trkpt lat="40.6831236" lon="15.181105"><ele>581.0</ele><time>2026-04-06T15:36:32.496Z</time></trkpt><trkpt lat="40.6830602" lon="15.1809942"><ele>581.0</ele><time>2026-04-06T15:36:34.496Z</time></trkpt><trkpt lat="40.6830214" lon="15.1808959"><ele>581.0</ele><time>2026-04-06T15:36:35.496Z</time></trkpt><trkpt lat="40.6829729" lon="15.1807733"><ele>581.0</ele><time>2026-04-06T15:36:37.496Z</time></trkpt><trkpt lat="40.682929" lon="15.1806425"><ele>581.0</ele><time>2026-04-06T15:36:39.496Z</time></trkpt><trkpt lat="40.6828627" lon="15.180554"><ele>581.0</ele><time>2026-04-06T15:36:41.496Z</time></trkpt><trkpt lat="40.682814" lon="15.180438"><ele>583.8</ele><time>2026-04-06T15:36:43.496Z</time></trkpt><trkpt lat="40.6827503" lon="15.1803531"><ele>586.6</ele><time>2026-04-06T15:36:45.496Z</time></trkpt><trkpt lat="40.6826721" lon="15.1803514"><ele>589.4</ele><time>2026-04-06T15:36:47.496Z</time></trkpt><trkpt lat="40.6825856" lon="15.1803502"><ele>592.2</ele><time>2026-04-06T15:36:49.497Z</time></trkpt><trkpt lat="40.6824911" lon="15.1803776"><ele>595.0</ele><time>2026-04-06T15:36:51.496Z</time></trkpt><trkpt lat="40.6823912" lon="15.1803841"><ele>595.0</ele><time>2026-04-06T15:36:53.496Z</time></trkpt><trkpt lat="40.6822815" lon="15.1803679"><ele>595.0</ele><time>2026-04-06T15:36:55.496Z</time></trkpt><trkpt lat="40.6821587" lon="15.1803495"><ele>595.0</ele><time>2026-04-06T15:36:57.496Z</time></trkpt><trkpt lat="40.6820775" lon="15.1803306"><ele>595.0</ele><time>2026-04-06T15:36:58.496Z</time></trkpt><trkpt lat="40.6820021" lon="15.18029"><ele>595.0</ele><time>2026-04-06T15:36:59.496Z</time></trkpt><trkpt lat="40.6819356" lon="15.1802443"><ele>593.6666666666667</ele><time>2026-04-06T15:37:00.496Z</time></trkpt><trkpt lat="40.6818674" lon="15.1801834"><ele>592.3333333333334</ele><time>2026-04-06T15:37:01.496Z</time></trkpt><trkpt lat="40.6818062" lon="15.1801279"><ele>591.0</ele><time>2026-04-06T15:37:02.496Z</time></trkpt><trkpt lat="40.6816968" lon="15.1800315"><ele>589.6666666666666</ele><time>2026-04-06T15:37:04.496Z</time></trkpt><trkpt lat="40.6816331" lon="15.1799872"><ele>588.3333333333333</ele><time>2026-04-06T15:37:05.497Z</time></trkpt><trkpt lat="40.6815617" lon="15.1799572"><ele>587.0</ele><time>2026-04-06T15:37:06.496Z</time></trkpt><trkpt lat="40.6814917" lon="15.1799208"><ele>587.0</ele><time>2026-04-06T15:37:07.496Z</time></trkpt><trkpt lat="40.6814219" lon="15.1798869"><ele>587.0</ele><time>2026-04-06T15:37:08.496Z</time></trkpt><trkpt lat="40.6813645" lon="15.1798526"><ele>587.0</ele><time>2026-04-06T15:37:09.496Z</time></trkpt><trkpt lat="40.6812578" lon="15.1798176"><ele>587.0</ele><time>2026-04-06T15:37:11.496Z</time></trkpt><trkpt lat="40.6811661" lon="15.17981"><ele>587.0</ele><time>2026-04-06T15:37:13.496Z</time></trkpt><trkpt lat="40.6810543" lon="15.1797925"><ele>590.0</ele><time>2026-04-06T15:37:15.496Z</time></trkpt><trkpt lat="40.6809493" lon="15.1797902"><ele>593.0</ele><time>2026-04-06T15:37:17.496Z</time></trkpt><trkpt lat="40.6808384" lon="15.1797758"><ele>596.0</ele><time>2026-04-06T15:37:19.496Z</time></trkpt><trkpt lat="40.6807498" lon="15.1797455"><ele>599.0</ele><time>2026-04-06T15:37:21.496Z</time></trkpt><trkpt lat="40.6806633" lon="15.1797112"><ele>602.0</ele><time>2026-04-06T15:37:23.496Z</time></trkpt><trkpt lat="40.6805742" lon="15.1797075"><ele>602.0</ele><time>2026-04-06T15:37:25.496Z</time></trkpt><trkpt lat="40.6804901" lon="15.1796798"><ele>602.0</ele><time>2026-04-06T15:37:27.496Z</time></trkpt><trkpt lat="40.6803979" lon="15.1796446"><ele>602.0</ele><time>2026-04-06T15:37:30.496Z</time></trkpt><trkpt lat="40.68033" lon="15.1795891"><ele>602.0</ele><time>2026-04-06T15:37:32.497Z</time></trkpt><trkpt lat="40.6802475" lon="15.1795665"><ele>602.0</ele><time>2026-04-06T15:37:35.496Z</time></trkpt><trkpt lat="40.6801324" lon="15.1795426"><ele>600.6</ele><time>2026-04-06T15:37:38.496Z</time></trkpt><trkpt lat="40.6800417" lon="15.1794904"><ele>599.2</ele><time>2026-04-06T15:37:40.496Z</time></trkpt><trkpt lat="40.6799687" lon="15.1794671"><ele>597.8</ele><time>2026-04-06T15:37:42.496Z</time></trkpt><trkpt lat="40.6798727" lon="15.1794236"><ele>596.4</ele><time>2026-04-06T15:37:45.496Z</time></trkpt><trkpt lat="40.6797987" lon="15.1793455"><ele>595.0</ele><time>2026-04-06T15:37:47.497Z</time></trkpt><trkpt lat="40.6797137" lon="15.1792449"><ele>595.0</ele><time>2026-04-06T15:37:49.496Z</time></trkpt><trkpt lat="40.6796478" lon="15.1791309"><ele>595.0</ele><time>2026-04-06T15:37:51.496Z</time></trkpt><trkpt lat="40.6795937" lon="15.1790418"><ele>595.0</ele><time>2026-04-06T15:37:53.497Z</time></trkpt><trkpt lat="40.6795626" lon="15.178963"><ele>595.0</ele><time>2026-04-06T15:37:55.496Z</time></trkpt><trkpt lat="40.6795297" lon="15.1788646"><ele>595.0</ele><time>2026-04-06T15:37:58.496Z</time></trkpt><trkpt lat="40.6795053" lon="15.1787482"><ele>595.0</ele><time>2026-04-06T15:38:01.496Z</time></trkpt><trkpt lat="40.6794839" lon="15.1786496"><ele>594.2</ele><time>2026-04-06T15:38:04.496Z</time></trkpt><trkpt lat="40.6794673" lon="15.1785627"><ele>593.4</ele><time>2026-04-06T15:38:06.496Z</time></trkpt><trkpt lat="40.679411" lon="15.1784272"><ele>592.6</ele><time>2026-04-06T15:38:08.496Z</time></trkpt><trkpt lat="40.6793932" lon="15.1782982"><ele>591.8</ele><time>2026-04-06T15:38:10.496Z</time></trkpt><trkpt lat="40.679366" lon="15.1781785"><ele>591.0</ele><time>2026-04-06T15:38:12.496Z</time></trkpt><trkpt lat="40.6793223" lon="15.1780677"><ele>587.25</ele><time>2026-04-06T15:38:14.496Z</time></trkpt><trkpt lat="40.6792668" lon="15.1779775"><ele>583.5</ele><time>2026-04-06T15:38:16.496Z</time></trkpt><trkpt lat="40.6791722" lon="15.1778749"><ele>579.75</ele><time>2026-04-06T15:38:18.496Z</time></trkpt><trkpt lat="40.6790595" lon="15.1777879"><ele>576.0</ele><time>2026-04-06T15:38:20.496Z</time></trkpt><trkpt lat="40.6789443" lon="15.1777193"><ele>576.0</ele><time>2026-04-06T15:38:22.496Z</time></trkpt><trkpt lat="40.6788562" lon="15.1776297"><ele>576.0</ele><time>2026-04-06T15:38:24.496Z</time></trkpt><trkpt lat="40.6787484" lon="15.1775815"><ele>576.0</ele><time>2026-04-06T15:38:26.496Z</time></trkpt><trkpt lat="40.6786571" lon="15.1775374"><ele>576.0</ele><time>2026-04-06T15:38:28.496Z</time></trkpt><trkpt lat="40.6785886" lon="15.1774595"><ele>576.0</ele><time>2026-04-06T15:38:30.496Z</time></trkpt><trkpt lat="40.678475" lon="15.1774341"><ele>575.6666666666666</ele><time>2026-04-06T15:38:32.496Z</time></trkpt><trkpt lat="40.6783675" lon="15.1773997"><ele>575.3333333333334</ele><time>2026-04-06T15:38:34.496Z</time></trkpt><trkpt lat="40.6783089" lon="15.1773549"><ele>575.0</ele><time>2026-04-06T15:38:35.497Z</time></trkpt><trkpt lat="40.6782455" lon="15.177323"><ele>574.6666666666667</ele><time>2026-04-06T15:38:36.496Z</time></trkpt><trkpt lat="40.6781811" lon="15.1772921"><ele>574.3333333333334</ele><time>2026-04-06T15:38:37.496Z</time></trkpt><trkpt lat="40.6781151" lon="15.1772593"><ele>574.0</ele><time>2026-04-06T15:38:38.496Z</time></trkpt><trkpt lat="40.6780487" lon="15.1772298"><ele>576.6666666666667</ele><time>2026-04-06T15:38:39.496Z</time></trkpt><trkpt lat="40.6779849" lon="15.1772013"><ele>579.3333333333334</ele><time>2026-04-06T15:38:40.496Z</time></trkpt><trkpt lat="40.6779168" lon="15.1771744"><ele>582.0</ele><time>2026-04-06T15:38:41.496Z</time></trkpt><trkpt lat="40.677849" lon="15.1771687"><ele>584.6666666666666</ele><time>2026-04-06T15:38:42.496Z</time></trkpt><trkpt lat="40.6777192" lon="15.1771759"><ele>587.3333333333333</ele><time>2026-04-06T15:38:44.496Z</time></trkpt><trkpt lat="40.6776111" lon="15.1772159"><ele>590.0</ele><time>2026-04-06T15:38:46.496Z</time></trkpt><trkpt lat="40.6775219" lon="15.1772847"><ele>590.0</ele><time>2026-04-06T15:38:48.496Z</time></trkpt><trkpt lat="40.6774586" lon="15.1773128"><ele>590.0</ele><time>2026-04-06T15:38:50.496Z</time></trkpt><trkpt lat="40.677393" lon="15.1773298"><ele>590.0</ele><time>2026-04-06T15:38:52.496Z</time></trkpt><trkpt lat="40.6773162" lon="15.1773433"><ele>590.0</ele><time>2026-04-06T15:38:54.496Z</time></trkpt><trkpt lat="40.6772407" lon="15.1773626"><ele>590.0</ele><time>2026-04-06T15:38:56.496Z</time></trkpt><trkpt lat="40.6771321" lon="15.1773687"><ele>590.0</ele><time>2026-04-06T15:38:58.496Z</time></trkpt><trkpt lat="40.6770671" lon="15.1773679"><ele>587.8</ele><time>2026-04-06T15:38:59.496Z</time></trkpt><trkpt lat="40.6769574" lon="15.1773745"><ele>585.6</ele><time>2026-04-06T15:39:01.496Z</time></trkpt><trkpt lat="40.6768469" lon="15.1773888"><ele>583.4</ele><time>2026-04-06T15:39:03.497Z</time></trkpt><trkpt lat="40.6767399" lon="15.1774425"><ele>581.2</ele><time>2026-04-06T15:39:05.497Z</time></trkpt><trkpt lat="40.6766413" lon="15.1774886"><ele>579.0</ele><time>2026-04-06T15:39:07.496Z</time></trkpt><trkpt lat="40.6765943" lon="15.1775714"><ele>579.0</ele><time>2026-04-06T15:39:10.496Z</time></trkpt><trkpt lat="40.6765236" lon="15.1776127"><ele>579.0</ele><time>2026-04-06T15:39:12.496Z</time></trkpt><trkpt lat="40.6764261" lon="15.177677"><ele>579.0</ele><time>2026-04-06T15:39:14.496Z</time></trkpt><trkpt lat="40.6763295" lon="15.1777445"><ele>579.0</ele><time>2026-04-06T15:39:16.496Z</time></trkpt><trkpt lat="40.6762417" lon="15.177768"><ele>579.0</ele><time>2026-04-06T15:39:18.496Z</time></trkpt><trkpt lat="40.6761606" lon="15.1777576"><ele>579.1666666666666</ele><time>2026-04-06T15:39:20.496Z</time></trkpt><trkpt lat="40.6760745" lon="15.1777598"><ele>579.3333333333334</ele><time>2026-04-06T15:39:22.496Z</time></trkpt><trkpt lat="40.6759968" lon="15.1777835"><ele>579.5</ele><time>2026-04-06T15:39:24.496Z</time></trkpt><trkpt lat="40.6759178" lon="15.1777887"><ele>579.6666666666667</ele><time>2026-04-06T15:39:26.496Z</time></trkpt><trkpt lat="40.6758452" lon="15.177816"><ele>579.8333333333334</ele><time>2026-04-06T15:39:28.496Z</time></trkpt><trkpt lat="40.6757673" lon="15.1778913"><ele>580.0</ele><time>2026-04-06T15:39:30.497Z</time></trkpt><trkpt lat="40.675696" lon="15.1779774"><ele>580.0</ele><time>2026-04-06T15:39:32.496Z</time></trkpt><trkpt lat="40.6756318" lon="15.1780518"><ele>580.0</ele><time>2026-04-06T15:39:34.496Z</time></trkpt><trkpt lat="40.6755648" lon="15.1781355"><ele>580.0</ele><time>2026-04-06T15:39:36.496Z</time></trkpt><trkpt lat="40.6755102" lon="15.178244"><ele>580.0</ele><time>2026-04-06T15:39:38.497Z</time></trkpt><trkpt lat="40.6754542" lon="15.1783029"><ele>580.0</ele><time>2026-04-06T15:39:40.497Z</time></trkpt><trkpt lat="40.6754049" lon="15.1783561"><ele>580.0</ele><time>2026-04-06T15:39:42.496Z</time></trkpt><trkpt lat="40.6753346" lon="15.1784103"><ele>577.0</ele><time>2026-04-06T15:39:45.497Z</time></trkpt><trkpt lat="40.6752662" lon="15.1784429"><ele>574.0</ele><time>2026-04-06T15:39:47.497Z</time></trkpt><trkpt lat="40.6751978" lon="15.1785452"><ele>571.0</ele><time>2026-04-06T15:39:49.496Z</time></trkpt><trkpt lat="40.6751245" lon="15.1786197"><ele>568.0</ele><time>2026-04-06T15:39:51.496Z</time></trkpt><trkpt lat="40.6750168" lon="15.1786365"><ele>565.0</ele><time>2026-04-06T15:39:53.496Z</time></trkpt><trkpt lat="40.6749138" lon="15.1786202"><ele>564.9999999999999</ele><time>2026-04-06T15:39:55.496Z</time></trkpt><trkpt lat="40.6748357" lon="15.1785908"><ele>565.0</ele><time>2026-04-06T15:39:57.496Z</time></trkpt><trkpt lat="40.6747748" lon="15.1786223"><ele>565.0</ele><time>2026-04-06T15:40:06.496Z</time></trkpt><trkpt lat="40.674725" lon="15.1785639"><ele>565.0</ele><time>2026-04-06T15:40:13.497Z</time></trkpt><trkpt lat="40.6746643" lon="15.1785309"><ele>565.0</ele><time>2026-04-06T15:40:17.496Z</time></trkpt><trkpt lat="40.6745946" lon="15.1785232"><ele>564.9999999999999</ele><time>2026-04-06T15:40:23.506Z</time></trkpt><trkpt lat="40.6745276" lon="15.178533"><ele>565.0</ele><time>2026-04-06T15:40:28.506Z</time></trkpt><trkpt lat="40.6744701" lon="15.1785789"><ele>563.25</ele><time>2026-04-06T15:40:32.506Z</time></trkpt><trkpt lat="40.674417" lon="15.1785181"><ele>561.5</ele><time>2026-04-06T15:40:51.506Z</time></trkpt><trkpt lat="40.6743525" lon="15.1786478"><ele>559.75</ele><time>2026-04-06T15:41:14.507Z</time></trkpt><trkpt lat="40.6741502" lon="15.1786036"><ele>558.0</ele><time>2026-04-06T15:41:22.506Z</time></trkpt><trkpt lat="40.6741354" lon="15.1785152"><ele>557.9999999999999</ele><time>2026-04-06T15:41:28.506Z</time></trkpt><trkpt lat="40.674071" lon="15.1784942"><ele>558.0</ele><time>2026-04-06T15:41:30.506Z</time></trkpt><trkpt lat="40.6740074" lon="15.1784704"><ele>558.0</ele><time>2026-04-06T15:41:32.506Z</time></trkpt><trkpt lat="40.6739301" lon="15.178444"><ele>558.0</ele><time>2026-04-06T15:41:38.506Z</time></trkpt><trkpt lat="40.6738533" lon="15.1784377"><ele>558.0</ele><time>2026-04-06T15:41:55.506Z</time></trkpt><trkpt lat="40.673818" lon="15.1783565"><ele>557.9999999999999</ele><time>2026-04-06T15:41:58.506Z</time></trkpt><trkpt lat="40.6737522" lon="15.1783596"><ele>558.0</ele><time>2026-04-06T15:42:10.506Z</time></trkpt><trkpt lat="40.6736723" lon="15.1784006"><ele>558.0</ele><time>2026-04-06T15:42:13.506Z</time></trkpt><trkpt lat="40.673606" lon="15.1784378"><ele>558.0</ele><time>2026-04-06T15:42:15.506Z</time></trkpt><trkpt lat="40.6735362" lon="15.1784101"><ele>558.0</ele><time>2026-04-06T15:42:23.506Z</time></trkpt><trkpt lat="40.6732695" lon="15.1783337"><ele>558.0</ele><time>2026-04-06T15:42:30.507Z</time></trkpt><trkpt lat="40.6731807" lon="15.178301"><ele>556.1666666666666</ele><time>2026-04-06T15:42:32.507Z</time></trkpt><trkpt lat="40.6731126" lon="15.1782472"><ele>554.3333333333334</ele><time>2026-04-06T15:42:34.506Z</time></trkpt><trkpt lat="40.6730363" lon="15.1782356"><ele>552.5</ele><time>2026-04-06T15:42:37.506Z</time></trkpt><trkpt lat="40.6730275" lon="15.1783486"><ele>550.6666666666667</ele><time>2026-04-06T15:42:42.506Z</time></trkpt><trkpt lat="40.6730851" lon="15.1784247"><ele>548.8333333333334</ele><time>2026-04-06T15:42:44.506Z</time></trkpt><trkpt lat="40.6731219" lon="15.1785038"><ele>547.0</ele><time>2026-04-06T15:42:46.507Z</time></trkpt><trkpt lat="40.6731401" lon="15.1785936"><ele>547.0</ele><time>2026-04-06T15:42:48.507Z</time></trkpt><trkpt lat="40.67314" lon="15.1787005"><ele>547.0</ele><time>2026-04-06T15:42:52.506Z</time></trkpt><trkpt lat="40.6730746" lon="15.1787235"><ele>547.0</ele><time>2026-04-06T15:42:58.506Z</time></trkpt><trkpt lat="40.6727753" lon="15.1787414"><ele>547.0</ele><time>2026-04-06T15:43:33.506Z</time></trkpt><trkpt lat="40.6727083" lon="15.1787511"><ele>545.1666666666667</ele><time>2026-04-06T15:43:37.506Z</time></trkpt><trkpt lat="40.6726508" lon="15.1787065"><ele>543.3333333333334</ele><time>2026-04-06T15:43:41.506Z</time></trkpt><trkpt lat="40.6725867" lon="15.178706"><ele>541.5</ele><time>2026-04-06T15:43:51.506Z</time></trkpt><trkpt lat="40.6724713" lon="15.1787805"><ele>539.6666666666666</ele><time>2026-04-06T15:43:58.506Z</time></trkpt><trkpt lat="40.6724086" lon="15.1787683"><ele>537.8333333333333</ele><time>2026-04-06T15:44:03.506Z</time></trkpt><trkpt lat="40.6723312" lon="15.1786657"><ele>536.0</ele><time>2026-04-06T15:45:02.505Z</time></trkpt><trkpt lat="40.6722632" lon="15.1786722"><ele>536.0</ele><time>2026-04-06T15:45:25.505Z</time></trkpt><trkpt lat="40.6721963" lon="15.1787117"><ele>536.0</ele><time>2026-04-06T15:45:29.506Z</time></trkpt><trkpt lat="40.6721404" lon="15.1787517"><ele>536.0</ele><time>2026-04-06T15:45:50.505Z</time></trkpt><trkpt lat="40.6720836" lon="15.1788011"><ele>536.0</ele><time>2026-04-06T15:45:53.505Z</time></trkpt><trkpt lat="40.6720175" lon="15.178804"><ele>536.0</ele><time>2026-04-06T15:45:56.505Z</time></trkpt><trkpt lat="40.6719235" lon="15.1788369"><ele>536.0</ele><time>2026-04-06T15:46:50.506Z</time></trkpt><trkpt lat="40.6718637" lon="15.1788651"><ele>536.0</ele><time>2026-04-06T15:46:53.47Z</time></trkpt><trkpt lat="40.6717904" lon="15.178904"><ele>534.5714285714286</ele><time>2026-04-06T15:46:57.551Z</time></trkpt><trkpt lat="40.6717254" lon="15.1789271"><ele>533.1428571428571</ele><time>2026-04-06T15:47:00.522Z</time></trkpt><trkpt lat="40.6716635" lon="15.1789598"><ele>531.7142857142857</ele><time>2026-04-06T15:47:03.517Z</time></trkpt><trkpt lat="40.6715957" lon="15.1789871"><ele>530.2857142857142</ele><time>2026-04-06T15:47:06.517Z</time></trkpt><trkpt lat="40.6715228" lon="15.1790175"><ele>528.8571428571428</ele><time>2026-04-06T15:47:10.558Z</time></trkpt><trkpt lat="40.6714528" lon="15.1790492"><ele>527.4285714285714</ele><time>2026-04-06T15:47:13.389Z</time></trkpt><trkpt lat="40.6713781" lon="15.1790482"><ele>526.0</ele><time>2026-04-06T15:47:16.507Z</time></trkpt><trkpt lat="40.6712814" lon="15.1790046"><ele>526.0</ele><time>2026-04-06T15:47:19.517Z</time></trkpt><trkpt lat="40.6713572" lon="15.1790395"><ele>526.0</ele><time>2026-04-06T15:48:25.402Z</time></trkpt><trkpt lat="40.6714466" lon="15.1790205"><ele>526.0</ele><time>2026-04-06T15:48:28.522Z</time></trkpt><trkpt lat="40.6715182" lon="15.1789903"><ele>526.0</ele><time>2026-04-06T15:48:32.517Z</time></trkpt><trkpt lat="40.6715716" lon="15.1789178"><ele>526.0</ele><time>2026-04-06T15:48:35.517Z</time></trkpt><trkpt lat="40.6716364" lon="15.1789066"><ele>526.0</ele><time>2026-04-06T15:48:41.517Z</time></trkpt><trkpt lat="40.6717366" lon="15.178887"><ele>526.0</ele><time>2026-04-06T15:49:02.517Z</time></trkpt><trkpt lat="40.6716762" lon="15.1789152"><ele>526.0</ele><time>2026-04-06T15:49:25.513Z</time></trkpt><trkpt lat="40.6716226" lon="15.1789611"><ele>526.0</ele><time>2026-04-06T15:49:32.518Z</time></trkpt><trkpt lat="40.6715591" lon="15.1790073"><ele>526.0</ele><time>2026-04-06T15:49:38.385Z</time></trkpt><trkpt lat="40.6714993" lon="15.1790401"><ele>526.0</ele><time>2026-04-06T15:49:43.509Z</time></trkpt><trkpt lat="40.6714231" lon="15.1790489"><ele>526.0</ele><time>2026-04-06T15:49:49.548Z</time></trkpt><trkpt lat="40.6713524" lon="15.1790535"><ele>526.0</ele><time>2026-04-06T15:49:54.509Z</time></trkpt><trkpt lat="40.6712813" lon="15.1790589"><ele>526.0</ele><time>2026-04-06T15:50:00.517Z</time></trkpt><trkpt lat="40.6711915" lon="15.179019"><ele>526.0</ele><time>2026-04-06T15:50:09.517Z</time></trkpt><trkpt lat="40.6711191" lon="15.1790112"><ele>526.0</ele><time>2026-04-06T15:50:16.438Z</time></trkpt><trkpt lat="40.6710488" lon="15.1790227"><ele>526.0</ele><time>2026-04-06T15:50:18.517Z</time></trkpt><trkpt lat="40.6709726" lon="15.1790108"><ele>526.0</ele><time>2026-04-06T15:50:22.521Z</time></trkpt><trkpt lat="40.6709248" lon="15.1789555"><ele>526.0</ele><time>2026-04-06T15:50:27.517Z</time></trkpt><trkpt lat="40.670858" lon="15.1788686"><ele>524.0</ele><time>2026-04-06T15:50:34.517Z</time></trkpt><trkpt lat="40.6707811" lon="15.1788372"><ele>522.0</ele><time>2026-04-06T15:50:38.437Z</time></trkpt><trkpt lat="40.6707175" lon="15.178844"><ele>520.0</ele><time>2026-04-06T15:50:41.464Z</time></trkpt><trkpt lat="40.6706544" lon="15.178846"><ele>518.0</ele><time>2026-04-06T15:50:44.52Z</time></trkpt><trkpt lat="40.6705886" lon="15.1788274"><ele>516.0</ele><time>2026-04-06T15:50:49.517Z</time></trkpt><trkpt lat="40.6703071" lon="15.1786853"><ele>513.3333333333334</ele><time>2026-04-06T15:50:54.557Z</time></trkpt><trkpt lat="40.6700873" lon="15.1785632"><ele>510.6666666666667</ele><time>2026-04-06T15:50:55.517Z</time></trkpt><trkpt lat="40.6700161" lon="15.1785234"><ele>508.0</ele><time>2026-04-06T15:50:56.517Z</time></trkpt><trkpt lat="40.6698331" lon="15.1784704"><ele>508.00000000000006</ele><time>2026-04-06T15:50:58.517Z</time></trkpt><trkpt lat="40.6697695" lon="15.1784662"><ele>508.0</ele><time>2026-04-06T15:51:00.517Z</time></trkpt><trkpt lat="40.6696916" lon="15.1784473"><ele>508.0</ele><time>2026-04-06T15:51:02.517Z</time></trkpt><trkpt lat="40.6696157" lon="15.1784448"><ele>508.0</ele><time>2026-04-06T15:51:04.517Z</time></trkpt><trkpt lat="40.6695223" lon="15.1784435"><ele>508.00000000000006</ele><time>2026-04-06T15:51:06.517Z</time></trkpt><trkpt lat="40.669449" lon="15.1784191"><ele>508.0</ele><time>2026-04-06T15:51:08.517Z</time></trkpt><trkpt lat="40.6693706" lon="15.1783943"><ele>505.79999999999995</ele><time>2026-04-06T15:51:10.517Z</time></trkpt><trkpt lat="40.6692831" lon="15.1783698"><ele>503.59999999999997</ele><time>2026-04-06T15:51:12.517Z</time></trkpt><trkpt lat="40.6691847" lon="15.1783751"><ele>501.40000000000003</ele><time>2026-04-06T15:51:14.517Z</time></trkpt><trkpt lat="40.6690933" lon="15.1783613"><ele>499.20000000000005</ele><time>2026-04-06T15:51:16.517Z</time></trkpt><trkpt lat="40.6689961" lon="15.1783492"><ele>497.0</ele><time>2026-04-06T15:51:18.517Z</time></trkpt><trkpt lat="40.6689133" lon="15.1783345"><ele>496.99999999999994</ele><time>2026-04-06T15:51:20.517Z</time></trkpt><trkpt lat="40.6688375" lon="15.1783175"><ele>497.0</ele><time>2026-04-06T15:51:22.517Z</time></trkpt><trkpt lat="40.6687611" lon="15.1782917"><ele>497.0</ele><time>2026-04-06T15:51:24.517Z</time></trkpt><trkpt lat="40.668689" lon="15.1782643"><ele>497.0</ele><time>2026-04-06T15:51:26.517Z</time></trkpt><trkpt lat="40.6686003" lon="15.1782122"><ele>496.99999999999994</ele><time>2026-04-06T15:51:29.517Z</time></trkpt><trkpt lat="40.6685258" lon="15.1781638"><ele>497.0</ele><time>2026-04-06T15:51:31.517Z</time></trkpt><trkpt lat="40.6684494" lon="15.1781069"><ele>496.66666666666663</ele><time>2026-04-06T15:51:33.517Z</time></trkpt><trkpt lat="40.6683677" lon="15.1780547"><ele>496.3333333333333</ele><time>2026-04-06T15:51:35.518Z</time></trkpt><trkpt lat="40.668296" lon="15.1779975"><ele>496.0</ele><time>2026-04-06T15:51:37.517Z</time></trkpt><trkpt lat="40.6682252" lon="15.1779554"><ele>495.66666666666663</ele><time>2026-04-06T15:51:39.518Z</time></trkpt><trkpt lat="40.6681423" lon="15.1779182"><ele>495.3333333333333</ele><time>2026-04-06T15:51:42.517Z</time></trkpt><trkpt lat="40.6680532" lon="15.1779056"><ele>495.0</ele><time>2026-04-06T15:51:45.518Z</time></trkpt><trkpt lat="40.6679848" lon="15.1779073"><ele>494.99999999999994</ele><time>2026-04-06T15:51:47.518Z</time></trkpt><trkpt lat="40.6679155" lon="15.1779055"><ele>495.0</ele><time>2026-04-06T15:51:49.517Z</time></trkpt><trkpt lat="40.6678378" lon="15.1779024"><ele>494.99999999999994</ele><time>2026-04-06T15:51:51.517Z</time></trkpt><trkpt lat="40.6677695" lon="15.1779053"><ele>494.99999999999994</ele><time>2026-04-06T15:51:53.517Z</time></trkpt><trkpt lat="40.6677006" lon="15.1779116"><ele>495.0</ele><time>2026-04-06T15:51:55.517Z</time></trkpt><trkpt lat="40.6676365" lon="15.1779043"><ele>494.99999999999994</ele><time>2026-04-06T15:51:57.517Z</time></trkpt><trkpt lat="40.6675701" lon="15.1779041"><ele>494.99999999999994</ele><time>2026-04-06T15:51:59.517Z</time></trkpt><trkpt lat="40.6674778" lon="15.1778888"><ele>493.71428571428567</ele><time>2026-04-06T15:52:02.517Z</time></trkpt><trkpt lat="40.6673941" lon="15.1778537"><ele>492.42857142857144</ele><time>2026-04-06T15:52:05.517Z</time></trkpt><trkpt lat="40.6673277" lon="15.1778315"><ele>491.1428571428571</ele><time>2026-04-06T15:52:07.518Z</time></trkpt><trkpt lat="40.667258" lon="15.1778063"><ele>489.85714285714283</ele><time>2026-04-06T15:52:09.517Z</time></trkpt><trkpt lat="40.6671906" lon="15.1777768"><ele>488.57142857142856</ele><time>2026-04-06T15:52:11.517Z</time></trkpt><trkpt lat="40.6671278" lon="15.1777428"><ele>487.2857142857143</ele><time>2026-04-06T15:52:13.517Z</time></trkpt><trkpt lat="40.667067" lon="15.1777038"><ele>486.0</ele><time>2026-04-06T15:52:15.517Z</time></trkpt><trkpt lat="40.6669988" lon="15.1776779"><ele>484.6666666666667</ele><time>2026-04-06T15:52:17.516Z</time></trkpt><trkpt lat="40.6669402" lon="15.1776387"><ele>483.33333333333337</ele><time>2026-04-06T15:52:19.516Z</time></trkpt><trkpt lat="40.6668614" lon="15.1775934"><ele>482.0</ele><time>2026-04-06T15:52:22.516Z</time></trkpt><trkpt lat="40.6667858" lon="15.1775466"><ele>480.6666666666667</ele><time>2026-04-06T15:52:25.516Z</time></trkpt><trkpt lat="40.6667312" lon="15.1774865"><ele>479.33333333333337</ele><time>2026-04-06T15:52:28.516Z</time></trkpt><trkpt lat="40.6666528" lon="15.177441"><ele>478.0</ele><time>2026-04-06T15:52:31.517Z</time></trkpt><trkpt lat="40.6665656" lon="15.1773839"><ele>478.00000000000006</ele><time>2026-04-06T15:52:34.516Z</time></trkpt><trkpt lat="40.6664981" lon="15.1773417"><ele>478.0</ele><time>2026-04-06T15:52:36.516Z</time></trkpt><trkpt lat="40.66644" lon="15.1773085"><ele>478.0</ele><time>2026-04-06T15:52:38.517Z</time></trkpt><trkpt lat="40.6663826" lon="15.177265"><ele>478.0</ele><time>2026-04-06T15:52:40.517Z</time></trkpt><trkpt lat="40.6663047" lon="15.1771964"><ele>478.00000000000006</ele><time>2026-04-06T15:52:43.517Z</time></trkpt><trkpt lat="40.6662389" lon="15.1771005"><ele>478.0</ele><time>2026-04-06T15:52:46.516Z</time></trkpt><trkpt lat="40.6662019" lon="15.1770282"><ele>478.00000000000006</ele><time>2026-04-06T15:52:48.516Z</time></trkpt><trkpt lat="40.6661662" lon="15.1769381"><ele>478.0</ele><time>2026-04-06T15:52:50.516Z</time></trkpt><trkpt lat="40.6661295" lon="15.1768276"><ele>478.0</ele><time>2026-04-06T15:52:52.516Z</time></trkpt><trkpt lat="40.6660871" lon="15.1767375"><ele>478.0</ele><time>2026-04-06T15:52:54.516Z</time></trkpt><trkpt lat="40.6660492" lon="15.1766527"><ele>478.00000000000006</ele><time>2026-04-06T15:52:56.516Z</time></trkpt><trkpt lat="40.6660074" lon="15.1765491"><ele>478.0</ele><time>2026-04-06T15:52:58.516Z</time></trkpt><trkpt lat="40.6659706" lon="15.1764709"><ele>475.6666666666667</ele><time>2026-04-06T15:53:00.516Z</time></trkpt><trkpt lat="40.66592" lon="15.1763745"><ele>473.33333333333337</ele><time>2026-04-06T15:53:02.516Z</time></trkpt><trkpt lat="40.665871" lon="15.1763072"><ele>471.0</ele><time>2026-04-06T15:53:04.516Z</time></trkpt><trkpt lat="40.6658375" lon="15.1762095"><ele>468.66666666666663</ele><time>2026-04-06T15:53:07.516Z</time></trkpt><trkpt lat="40.6657752" lon="15.1761625"><ele>466.3333333333333</ele><time>2026-04-06T15:53:41.516Z</time></trkpt><trkpt lat="40.6657199" lon="15.1760769"><ele>464.0</ele><time>2026-04-06T15:53:44.52Z</time></trkpt><trkpt lat="40.6656765" lon="15.1759971"><ele>463.99999999999994</ele><time>2026-04-06T15:53:47.52Z</time></trkpt><trkpt lat="40.6656255" lon="15.1759414"><ele>464.0</ele><time>2026-04-06T15:53:50.52Z</time></trkpt><trkpt lat="40.6655484" lon="15.1758605"><ele>464.0</ele><time>2026-04-06T15:53:53.52Z</time></trkpt><trkpt lat="40.6654871" lon="15.1758249"><ele>464.0</ele><time>2026-04-06T15:53:55.52Z</time></trkpt><trkpt lat="40.6654133" lon="15.1758142"><ele>463.99999999999994</ele><time>2026-04-06T15:53:57.521Z</time></trkpt><trkpt lat="40.6653359" lon="15.1757884"><ele>464.0</ele><time>2026-04-06T15:53:59.52Z</time></trkpt><trkpt lat="40.6652512" lon="15.1757426"><ele>463.16666666666663</ele><time>2026-04-06T15:54:01.52Z</time></trkpt><trkpt lat="40.6651623" lon="15.1757022"><ele>462.3333333333333</ele><time>2026-04-06T15:54:03.52Z</time></trkpt><trkpt lat="40.6650786" lon="15.1756655"><ele>461.5</ele><time>2026-04-06T15:54:05.52Z</time></trkpt><trkpt lat="40.665005" lon="15.1756237"><ele>460.66666666666663</ele><time>2026-04-06T15:54:07.52Z</time></trkpt><trkpt lat="40.6649407" lon="15.1755945"><ele>459.8333333333333</ele><time>2026-04-06T15:54:09.521Z</time></trkpt><trkpt lat="40.6648736" lon="15.1755636"><ele>459.0</ele><time>2026-04-06T15:54:11.52Z</time></trkpt><trkpt lat="40.6648021" lon="15.175537"><ele>457.6666666666667</ele><time>2026-04-06T15:54:13.52Z</time></trkpt><trkpt lat="40.6647303" lon="15.175509"><ele>456.33333333333337</ele><time>2026-04-06T15:54:15.52Z</time></trkpt><trkpt lat="40.664671" lon="15.175463"><ele>455.0</ele><time>2026-04-06T15:54:17.52Z</time></trkpt><trkpt lat="40.6646443" lon="15.1753617"><ele>453.6666666666667</ele><time>2026-04-06T15:54:20.52Z</time></trkpt><trkpt lat="40.6647042" lon="15.1752955"><ele>452.33333333333337</ele><time>2026-04-06T15:54:22.52Z</time></trkpt><trkpt lat="40.6647948" lon="15.175258"><ele>451.0</ele><time>2026-04-06T15:54:25.52Z</time></trkpt><trkpt lat="40.6648745" lon="15.1752286"><ele>451.00000000000006</ele><time>2026-04-06T15:54:27.52Z</time></trkpt><trkpt lat="40.6649413" lon="15.1752077"><ele>451.0</ele><time>2026-04-06T15:54:29.52Z</time></trkpt><trkpt lat="40.6650288" lon="15.175142"><ele>451.0</ele><time>2026-04-06T15:54:32.52Z</time></trkpt><trkpt lat="40.6650891" lon="15.1751039"><ele>451.0</ele><time>2026-04-06T15:54:34.52Z</time></trkpt><trkpt lat="40.6651479" lon="15.1750486"><ele>451.00000000000006</ele><time>2026-04-06T15:54:37.52Z</time></trkpt><trkpt lat="40.6651357" lon="15.174934"><ele>451.0</ele><time>2026-04-06T15:54:41.52Z</time></trkpt><trkpt lat="40.6651036" lon="15.1748596"><ele>450.33333333333337</ele><time>2026-04-06T15:54:43.52Z</time></trkpt><trkpt lat="40.6650673" lon="15.1747619"><ele>449.6666666666667</ele><time>2026-04-06T15:54:46.52Z</time></trkpt><trkpt lat="40.6650427" lon="15.1746812"><ele>449.0</ele><time>2026-04-06T15:54:49.52Z</time></trkpt><trkpt lat="40.6650051" lon="15.174597"><ele>448.33333333333337</ele><time>2026-04-06T15:54:51.52Z</time></trkpt><trkpt lat="40.664952" lon="15.1745115"><ele>447.6666666666667</ele><time>2026-04-06T15:54:53.52Z</time></trkpt><trkpt lat="40.6648893" lon="15.1743816"><ele>447.0</ele><time>2026-04-06T15:54:55.52Z</time></trkpt><trkpt lat="40.6648699" lon="15.1743019"><ele>447.0</ele><time>2026-04-06T15:54:56.521Z</time></trkpt><trkpt lat="40.6648568" lon="15.1742109"><ele>447.0</ele><time>2026-04-06T15:54:57.52Z</time></trkpt><trkpt lat="40.6648293" lon="15.1741168"><ele>447.0</ele><time>2026-04-06T15:54:58.52Z</time></trkpt><trkpt lat="40.6648063" lon="15.174007"><ele>447.0</ele><time>2026-04-06T15:54:59.52Z</time></trkpt><trkpt lat="40.6647948" lon="15.173887"><ele>447.0</ele><time>2026-04-06T15:55:00.52Z</time></trkpt><trkpt lat="40.6647831" lon="15.1737526"><ele>447.0</ele><time>2026-04-06T15:55:01.52Z</time></trkpt><trkpt lat="40.6647714" lon="15.1736229"><ele>446.0</ele><time>2026-04-06T15:55:02.52Z</time></trkpt><trkpt lat="40.6647696" lon="15.1734784"><ele>445.00000000000006</ele><time>2026-04-06T15:55:03.521Z</time></trkpt><trkpt lat="40.6647681" lon="15.1733408"><ele>444.00000000000006</ele><time>2026-04-06T15:55:04.52Z</time></trkpt><trkpt lat="40.664769" lon="15.1732132"><ele>443.0</ele><time>2026-04-06T15:55:05.52Z</time></trkpt><trkpt lat="40.6647779" lon="15.1730926"><ele>442.0</ele><time>2026-04-06T15:55:06.52Z</time></trkpt><trkpt lat="40.6647927" lon="15.1729897"><ele>442.0</ele><time>2026-04-06T15:55:07.52Z</time></trkpt><trkpt lat="40.6647928" lon="15.1728993"><ele>442.00000000000006</ele><time>2026-04-06T15:55:08.52Z</time></trkpt><trkpt lat="40.6647883" lon="15.1728164"><ele>442.00000000000006</ele><time>2026-04-06T15:55:09.52Z</time></trkpt><trkpt lat="40.6647449" lon="15.1726774"><ele>442.0</ele><time>2026-04-06T15:55:11.52Z</time></trkpt><trkpt lat="40.6646702" lon="15.172562"><ele>442.0</ele><time>2026-04-06T15:55:13.52Z</time></trkpt><trkpt lat="40.6645283" lon="15.1725439"><ele>439.1666666666667</ele><time>2026-04-06T15:55:15.519Z</time></trkpt><trkpt lat="40.6644203" lon="15.1725524"><ele>436.33333333333337</ele><time>2026-04-06T15:55:17.519Z</time></trkpt><trkpt lat="40.6643431" lon="15.172656"><ele>433.5</ele><time>2026-04-06T15:55:19.519Z</time></trkpt><trkpt lat="40.6643176" lon="15.1727331"><ele>430.66666666666663</ele><time>2026-04-06T15:55:20.519Z</time></trkpt><trkpt lat="40.6642874" lon="15.172808"><ele>427.8333333333333</ele><time>2026-04-06T15:55:21.519Z</time></trkpt><trkpt lat="40.6642702" lon="15.1728912"><ele>425.0</ele><time>2026-04-06T15:55:22.519Z</time></trkpt><trkpt lat="40.6642418" lon="15.1729851"><ele>425.0</ele><time>2026-04-06T15:55:23.519Z</time></trkpt><trkpt lat="40.6641875" lon="15.1731241"><ele>425.0</ele><time>2026-04-06T15:55:25.519Z</time></trkpt><trkpt lat="40.6641365" lon="15.1732333"><ele>425.0</ele><time>2026-04-06T15:55:27.519Z</time></trkpt><trkpt lat="40.6640888" lon="15.1733067"><ele>425.0</ele><time>2026-04-06T15:55:29.519Z</time></trkpt><trkpt lat="40.6640166" lon="15.173363"><ele>425.0</ele><time>2026-04-06T15:55:31.519Z</time></trkpt><trkpt lat="40.6639564" lon="15.1732985"><ele>425.0</ele><time>2026-04-06T15:55:33.519Z</time></trkpt><trkpt lat="40.6639505" lon="15.1731275"><ele>425.0</ele><time>2026-04-06T15:55:35.519Z</time></trkpt><trkpt lat="40.6639482" lon="15.1730306"><ele>425.0</ele><time>2026-04-06T15:55:36.519Z</time></trkpt><trkpt lat="40.6639492" lon="15.1729357"><ele>425.0</ele><time>2026-04-06T15:55:37.519Z</time></trkpt><trkpt lat="40.6639386" lon="15.172853"><ele>425.0</ele><time>2026-04-06T15:55:38.519Z</time></trkpt><trkpt lat="40.6639047" lon="15.172697"><ele>424.99999999999994</ele><time>2026-04-06T15:55:40.519Z</time></trkpt><trkpt lat="40.6638618" lon="15.172616"><ele>425.0</ele><time>2026-04-06T15:55:41.519Z</time></trkpt><trkpt lat="40.6638076" lon="15.1725433"><ele>425.0</ele><time>2026-04-06T15:55:42.519Z</time></trkpt><trkpt lat="40.6637598" lon="15.1724792"><ele>425.0</ele><time>2026-04-06T15:55:43.519Z</time></trkpt><trkpt lat="40.6637146" lon="15.1724065"><ele>424.99999999999994</ele><time>2026-04-06T15:55:44.519Z</time></trkpt><trkpt lat="40.6636697" lon="15.172319"><ele>425.0</ele><time>2026-04-06T15:55:45.519Z</time></trkpt><trkpt lat="40.6636433" lon="15.1722134"><ele>424.8333333333333</ele><time>2026-04-06T15:55:46.519Z</time></trkpt><trkpt lat="40.6636249" lon="15.1720964"><ele>424.66666666666663</ele><time>2026-04-06T15:55:47.519Z</time></trkpt><trkpt lat="40.6636046" lon="15.1719792"><ele>424.5</ele><time>2026-04-06T15:55:48.519Z</time></trkpt><trkpt lat="40.6636042" lon="15.1718621"><ele>424.33333333333337</ele><time>2026-04-06T15:55:49.52Z</time></trkpt><trkpt lat="40.6635986" lon="15.1717408"><ele>424.1666666666667</ele><time>2026-04-06T15:55:50.519Z</time></trkpt><trkpt lat="40.6635882" lon="15.1716285"><ele>424.0</ele><time>2026-04-06T15:55:51.519Z</time></trkpt><trkpt lat="40.6635836" lon="15.1715345"><ele>419.2</ele><time>2026-04-06T15:55:52.52Z</time></trkpt><trkpt lat="40.663572" lon="15.1714369"><ele>414.4</ele><time>2026-04-06T15:55:53.52Z</time></trkpt><trkpt lat="40.6635477" lon="15.1713509"><ele>409.6</ele><time>2026-04-06T15:55:54.519Z</time></trkpt><trkpt lat="40.663489" lon="15.1711979"><ele>404.8</ele><time>2026-04-06T15:55:56.519Z</time></trkpt><trkpt lat="40.6634659" lon="15.1710664"><ele>400.0</ele><time>2026-04-06T15:55:58.519Z</time></trkpt><trkpt lat="40.663516" lon="15.1709365"><ele>400.00000000000006</ele><time>2026-04-06T15:56:00.519Z</time></trkpt><trkpt lat="40.6635362" lon="15.1708525"><ele>400.0</ele><time>2026-04-06T15:56:01.519Z</time></trkpt><trkpt lat="40.6635431" lon="15.1707613"><ele>400.0</ele><time>2026-04-06T15:56:02.519Z</time></trkpt><trkpt lat="40.6635493" lon="15.1706666"><ele>400.0</ele><time>2026-04-06T15:56:03.52Z</time></trkpt><trkpt lat="40.6635422" lon="15.1705609"><ele>400.00000000000006</ele><time>2026-04-06T15:56:04.519Z</time></trkpt><trkpt lat="40.6635302" lon="15.1704489"><ele>400.0</ele><time>2026-04-06T15:56:05.519Z</time></trkpt><trkpt lat="40.6634986" lon="15.1703577"><ele>401.50000000000006</ele><time>2026-04-06T15:56:06.519Z</time></trkpt><trkpt lat="40.6634423" lon="15.1702569"><ele>403.0</ele><time>2026-04-06T15:56:07.519Z</time></trkpt><trkpt lat="40.6633773" lon="15.1701887"><ele>404.5</ele><time>2026-04-06T15:56:08.519Z</time></trkpt><trkpt lat="40.6633093" lon="15.1701272"><ele>406.0</ele><time>2026-04-06T15:56:09.52Z</time></trkpt><trkpt lat="40.6632481" lon="15.1700803"><ele>407.50000000000006</ele><time>2026-04-06T15:56:10.519Z</time></trkpt><trkpt lat="40.6631838" lon="15.1700294"><ele>409.0</ele><time>2026-04-06T15:56:11.519Z</time></trkpt><trkpt lat="40.6631331" lon="15.1699654"><ele>409.00000000000006</ele><time>2026-04-06T15:56:12.519Z</time></trkpt><trkpt lat="40.6630963" lon="15.1698843"><ele>409.0</ele><time>2026-04-06T15:56:13.519Z</time></trkpt><trkpt lat="40.6630535" lon="15.1697926"><ele>409.0</ele><time>2026-04-06T15:56:14.519Z</time></trkpt><trkpt lat="40.6630194" lon="15.1696836"><ele>409.0</ele><time>2026-04-06T15:56:15.519Z</time></trkpt><trkpt lat="40.6629756" lon="15.1695731"><ele>409.00000000000006</ele><time>2026-04-06T15:56:16.519Z</time></trkpt><trkpt lat="40.6629255" lon="15.169471"><ele>409.0</ele><time>2026-04-06T15:56:17.519Z</time></trkpt><trkpt lat="40.6628864" lon="15.1693608"><ele>410.00000000000006</ele><time>2026-04-06T15:56:18.519Z</time></trkpt><trkpt lat="40.6628461" lon="15.1692582"><ele>411.0</ele><time>2026-04-06T15:56:19.519Z</time></trkpt><trkpt lat="40.6628153" lon="15.1691793"><ele>412.0</ele><time>2026-04-06T15:56:20.519Z</time></trkpt><trkpt lat="40.662753" lon="15.1690537"><ele>413.0</ele><time>2026-04-06T15:56:22.519Z</time></trkpt><trkpt lat="40.6626943" lon="15.1689599"><ele>414.00000000000006</ele><time>2026-04-06T15:56:24.519Z</time></trkpt><trkpt lat="40.6626337" lon="15.1688934"><ele>415.0</ele><time>2026-04-06T15:56:26.519Z</time></trkpt><trkpt lat="40.6625416" lon="15.1688736"><ele>415.00000000000006</ele><time>2026-04-06T15:56:29.519Z</time></trkpt><trkpt lat="40.6624643" lon="15.1688748"><ele>415.0</ele><time>2026-04-06T15:56:32.52Z</time></trkpt><trkpt lat="40.662364" lon="15.168874"><ele>415.0</ele><time>2026-04-06T15:56:34.52Z</time></trkpt><trkpt lat="40.6623074" lon="15.1688237"><ele>415.0</ele><time>2026-04-06T15:56:36.519Z</time></trkpt><trkpt lat="40.6623547" lon="15.1687524"><ele>415.00000000000006</ele><time>2026-04-06T15:57:38.519Z</time></trkpt><trkpt lat="40.6624279" lon="15.1687015"><ele>415.0</ele><time>2026-04-06T15:57:40.52Z</time></trkpt><trkpt lat="40.6624865" lon="15.1686448"><ele>415.0</ele><time>2026-04-06T15:57:42.52Z</time></trkpt><trkpt lat="40.6624453" lon="15.1685511"><ele>415.0</ele><time>2026-04-06T15:57:45.519Z</time></trkpt><trkpt lat="40.6623802" lon="15.1685479"><ele>415.0</ele><time>2026-04-06T15:57:47.519Z</time></trkpt><trkpt lat="40.6623019" lon="15.1685529"><ele>415.0</ele><time>2026-04-06T15:57:49.519Z</time></trkpt><trkpt lat="40.6621918" lon="15.1685985"><ele>415.0</ele><time>2026-04-06T15:57:51.519Z</time></trkpt><trkpt lat="40.6620713" lon="15.1686715"><ele>415.00000000000006</ele><time>2026-04-06T15:57:53.519Z</time></trkpt><trkpt lat="40.6619953" lon="15.1687311"><ele>415.0</ele><time>2026-04-06T15:57:54.519Z</time></trkpt><trkpt lat="40.6619224" lon="15.1687955"><ele>415.0</ele><time>2026-04-06T15:57:55.519Z</time></trkpt><trkpt lat="40.6618662" lon="15.1688752"><ele>415.0</ele><time>2026-04-06T15:57:56.519Z</time></trkpt><trkpt lat="40.6618158" lon="15.1689489"><ele>415.00000000000006</ele><time>2026-04-06T15:57:57.519Z</time></trkpt><trkpt lat="40.6617846" lon="15.1690312"><ele>415.0</ele><time>2026-04-06T15:57:58.519Z</time></trkpt><trkpt lat="40.6617879" lon="15.1691933"><ele>415.2857142857143</ele><time>2026-04-06T15:58:00.519Z</time></trkpt><trkpt lat="40.6618243" lon="15.1692776"><ele>415.57142857142856</ele><time>2026-04-06T15:58:01.519Z</time></trkpt><trkpt lat="40.6618511" lon="15.1693598"><ele>415.8571428571429</ele><time>2026-04-06T15:58:02.519Z</time></trkpt><trkpt lat="40.6618823" lon="15.1694432"><ele>416.1428571428571</ele><time>2026-04-06T15:58:03.519Z</time></trkpt><trkpt lat="40.6618964" lon="15.1695251"><ele>416.4285714285714</ele><time>2026-04-06T15:58:04.519Z</time></trkpt><trkpt lat="40.6618629" lon="15.1696395"><ele>416.7142857142857</ele><time>2026-04-06T15:58:06.519Z</time></trkpt><trkpt lat="40.6617999" lon="15.1696511"><ele>417.0</ele><time>2026-04-06T15:58:07.519Z</time></trkpt><trkpt lat="40.6617367" lon="15.1696438"><ele>417.0</ele><time>2026-04-06T15:58:08.519Z</time></trkpt><trkpt lat="40.6616752" lon="15.1696135"><ele>417.0</ele><time>2026-04-06T15:58:09.519Z</time></trkpt><trkpt lat="40.6616021" lon="15.1695591"><ele>417.0</ele><time>2026-04-06T15:58:10.519Z</time></trkpt><trkpt lat="40.6615301" lon="15.1695017"><ele>417.0</ele><time>2026-04-06T15:58:11.519Z</time></trkpt><trkpt lat="40.6614655" lon="15.1694508"><ele>417.0</ele><time>2026-04-06T15:58:12.519Z</time></trkpt><trkpt lat="40.6613958" lon="15.1694204"><ele>417.0</ele><time>2026-04-06T15:58:13.519Z</time></trkpt><trkpt lat="40.6612836" lon="15.1694584"><ele>417.0</ele><time>2026-04-06T15:58:15.519Z</time></trkpt><trkpt lat="40.661229" lon="15.1695163"><ele>417.0</ele><time>2026-04-06T15:58:16.52Z</time></trkpt><trkpt lat="40.6611796" lon="15.1696115"><ele>417.0</ele><time>2026-04-06T15:58:17.519Z</time></trkpt><trkpt lat="40.6611346" lon="15.1696924"><ele>417.0</ele><time>2026-04-06T15:58:18.519Z</time></trkpt><trkpt lat="40.6611229" lon="15.1697786"><ele>417.0</ele><time>2026-04-06T15:58:19.519Z</time></trkpt><trkpt lat="40.6611121" lon="15.1698754"><ele>417.0</ele><time>2026-04-06T15:58:20.519Z</time></trkpt><trkpt lat="40.6611268" lon="15.1699974"><ele>416.0</ele><time>2026-04-06T15:58:21.519Z</time></trkpt><trkpt lat="40.6611165" lon="15.1700959"><ele>415.0</ele><time>2026-04-06T15:58:22.519Z</time></trkpt><trkpt lat="40.6611036" lon="15.1701938"><ele>414.0</ele><time>2026-04-06T15:58:23.519Z</time></trkpt><trkpt lat="40.6610849" lon="15.1702867"><ele>413.0</ele><time>2026-04-06T15:58:24.519Z</time></trkpt><trkpt lat="40.6610694" lon="15.1703706"><ele>412.0</ele><time>2026-04-06T15:58:25.519Z</time></trkpt><trkpt lat="40.6610464" lon="15.1704502"><ele>411.0</ele><time>2026-04-06T15:58:26.519Z</time></trkpt><trkpt lat="40.660999" lon="15.1706092"><ele>413.5</ele><time>2026-04-06T15:58:28.519Z</time></trkpt><trkpt lat="40.6609702" lon="15.1706997"><ele>416.0</ele><time>2026-04-06T15:58:29.519Z</time></trkpt><trkpt lat="40.6609384" lon="15.170788"><ele>418.5</ele><time>2026-04-06T15:58:30.519Z</time></trkpt><trkpt lat="40.6608958" lon="15.1708627"><ele>421.0</ele><time>2026-04-06T15:58:31.519Z</time></trkpt><trkpt lat="40.6608347" lon="15.1709246"><ele>423.5</ele><time>2026-04-06T15:58:32.519Z</time></trkpt><trkpt lat="40.6607503" lon="15.1709748"><ele>426.0</ele><time>2026-04-06T15:58:33.519Z</time></trkpt><trkpt lat="40.660649" lon="15.1710059"><ele>426.0</ele><time>2026-04-06T15:58:34.519Z</time></trkpt><trkpt lat="40.6605687" lon="15.1710111"><ele>426.0</ele><time>2026-04-06T15:58:35.519Z</time></trkpt><trkpt lat="40.66049" lon="15.1710032"><ele>426.0</ele><time>2026-04-06T15:58:36.519Z</time></trkpt><trkpt lat="40.6604142" lon="15.1709998"><ele>426.0</ele><time>2026-04-06T15:58:37.519Z</time></trkpt><trkpt lat="40.6603345" lon="15.1709953"><ele>426.0</ele><time>2026-04-06T15:58:38.519Z</time></trkpt><trkpt lat="40.660271" lon="15.17098"><ele>426.0</ele><time>2026-04-06T15:58:39.519Z</time></trkpt><trkpt lat="40.6602016" lon="15.17096"><ele>427.3333333333333</ele><time>2026-04-06T15:58:40.519Z</time></trkpt><trkpt lat="40.6601346" lon="15.1709374"><ele>428.66666666666663</ele><time>2026-04-06T15:58:41.519Z</time></trkpt><trkpt lat="40.660048" lon="15.1709015"><ele>430.0</ele><time>2026-04-06T15:58:42.519Z</time></trkpt><trkpt lat="40.659965" lon="15.1708645"><ele>431.3333333333333</ele><time>2026-04-06T15:58:43.519Z</time></trkpt><trkpt lat="40.6598857" lon="15.1708327"><ele>432.66666666666663</ele><time>2026-04-06T15:58:44.519Z</time></trkpt><trkpt lat="40.6598185" lon="15.1707979"><ele>434.0</ele><time>2026-04-06T15:58:45.52Z</time></trkpt><trkpt lat="40.6597231" lon="15.1707019"><ele>435.2857142857143</ele><time>2026-04-06T15:58:47.519Z</time></trkpt><trkpt lat="40.6596787" lon="15.1706326"><ele>436.57142857142856</ele><time>2026-04-06T15:58:48.519Z</time></trkpt><trkpt lat="40.6596288" lon="15.170565"><ele>437.8571428571429</ele><time>2026-04-06T15:58:49.52Z</time></trkpt><trkpt lat="40.6595857" lon="15.170489"><ele>439.1428571428571</ele><time>2026-04-06T15:58:50.519Z</time></trkpt><trkpt lat="40.6595445" lon="15.1704063"><ele>440.42857142857144</ele><time>2026-04-06T15:58:51.519Z</time></trkpt><trkpt lat="40.6594959" lon="15.1703344"><ele>441.7142857142857</ele><time>2026-04-06T15:58:52.519Z</time></trkpt><trkpt lat="40.6594522" lon="15.1702536"><ele>443.0</ele><time>2026-04-06T15:58:53.519Z</time></trkpt><trkpt lat="40.6594019" lon="15.1701831"><ele>442.99999999999994</ele><time>2026-04-06T15:58:54.519Z</time></trkpt><trkpt lat="40.6593571" lon="15.1701061"><ele>443.0</ele><time>2026-04-06T15:58:55.519Z</time></trkpt><trkpt lat="40.6593064" lon="15.1700232"><ele>443.0</ele><time>2026-04-06T15:58:56.519Z</time></trkpt><trkpt lat="40.6592588" lon="15.1699311"><ele>443.0</ele><time>2026-04-06T15:58:57.519Z</time></trkpt><trkpt lat="40.6592019" lon="15.1698466"><ele>442.99999999999994</ele><time>2026-04-06T15:58:58.519Z</time></trkpt><trkpt lat="40.6591438" lon="15.1697658"><ele>443.0</ele><time>2026-04-06T15:58:59.519Z</time></trkpt><trkpt lat="40.6590542" lon="15.169734"><ele>444.4</ele><time>2026-04-06T15:59:00.519Z</time></trkpt><trkpt lat="40.6589963" lon="15.1696245"><ele>445.79999999999995</ele><time>2026-04-06T15:59:01.519Z</time></trkpt><trkpt lat="40.6589293" lon="15.169517"><ele>447.2</ele><time>2026-04-06T15:59:02.519Z</time></trkpt><trkpt lat="40.6588712" lon="15.1694284"><ele>448.6</ele><time>2026-04-06T15:59:03.519Z</time></trkpt><trkpt lat="40.658807" lon="15.1693443"><ele>450.0</ele><time>2026-04-06T15:59:04.519Z</time></trkpt><trkpt lat="40.6587499" lon="15.1692518"><ele>450.0</ele><time>2026-04-06T15:59:05.519Z</time></trkpt><trkpt lat="40.6586889" lon="15.1691619"><ele>450.0</ele><time>2026-04-06T15:59:06.519Z</time></trkpt><trkpt lat="40.658623" lon="15.169068"><ele>450.0</ele><time>2026-04-06T15:59:07.519Z</time></trkpt><trkpt lat="40.6585651" lon="15.1689725"><ele>450.0</ele><time>2026-04-06T15:59:08.519Z</time></trkpt><trkpt lat="40.6585116" lon="15.1688791"><ele>450.0</ele><time>2026-04-06T15:59:09.519Z</time></trkpt><trkpt lat="40.6584535" lon="15.1687902"><ele>449.5</ele><time>2026-04-06T15:59:10.519Z</time></trkpt><trkpt lat="40.6583915" lon="15.1687005"><ele>449.0</ele><time>2026-04-06T15:59:11.52Z</time></trkpt><trkpt lat="40.6583294" lon="15.1686097"><ele>448.5</ele><time>2026-04-06T15:59:12.519Z</time></trkpt><trkpt lat="40.6582663" lon="15.168522"><ele>448.0</ele><time>2026-04-06T15:59:13.519Z</time></trkpt><trkpt lat="40.6582086" lon="15.1684412"><ele>447.5</ele><time>2026-04-06T15:59:14.52Z</time></trkpt><trkpt lat="40.6581493" lon="15.1683563"><ele>447.0</ele><time>2026-04-06T15:59:15.519Z</time></trkpt><trkpt lat="40.6580943" lon="15.1682703"><ele>447.6</ele><time>2026-04-06T15:59:16.519Z</time></trkpt><trkpt lat="40.6580379" lon="15.1681858"><ele>448.20000000000005</ele><time>2026-04-06T15:59:17.519Z</time></trkpt><trkpt lat="40.6579752" lon="15.1680936"><ele>448.8</ele><time>2026-04-06T15:59:18.519Z</time></trkpt><trkpt lat="40.6579142" lon="15.1679975"><ele>449.4</ele><time>2026-04-06T15:59:19.52Z</time></trkpt><trkpt lat="40.6578526" lon="15.167903"><ele>450.0</ele><time>2026-04-06T15:59:20.519Z</time></trkpt><trkpt lat="40.6577905" lon="15.1678106"><ele>449.4</ele><time>2026-04-06T15:59:21.519Z</time></trkpt><trkpt lat="40.6577264" lon="15.1677197"><ele>448.8</ele><time>2026-04-06T15:59:22.519Z</time></trkpt><trkpt lat="40.6576632" lon="15.1676243"><ele>448.20000000000005</ele><time>2026-04-06T15:59:23.519Z</time></trkpt><trkpt lat="40.6575964" lon="15.1675256"><ele>447.6</ele><time>2026-04-06T15:59:24.519Z</time></trkpt><trkpt lat="40.6575304" lon="15.1674178"><ele>447.0</ele><time>2026-04-06T15:59:25.519Z</time></trkpt><trkpt lat="40.6574626" lon="15.1673082"><ele>447.0</ele><time>2026-04-06T15:59:26.519Z</time></trkpt><trkpt lat="40.6573977" lon="15.1671894"><ele>447.00000000000006</ele><time>2026-04-06T15:59:27.52Z</time></trkpt><trkpt lat="40.6573331" lon="15.167068"><ele>447.00000000000006</ele><time>2026-04-06T15:59:28.519Z</time></trkpt><trkpt lat="40.6572601" lon="15.1669528"><ele>447.0</ele><time>2026-04-06T15:59:29.519Z</time></trkpt><trkpt lat="40.6571948" lon="15.1668393"><ele>447.0</ele><time>2026-04-06T15:59:30.52Z</time></trkpt><trkpt lat="40.6571398" lon="15.1667395"><ele>447.0</ele><time>2026-04-06T15:59:31.519Z</time></trkpt><trkpt lat="40.6570833" lon="15.1666478"><ele>447.00000000000006</ele><time>2026-04-06T15:59:32.519Z</time></trkpt><trkpt lat="40.6570264" lon="15.1665558"><ele>447.00000000000006</ele><time>2026-04-06T15:59:33.519Z</time></trkpt><trkpt lat="40.6569755" lon="15.1664586"><ele>447.0</ele><time>2026-04-06T15:59:34.519Z</time></trkpt><trkpt lat="40.6569201" lon="15.1663602"><ele>447.0</ele><time>2026-04-06T15:59:35.52Z</time></trkpt><trkpt lat="40.6568658" lon="15.1662666"><ele>445.75</ele><time>2026-04-06T15:59:36.519Z</time></trkpt><trkpt lat="40.6568093" lon="15.1661677"><ele>444.5</ele><time>2026-04-06T15:59:37.519Z</time></trkpt><trkpt lat="40.6567519" lon="15.1660696"><ele>443.25</ele><time>2026-04-06T15:59:38.519Z</time></trkpt><trkpt lat="40.6566517" lon="15.1658664"><ele>442.0</ele><time>2026-04-06T15:59:40.519Z</time></trkpt><trkpt lat="40.656594" lon="15.1657667"><ele>442.6</ele><time>2026-04-06T15:59:41.519Z</time></trkpt><trkpt lat="40.656536" lon="15.1656622"><ele>443.20000000000005</ele><time>2026-04-06T15:59:42.519Z</time></trkpt><trkpt lat="40.6564789" lon="15.1655506"><ele>443.8</ele><time>2026-04-06T15:59:43.519Z</time></trkpt><trkpt lat="40.6564242" lon="15.1654373"><ele>444.4</ele><time>2026-04-06T15:59:44.519Z</time></trkpt><trkpt lat="40.6563678" lon="15.1653148"><ele>445.0</ele><time>2026-04-06T15:59:45.519Z</time></trkpt><trkpt lat="40.6563073" lon="15.1651948"><ele>445.00000000000006</ele><time>2026-04-06T15:59:46.519Z</time></trkpt><trkpt lat="40.6562523" lon="15.1650822"><ele>445.0</ele><time>2026-04-06T15:59:47.519Z</time></trkpt><trkpt lat="40.6561947" lon="15.1649775"><ele>445.0</ele><time>2026-04-06T15:59:48.519Z</time></trkpt><trkpt lat="40.6561464" lon="15.1648861"><ele>445.0</ele><time>2026-04-06T15:59:49.519Z</time></trkpt><trkpt lat="40.6561034" lon="15.1647948"><ele>445.00000000000006</ele><time>2026-04-06T15:59:50.519Z</time></trkpt><trkpt lat="40.6560586" lon="15.1647075"><ele>445.0</ele><time>2026-04-06T15:59:51.519Z</time></trkpt><trkpt lat="40.6560173" lon="15.1646201"><ele>444.00000000000006</ele><time>2026-04-06T15:59:52.519Z</time></trkpt><trkpt lat="40.6559824" lon="15.1645309"><ele>443.0</ele><time>2026-04-06T15:59:53.519Z</time></trkpt><trkpt lat="40.6559421" lon="15.1644437"><ele>442.0</ele><time>2026-04-06T15:59:54.519Z</time></trkpt><trkpt lat="40.6558933" lon="15.1643553"><ele>441.0</ele><time>2026-04-06T15:59:55.52Z</time></trkpt><trkpt lat="40.6558462" lon="15.1642671"><ele>440.00000000000006</ele><time>2026-04-06T15:59:56.52Z</time></trkpt><trkpt lat="40.655796" lon="15.1641644"><ele>439.0</ele><time>2026-04-06T15:59:57.519Z</time></trkpt><trkpt lat="40.6557428" lon="15.1640491"><ele>439.5</ele><time>2026-04-06T15:59:58.519Z</time></trkpt><trkpt lat="40.6556865" lon="15.1639291"><ele>440.0</ele><time>2026-04-06T15:59:59.519Z</time></trkpt><trkpt lat="40.6556254" lon="15.1637996"><ele>440.5</ele><time>2026-04-06T16:00:00.519Z</time></trkpt><trkpt lat="40.6555633" lon="15.1636647"><ele>441.0</ele><time>2026-04-06T16:00:01.519Z</time></trkpt><trkpt lat="40.6554916" lon="15.1635249"><ele>441.0</ele><time>2026-04-06T16:00:02.519Z</time></trkpt><trkpt lat="40.6554201" lon="15.1633851"><ele>441.0</ele><time>2026-04-06T16:00:03.519Z</time></trkpt><trkpt lat="40.655346" lon="15.1632399"><ele>441.0</ele><time>2026-04-06T16:00:04.519Z</time></trkpt><trkpt lat="40.6552792" lon="15.1631"><ele>441.0</ele><time>2026-04-06T16:00:05.519Z</time></trkpt><trkpt lat="40.6552198" lon="15.1629613"><ele>439.25</ele><time>2026-04-06T16:00:06.519Z</time></trkpt><trkpt lat="40.6551599" lon="15.162832"><ele>437.5</ele><time>2026-04-06T16:00:07.519Z</time></trkpt><trkpt lat="40.6551008" lon="15.162697"><ele>435.75</ele><time>2026-04-06T16:00:08.519Z</time></trkpt><trkpt lat="40.6550425" lon="15.1625569"><ele>434.0</ele><time>2026-04-06T16:00:09.519Z</time></trkpt><trkpt lat="40.6549819" lon="15.1624172"><ele>434.25</ele><time>2026-04-06T16:00:10.519Z</time></trkpt><trkpt lat="40.6549187" lon="15.1622738"><ele>434.5</ele><time>2026-04-06T16:00:11.519Z</time></trkpt><trkpt lat="40.6548524" lon="15.1621127"><ele>434.75</ele><time>2026-04-06T16:00:12.52Z</time></trkpt><trkpt lat="40.6547833" lon="15.1619495"><ele>435.0</ele><time>2026-04-06T16:00:13.52Z</time></trkpt><trkpt lat="40.6547195" lon="15.1617941"><ele>435.0</ele><time>2026-04-06T16:00:14.519Z</time></trkpt><trkpt lat="40.6546582" lon="15.1616434"><ele>435.0</ele><time>2026-04-06T16:00:15.519Z</time></trkpt><trkpt lat="40.6545955" lon="15.1614991"><ele>435.0</ele><time>2026-04-06T16:00:16.519Z</time></trkpt><trkpt lat="40.6545334" lon="15.1613528"><ele>435.0</ele><time>2026-04-06T16:00:17.519Z</time></trkpt><trkpt lat="40.6544759" lon="15.1612139"><ele>432.75</ele><time>2026-04-06T16:00:18.52Z</time></trkpt><trkpt lat="40.654419" lon="15.1610775"><ele>430.5</ele><time>2026-04-06T16:00:19.52Z</time></trkpt><trkpt lat="40.6543609" lon="15.1609398"><ele>428.25</ele><time>2026-04-06T16:00:20.519Z</time></trkpt><trkpt lat="40.6543099" lon="15.1608095"><ele>426.0</ele><time>2026-04-06T16:00:21.519Z</time></trkpt><trkpt lat="40.654263" lon="15.1606712"><ele>425.75</ele><time>2026-04-06T16:00:22.531Z</time></trkpt><trkpt lat="40.6542081" lon="15.1605387"><ele>425.5</ele><time>2026-04-06T16:00:23.532Z</time></trkpt><trkpt lat="40.6541608" lon="15.1604072"><ele>425.25</ele><time>2026-04-06T16:00:24.531Z</time></trkpt><trkpt lat="40.6541089" lon="15.1602698"><ele>425.0</ele><time>2026-04-06T16:00:25.531Z</time></trkpt><trkpt lat="40.6540572" lon="15.1601347"><ele>425.0</ele><time>2026-04-06T16:00:26.531Z</time></trkpt><trkpt lat="40.6540105" lon="15.1599993"><ele>425.0</ele><time>2026-04-06T16:00:27.531Z</time></trkpt><trkpt lat="40.6539702" lon="15.1598689"><ele>425.0</ele><time>2026-04-06T16:00:28.531Z</time></trkpt><trkpt lat="40.6539254" lon="15.1597391"><ele>425.0</ele><time>2026-04-06T16:00:29.531Z</time></trkpt><trkpt lat="40.6538819" lon="15.1596076"><ele>425.0</ele><time>2026-04-06T16:00:30.531Z</time></trkpt><trkpt lat="40.6538358" lon="15.1594821"><ele>424.8</ele><time>2026-04-06T16:00:31.531Z</time></trkpt><trkpt lat="40.6537936" lon="15.1593534"><ele>424.6</ele><time>2026-04-06T16:00:32.531Z</time></trkpt><trkpt lat="40.6537517" lon="15.1592267"><ele>424.4</ele><time>2026-04-06T16:00:33.531Z</time></trkpt><trkpt lat="40.6537083" lon="15.1591003"><ele>424.2</ele><time>2026-04-06T16:00:34.531Z</time></trkpt><trkpt lat="40.6536607" lon="15.1589741"><ele>424.0</ele><time>2026-04-06T16:00:35.531Z</time></trkpt><trkpt lat="40.6536157" lon="15.1588413"><ele>421.6</ele><time>2026-04-06T16:00:36.531Z</time></trkpt><trkpt lat="40.6535701" lon="15.1587099"><ele>419.2</ele><time>2026-04-06T16:00:37.531Z</time></trkpt><trkpt lat="40.6535249" lon="15.158576"><ele>416.8</ele><time>2026-04-06T16:00:38.531Z</time></trkpt><trkpt lat="40.6534808" lon="15.1584457"><ele>414.40000000000003</ele><time>2026-04-06T16:00:39.531Z</time></trkpt><trkpt lat="40.6534381" lon="15.1583209"><ele>412.0</ele><time>2026-04-06T16:00:40.532Z</time></trkpt><trkpt lat="40.6533929" lon="15.1581903"><ele>411.8</ele><time>2026-04-06T16:00:41.531Z</time></trkpt><trkpt lat="40.6533505" lon="15.1580576"><ele>411.6</ele><time>2026-04-06T16:00:42.531Z</time></trkpt><trkpt lat="40.6533061" lon="15.1579218"><ele>411.40000000000003</ele><time>2026-04-06T16:00:43.531Z</time></trkpt><trkpt lat="40.6532589" lon="15.1577941"><ele>411.20000000000005</ele><time>2026-04-06T16:00:44.531Z</time></trkpt><trkpt lat="40.6532162" lon="15.1576631"><ele>411.0</ele><time>2026-04-06T16:00:45.531Z</time></trkpt><trkpt lat="40.6531762" lon="15.157527"><ele>411.0</ele><time>2026-04-06T16:00:46.531Z</time></trkpt><trkpt lat="40.653141" lon="15.1573926"><ele>411.0</ele><time>2026-04-06T16:00:47.531Z</time></trkpt><trkpt lat="40.6531009" lon="15.1572582"><ele>411.0</ele><time>2026-04-06T16:00:48.531Z</time></trkpt><trkpt lat="40.6530577" lon="15.1571191"><ele>411.0</ele><time>2026-04-06T16:00:49.531Z</time></trkpt><trkpt lat="40.6530074" lon="15.1569818"><ele>411.0</ele><time>2026-04-06T16:00:50.531Z</time></trkpt><trkpt lat="40.6529539" lon="15.1568443"><ele>411.0</ele><time>2026-04-06T16:00:51.531Z</time></trkpt><trkpt lat="40.6529039" lon="15.1567085"><ele>411.0</ele><time>2026-04-06T16:00:52.531Z</time></trkpt><trkpt lat="40.6528553" lon="15.156571"><ele>411.0</ele><time>2026-04-06T16:00:53.531Z</time></trkpt><trkpt lat="40.6528094" lon="15.1564301"><ele>411.0</ele><time>2026-04-06T16:00:54.531Z</time></trkpt><trkpt lat="40.6527651" lon="15.1562908"><ele>408.25</ele><time>2026-04-06T16:00:55.531Z</time></trkpt><trkpt lat="40.6527149" lon="15.1561374"><ele>405.5</ele><time>2026-04-06T16:00:56.531Z</time></trkpt><trkpt lat="40.652666" lon="15.1559818"><ele>402.75</ele><time>2026-04-06T16:00:57.531Z</time></trkpt><trkpt lat="40.6526138" lon="15.1558269"><ele>400.0</ele><time>2026-04-06T16:00:58.531Z</time></trkpt><trkpt lat="40.6525681" lon="15.1556663"><ele>399.75</ele><time>2026-04-06T16:00:59.531Z</time></trkpt><trkpt lat="40.6525287" lon="15.1555068"><ele>399.5</ele><time>2026-04-06T16:01:00.531Z</time></trkpt><trkpt lat="40.6524837" lon="15.1553439"><ele>399.25</ele><time>2026-04-06T16:01:01.531Z</time></trkpt><trkpt lat="40.6524372" lon="15.1551843"><ele>399.0</ele><time>2026-04-06T16:01:02.531Z</time></trkpt><trkpt lat="40.6523947" lon="15.1550303"><ele>398.25</ele><time>2026-04-06T16:01:03.531Z</time></trkpt><trkpt lat="40.6523512" lon="15.1548709"><ele>397.5</ele><time>2026-04-06T16:01:04.531Z</time></trkpt><trkpt lat="40.652308" lon="15.1547099"><ele>396.75</ele><time>2026-04-06T16:01:05.531Z</time></trkpt><trkpt lat="40.6522642" lon="15.1545432"><ele>396.0</ele><time>2026-04-06T16:01:06.532Z</time></trkpt><trkpt lat="40.6522171" lon="15.1543902"><ele>396.0</ele><time>2026-04-06T16:01:07.531Z</time></trkpt><trkpt lat="40.6521705" lon="15.1542323"><ele>396.0</ele><time>2026-04-06T16:01:08.532Z</time></trkpt><trkpt lat="40.6521241" lon="15.1540826"><ele>396.0</ele><time>2026-04-06T16:01:09.531Z</time></trkpt><trkpt lat="40.6520816" lon="15.1539432"><ele>396.0</ele><time>2026-04-06T16:01:10.53Z</time></trkpt><trkpt lat="40.6520371" lon="15.1537975"><ele>395.25</ele><time>2026-04-06T16:01:11.53Z</time></trkpt><trkpt lat="40.6519995" lon="15.1536423"><ele>394.5</ele><time>2026-04-06T16:01:12.53Z</time></trkpt><trkpt lat="40.6519609" lon="15.1534902"><ele>393.75</ele><time>2026-04-06T16:01:13.53Z</time></trkpt><trkpt lat="40.6519089" lon="15.1533428"><ele>393.0</ele><time>2026-04-06T16:01:14.53Z</time></trkpt><trkpt lat="40.6518622" lon="15.1532047"><ele>391.2</ele><time>2026-04-06T16:01:15.53Z</time></trkpt><trkpt lat="40.6518166" lon="15.1530734"><ele>389.4</ele><time>2026-04-06T16:01:16.53Z</time></trkpt><trkpt lat="40.6517703" lon="15.1529392"><ele>387.59999999999997</ele><time>2026-04-06T16:01:17.53Z</time></trkpt><trkpt lat="40.6517285" lon="15.1528201"><ele>385.79999999999995</ele><time>2026-04-06T16:01:18.53Z</time></trkpt><trkpt lat="40.6516962" lon="15.1527038"><ele>384.0</ele><time>2026-04-06T16:01:19.531Z</time></trkpt><trkpt lat="40.6516627" lon="15.1525868"><ele>383.99999999999994</ele><time>2026-04-06T16:01:20.53Z</time></trkpt><trkpt lat="40.6516353" lon="15.1524906"><ele>384.0</ele><time>2026-04-06T16:01:21.53Z</time></trkpt><trkpt lat="40.6516094" lon="15.1523948"><ele>384.0</ele><time>2026-04-06T16:01:22.531Z</time></trkpt><trkpt lat="40.6515877" lon="15.1523068"><ele>384.0</ele><time>2026-04-06T16:01:23.531Z</time></trkpt><trkpt lat="40.6515644" lon="15.1522197"><ele>384.0</ele><time>2026-04-06T16:01:24.53Z</time></trkpt><trkpt lat="40.6515426" lon="15.1521323"><ele>383.99999999999994</ele><time>2026-04-06T16:01:25.53Z</time></trkpt><trkpt lat="40.651519" lon="15.1520426"><ele>384.0</ele><time>2026-04-06T16:01:26.53Z</time></trkpt><trkpt lat="40.6514981" lon="15.1519541"><ele>383.5</ele><time>2026-04-06T16:01:27.53Z</time></trkpt><trkpt lat="40.6514776" lon="15.1518617"><ele>383.0</ele><time>2026-04-06T16:01:28.53Z</time></trkpt><trkpt lat="40.65145" lon="15.1517747"><ele>382.5</ele><time>2026-04-06T16:01:29.53Z</time></trkpt><trkpt lat="40.6514237" lon="15.1516746"><ele>382.0</ele><time>2026-04-06T16:01:30.53Z</time></trkpt><trkpt lat="40.6513953" lon="15.151581"><ele>381.5</ele><time>2026-04-06T16:01:31.53Z</time></trkpt><trkpt lat="40.6513615" lon="15.1514772"><ele>381.0</ele><time>2026-04-06T16:01:32.53Z</time></trkpt><trkpt lat="40.6513212" lon="15.1513811"><ele>380.1666666666667</ele><time>2026-04-06T16:01:33.53Z</time></trkpt><trkpt lat="40.651271" lon="15.1512851"><ele>379.3333333333333</ele><time>2026-04-06T16:01:34.53Z</time></trkpt><trkpt lat="40.6512266" lon="15.1511713"><ele>378.5</ele><time>2026-04-06T16:01:35.53Z</time></trkpt><trkpt lat="40.6511778" lon="15.1510781"><ele>377.66666666666663</ele><time>2026-04-06T16:01:36.53Z</time></trkpt><trkpt lat="40.6511317" lon="15.1509956"><ele>376.8333333333333</ele><time>2026-04-06T16:01:37.53Z</time></trkpt><trkpt lat="40.6510889" lon="15.1509128"><ele>376.0</ele><time>2026-04-06T16:01:38.531Z</time></trkpt><trkpt lat="40.6510488" lon="15.1508258"><ele>375.0</ele><time>2026-04-06T16:01:39.53Z</time></trkpt><trkpt lat="40.6510056" lon="15.1507553"><ele>374.0</ele><time>2026-04-06T16:01:40.53Z</time></trkpt><trkpt lat="40.6509683" lon="15.1506747"><ele>373.0</ele><time>2026-04-06T16:01:41.53Z</time></trkpt><trkpt lat="40.6509318" lon="15.1506033"><ele>372.0</ele><time>2026-04-06T16:01:42.53Z</time></trkpt><trkpt lat="40.6508871" lon="15.1505326"><ele>371.0</ele><time>2026-04-06T16:01:43.53Z</time></trkpt><trkpt lat="40.6508523" lon="15.1504613"><ele>370.0</ele><time>2026-04-06T16:01:44.53Z</time></trkpt><trkpt lat="40.6508174" lon="15.1503911"><ele>369.0</ele><time>2026-04-06T16:01:45.53Z</time></trkpt><trkpt lat="40.6507793" lon="15.1503127"><ele>368.42857142857144</ele><time>2026-04-06T16:01:46.531Z</time></trkpt><trkpt lat="40.6507418" lon="15.1502302"><ele>367.85714285714283</ele><time>2026-04-06T16:01:47.53Z</time></trkpt><trkpt lat="40.650711" lon="15.1501535"><ele>367.28571428571433</ele><time>2026-04-06T16:01:48.531Z</time></trkpt><trkpt lat="40.650667" lon="15.1500812"><ele>366.7142857142857</ele><time>2026-04-06T16:01:49.531Z</time></trkpt><trkpt lat="40.6506319" lon="15.1499995"><ele>366.14285714285717</ele><time>2026-04-06T16:01:50.53Z</time></trkpt><trkpt lat="40.650599" lon="15.1499253"><ele>365.5714285714286</ele><time>2026-04-06T16:01:51.53Z</time></trkpt><trkpt lat="40.6505596" lon="15.149839"><ele>365.0</ele><time>2026-04-06T16:01:52.531Z</time></trkpt><trkpt lat="40.6505189" lon="15.1497601"><ele>364.0</ele><time>2026-04-06T16:01:53.53Z</time></trkpt><trkpt lat="40.6504922" lon="15.1496785"><ele>363.0</ele><time>2026-04-06T16:01:54.53Z</time></trkpt><trkpt lat="40.6504749" lon="15.1495865"><ele>362.0</ele><time>2026-04-06T16:01:55.53Z</time></trkpt><trkpt lat="40.6504733" lon="15.1494971"><ele>361.0</ele><time>2026-04-06T16:01:56.53Z</time></trkpt><trkpt lat="40.6504541" lon="15.1493497"><ele>360.0</ele><time>2026-04-06T16:01:58.53Z</time></trkpt><trkpt lat="40.6504398" lon="15.1492078"><ele>359.0</ele><time>2026-04-06T16:02:00.53Z</time></trkpt><trkpt lat="40.6504073" lon="15.1491016"><ele>356.6</ele><time>2026-04-06T16:02:02.53Z</time></trkpt><trkpt lat="40.6503535" lon="15.1489872"><ele>354.2</ele><time>2026-04-06T16:02:04.53Z</time></trkpt><trkpt lat="40.6503011" lon="15.1488602"><ele>351.8</ele><time>2026-04-06T16:02:06.531Z</time></trkpt><trkpt lat="40.6502392" lon="15.1487656"><ele>349.40000000000003</ele><time>2026-04-06T16:02:08.53Z</time></trkpt><trkpt lat="40.6501502" lon="15.1487015"><ele>347.0</ele><time>2026-04-06T16:02:10.53Z</time></trkpt><trkpt lat="40.6500297" lon="15.1486577"><ele>346.8571428571429</ele><time>2026-04-06T16:02:12.53Z</time></trkpt><trkpt lat="40.6499604" lon="15.1486405"><ele>346.71428571428567</ele><time>2026-04-06T16:02:13.53Z</time></trkpt><trkpt lat="40.6498871" lon="15.1486018"><ele>346.57142857142856</ele><time>2026-04-06T16:02:14.53Z</time></trkpt><trkpt lat="40.649821" lon="15.1485773"><ele>346.42857142857144</ele><time>2026-04-06T16:02:15.53Z</time></trkpt><trkpt lat="40.6497501" lon="15.1485503"><ele>346.28571428571433</ele><time>2026-04-06T16:02:16.53Z</time></trkpt><trkpt lat="40.6496818" lon="15.1485286"><ele>346.1428571428571</ele><time>2026-04-06T16:02:17.53Z</time></trkpt><trkpt lat="40.6496163" lon="15.1484861"><ele>346.0</ele><time>2026-04-06T16:02:18.53Z</time></trkpt><trkpt lat="40.6495557" lon="15.1484569"><ele>346.0</ele><time>2026-04-06T16:02:19.53Z</time></trkpt><trkpt lat="40.6494228" lon="15.1484261"><ele>343.0</ele><time>2026-04-06T16:02:21.53Z</time></trkpt><trkpt lat="40.6493569" lon="15.1484058"><ele>343.0</ele><time>2026-04-06T16:02:22.531Z</time></trkpt><trkpt lat="40.6492873" lon="15.1483913"><ele>343.0</ele><time>2026-04-06T16:02:23.53Z</time></trkpt><trkpt lat="40.6492159" lon="15.1483701"><ele>343.0</ele><time>2026-04-06T16:02:24.53Z</time></trkpt><trkpt lat="40.6491507" lon="15.1483523"><ele>343.0</ele><time>2026-04-06T16:02:25.53Z</time></trkpt></trkseg></trk></gpx>